<?xml version='1.0' encoding='UTF-8'?><gpx version="1.1" creator="JPX - https://github.com/jenetics/jpx" xmlns="http://www.topografix.com/GPX/1/1"><trk><trkseg><trkpt lat="44.45463510165409" lon="10.36228387363752"><ele>667.0</ele><time>2026-04-19T08:56:57Z</time></trkpt><trkpt lat="44.4547037965368" lon="10.362346642935664"><ele>667.0</ele><time>2026-04-19T08:57:00Z</time></trkpt><trkpt lat="44.454765947745365" lon="10.362383126106433"><ele>667.0</ele><time>2026-04-19T08:57:02Z</time></trkpt><trkpt lat="44.45485118040641" lon="10.362430384340032"><ele>667.0</ele><time>2026-04-19T08:57:04Z</time></trkpt><trkpt lat="44.45493818008286" lon="10.362425727700623"><ele>667.0</ele><time>2026-04-19T08:57:06Z</time></trkpt><trkpt lat="44.45503520978314" lon="10.36245036006304"><ele>667.0</ele><time>2026-04-19T08:57:08Z</time></trkpt><trkpt lat="44.45509894481834" lon="10.362482378170364"><ele>667.0</ele><time>2026-04-19T08:57:10Z</time></trkpt><trkpt lat="44.455147098928165" lon="10.362542105624406"><ele>667.0</ele><time>2026-04-19T08:57:14Z</time></trkpt><trkpt lat="44.455074191727164" lon="10.362627066316959"><ele>667.0</ele><time>2026-04-19T08:57:20Z</time></trkpt><trkpt lat="44.455084156978245" lon="10.362715117617812"><ele>667.0</ele><time>2026-04-19T08:57:24Z</time></trkpt><trkpt lat="44.45517900957607" lon="10.36275707569618"><ele>667.0</ele><time>2026-04-19T08:57:29Z</time></trkpt><trkpt lat="44.45523531992998" lon="10.362804075744695"><ele>667.0</ele><time>2026-04-19T08:57:31Z</time></trkpt><trkpt lat="44.45535218587866" lon="10.362789078104303"><ele>667.0</ele><time>2026-04-19T08:59:45Z</time></trkpt><trkpt lat="44.45524860322016" lon="10.362818297929314"><ele>667.0</ele><time>2026-04-19T09:08:50Z</time></trkpt><trkpt lat="44.455169144526685" lon="10.362774404332425"><ele>667.0</ele><time>2026-04-19T09:08:52Z</time></trkpt><trkpt lat="44.45511853555711" lon="10.362708554522568"><ele>667.0</ele><time>2026-04-19T09:08:55Z</time></trkpt><trkpt lat="44.45513243163096" lon="10.36262011977543"><ele>667.0</ele><time>2026-04-19T09:08:58Z</time></trkpt><trkpt lat="44.45518018189598" lon="10.36255455242159"><ele>667.0</ele><time>2026-04-19T09:09:00Z</time></trkpt><trkpt lat="44.45515389805335" lon="10.362469373350267"><ele>667.0</ele><time>2026-04-19T09:09:03Z</time></trkpt><trkpt lat="44.455078868663115" lon="10.362436861845781"><ele>667.0</ele><time>2026-04-19T09:09:06Z</time></trkpt><trkpt lat="44.4549931676337" lon="10.362435758671673"><ele>667.0</ele><time>2026-04-19T09:09:08Z</time></trkpt><trkpt lat="44.454850740587965" lon="10.362436182307022"><ele>667.0</ele><time>2026-04-19T09:09:10Z</time></trkpt><trkpt lat="44.454761666393864" lon="10.362402144936873"><ele>667.0</ele><time>2026-04-19T09:09:12Z</time></trkpt><trkpt lat="44.45471060025025" lon="10.362340842660895"><ele>667.0000000000001</ele><time>2026-04-19T09:09:14Z</time></trkpt><trkpt lat="44.45464107682155" lon="10.362304115286"><ele>667.0</ele><time>2026-04-19T09:09:17Z</time></trkpt><trkpt lat="44.45464341580905" lon="10.362208645740655"><ele>667.0</ele><time>2026-04-19T09:09:30Z</time></trkpt><trkpt lat="44.45467329992346" lon="10.362103160401638"><ele>667.0</ele><time>2026-04-19T09:09:43Z</time></trkpt><trkpt lat="44.45470854160496" lon="10.362028539130256"><ele>667.0</ele><time>2026-04-19T09:09:46Z</time></trkpt><trkpt lat="44.45475646233638" lon="10.361946828473206"><ele>667.0000000000001</ele><time>2026-04-19T09:09:49Z</time></trkpt><trkpt lat="44.45480690200393" lon="10.36187884366402"><ele>667.0</ele><time>2026-04-19T09:09:51Z</time></trkpt><trkpt lat="44.454860848275914" lon="10.361795941953597"><ele>663.1666666666667</ele><time>2026-04-19T09:09:53Z</time></trkpt><trkpt lat="44.45490971158092" lon="10.361713331713982"><ele>659.3333333333334</ele><time>2026-04-19T09:09:55Z</time></trkpt><trkpt lat="44.45497653483248" lon="10.361620800306564"><ele>655.5</ele><time>2026-04-19T09:09:58Z</time></trkpt><trkpt lat="44.45503577996788" lon="10.361549564697782"><ele>651.6666666666666</ele><time>2026-04-19T09:10:01Z</time></trkpt><trkpt lat="44.45510552463389" lon="10.361560584211972"><ele>647.8333333333333</ele><time>2026-04-19T09:10:04Z</time></trkpt><trkpt lat="44.45504303496444" lon="10.361472807795584"><ele>644.0</ele><time>2026-04-19T09:10:07Z</time></trkpt><trkpt lat="44.45495190732989" lon="10.36142836883185"><ele>641.4000000000001</ele><time>2026-04-19T09:10:09Z</time></trkpt><trkpt lat="44.454882456310244" lon="10.36135643741049"><ele>638.8000000000001</ele><time>2026-04-19T09:10:11Z</time></trkpt><trkpt lat="44.45479677388113" lon="10.361307127425043"><ele>636.2</ele><time>2026-04-19T09:10:13Z</time></trkpt><trkpt lat="44.45468020537662" lon="10.36125920610618"><ele>633.6</ele><time>2026-04-19T09:10:15Z</time></trkpt><trkpt lat="44.454599378943" lon="10.36126064469001"><ele>631.0</ele><time>2026-04-19T09:10:16Z</time></trkpt><trkpt lat="44.454504860930975" lon="10.361273503179845"><ele>627.5</ele><time>2026-04-19T09:10:17Z</time></trkpt><trkpt lat="44.45442044191775" lon="10.361272063159307"><ele>624.0</ele><time>2026-04-19T09:10:18Z</time></trkpt><trkpt lat="44.45433259383699" lon="10.361249012341865"><ele>620.5</ele><time>2026-04-19T09:10:19Z</time></trkpt><trkpt lat="44.4542528883102" lon="10.361197825251123"><ele>617.0</ele><time>2026-04-19T09:10:20Z</time></trkpt><trkpt lat="44.45418175955487" lon="10.361124686161546"><ele>613.5</ele><time>2026-04-19T09:10:21Z</time></trkpt><trkpt lat="44.454124982847574" lon="10.361053300411687"><ele>610.0</ele><time>2026-04-19T09:10:22Z</time></trkpt><trkpt lat="44.45405976277667" lon="10.360993495418443"><ele>610.0</ele><time>2026-04-19T09:10:23Z</time></trkpt><trkpt lat="44.45399942295624" lon="10.360946883769406"><ele>610.0</ele><time>2026-04-19T09:10:24Z</time></trkpt><trkpt lat="44.45394275682043" lon="10.36089463767302"><ele>610.0</ele><time>2026-04-19T09:10:25Z</time></trkpt><trkpt lat="44.45383853177144" lon="10.360867603753116"><ele>610.0</ele><time>2026-04-19T09:10:27Z</time></trkpt><trkpt lat="44.45377385335955" lon="10.36088651667393"><ele>610.0</ele><time>2026-04-19T09:10:28Z</time></trkpt><trkpt lat="44.45370007066837" lon="10.360890843427123"><ele>610.0</ele><time>2026-04-19T09:10:29Z</time></trkpt><trkpt lat="44.45362499981812" lon="10.360893397366468"><ele>608.0</ele><time>2026-04-19T09:10:30Z</time></trkpt><trkpt lat="44.45355201816182" lon="10.3608715702169"><ele>606.0</ele><time>2026-04-19T09:10:31Z</time></trkpt><trkpt lat="44.45351250071858" lon="10.360776374322088"><ele>604.0</ele><time>2026-04-19T09:10:32Z</time></trkpt><trkpt lat="44.453451546933096" lon="10.360749210409391"><ele>602.0</ele><time>2026-04-19T09:10:33Z</time></trkpt><trkpt lat="44.45335899189101" lon="10.36072795859779"><ele>600.0</ele><time>2026-04-19T09:10:35Z</time></trkpt><trkpt lat="44.45329209129443" lon="10.360811378164211"><ele>598.0</ele><time>2026-04-19T09:10:36Z</time></trkpt><trkpt lat="44.45324010216108" lon="10.36092559399065"><ele>598.0</ele><time>2026-04-19T09:10:37Z</time></trkpt><trkpt lat="44.453177071508804" lon="10.361100148337835"><ele>598.0</ele><time>2026-04-19T09:10:38Z</time></trkpt><trkpt lat="44.45312408745175" lon="10.361268193431789"><ele>598.0</ele><time>2026-04-19T09:10:39Z</time></trkpt><trkpt lat="44.45311243270435" lon="10.361360384254853"><ele>598.0</ele><time>2026-04-19T09:10:40Z</time></trkpt><trkpt lat="44.45302766246062" lon="10.361342723559078"><ele>598.0</ele><time>2026-04-19T09:12:22Z</time></trkpt><trkpt lat="44.453064039787115" lon="10.361236078572867"><ele>598.0</ele><time>2026-04-19T09:12:24Z</time></trkpt><trkpt lat="44.453101172535966" lon="10.361147437067112"><ele>598.0</ele><time>2026-04-19T09:12:25Z</time></trkpt><trkpt lat="44.4531613358762" lon="10.361008502062932"><ele>598.0</ele><time>2026-04-19T09:12:26Z</time></trkpt><trkpt lat="44.453199942600314" lon="10.360910409046332"><ele>598.0</ele><time>2026-04-19T09:12:27Z</time></trkpt><trkpt lat="44.453243439632146" lon="10.360840731041662"><ele>598.0</ele><time>2026-04-19T09:12:28Z</time></trkpt><trkpt lat="44.45331305918929" lon="10.360735544900626"><ele>598.0</ele><time>2026-04-19T09:12:30Z</time></trkpt><trkpt lat="44.45327195440741" lon="10.360630074232434"><ele>598.0</ele><time>2026-04-19T09:12:32Z</time></trkpt><trkpt lat="44.453214719167605" lon="10.360579343738268"><ele>598.0</ele><time>2026-04-19T09:12:33Z</time></trkpt><trkpt lat="44.45316605705176" lon="10.360489718507882"><ele>598.0</ele><time>2026-04-19T09:12:34Z</time></trkpt><trkpt lat="44.45309361744738" lon="10.36044295487203"><ele>598.0</ele><time>2026-04-19T09:12:35Z</time></trkpt><trkpt lat="44.45303047586612" lon="10.360404103862223"><ele>598.0</ele><time>2026-04-19T09:12:36Z</time></trkpt><trkpt lat="44.45296510975816" lon="10.36036599532392"><ele>598.0</ele><time>2026-04-19T09:12:37Z</time></trkpt><trkpt lat="44.45290221781007" lon="10.360330835678965"><ele>598.0</ele><time>2026-04-19T09:12:38Z</time></trkpt><trkpt lat="44.45283826477606" lon="10.360292693345759"><ele>596.0</ele><time>2026-04-19T09:12:39Z</time></trkpt><trkpt lat="44.452762433500546" lon="10.3602271278187"><ele>594.0</ele><time>2026-04-19T09:12:41Z</time></trkpt><trkpt lat="44.452708400744044" lon="10.360178229438505"><ele>592.0</ele><time>2026-04-19T09:12:45Z</time></trkpt><trkpt lat="44.452613431276454" lon="10.36006677862546"><ele>590.0</ele><time>2026-04-19T09:12:47Z</time></trkpt><trkpt lat="44.4525302083601" lon="10.359969942532132"><ele>588.0</ele><time>2026-04-19T09:12:48Z</time></trkpt><trkpt lat="44.45246178713465" lon="10.359880413466911"><ele>588.0</ele><time>2026-04-19T09:12:49Z</time></trkpt><trkpt lat="44.4527841468093" lon="10.359665700640639"><ele>588.0</ele><time>2026-04-19T09:12:53Z</time></trkpt><trkpt lat="44.45289176349303" lon="10.359749040165427"><ele>586.5</ele><time>2026-04-19T09:12:54Z</time></trkpt><trkpt lat="44.45305462785969" lon="10.359824989648354"><ele>585.0</ele><time>2026-04-19T09:12:55Z</time></trkpt><trkpt lat="44.45318108663511" lon="10.359866165877888"><ele>583.5</ele><time>2026-04-19T09:12:56Z</time></trkpt><trkpt lat="44.45328879296529" lon="10.359859355945419"><ele>582.0</ele><time>2026-04-19T09:12:57Z</time></trkpt><trkpt lat="44.45335415203826" lon="10.35984627140335"><ele>582.0</ele><time>2026-04-19T09:12:58Z</time></trkpt><trkpt lat="44.45329520355843" lon="10.35980435417557"><ele>582.0</ele><time>2026-04-19T09:13:06Z</time></trkpt><trkpt lat="44.45318554541103" lon="10.35974289438374"><ele>582.0</ele><time>2026-04-19T09:13:09Z</time></trkpt><trkpt lat="44.453106351255855" lon="10.359670598960571"><ele>582.0</ele><time>2026-04-19T09:13:10Z</time></trkpt><trkpt lat="44.453045759054724" lon="10.359558020873283"><ele>582.0</ele><time>2026-04-19T09:13:11Z</time></trkpt><trkpt lat="44.45302579756147" lon="10.359473997696888"><ele>582.0</ele><time>2026-04-19T09:13:12Z</time></trkpt><trkpt lat="44.45298160771083" lon="10.359407334693572"><ele>580.8000000000001</ele><time>2026-04-19T09:13:14Z</time></trkpt><trkpt lat="44.45292153703644" lon="10.359331451186318"><ele>579.6</ele><time>2026-04-19T09:13:16Z</time></trkpt><trkpt lat="44.45287805837696" lon="10.359263313089745"><ele>578.4000000000001</ele><time>2026-04-19T09:13:17Z</time></trkpt><trkpt lat="44.45282374965376" lon="10.359110564540687"><ele>577.2</ele><time>2026-04-19T09:13:19Z</time></trkpt><trkpt lat="44.45278618069383" lon="10.358946796085101"><ele>576.0</ele><time>2026-04-19T09:13:21Z</time></trkpt><trkpt lat="44.45274487846931" lon="10.35879909924389"><ele>571.8</ele><time>2026-04-19T09:13:23Z</time></trkpt><trkpt lat="44.45270785059525" lon="10.358658966009907"><ele>567.6</ele><time>2026-04-19T09:13:25Z</time></trkpt><trkpt lat="44.45267662548238" lon="10.358513854665269"><ele>563.4</ele><time>2026-04-19T09:13:27Z</time></trkpt><trkpt lat="44.45263681961492" lon="10.358373956171603"><ele>559.2</ele><time>2026-04-19T09:13:29Z</time></trkpt><trkpt lat="44.45258211408093" lon="10.358215564516902"><ele>555.0</ele><time>2026-04-19T09:13:31Z</time></trkpt><trkpt lat="44.452557076759476" lon="10.358067734811248"><ele>555.0</ele><time>2026-04-19T09:13:33Z</time></trkpt><trkpt lat="44.45251586596969" lon="10.357983147194167"><ele>555.0</ele><time>2026-04-19T09:13:34Z</time></trkpt><trkpt lat="44.452503843954176" lon="10.357875843923386"><ele>555.0</ele><time>2026-04-19T09:13:36Z</time></trkpt><trkpt lat="44.45242133090273" lon="10.357944145139726"><ele>555.0</ele><time>2026-04-19T09:14:52Z</time></trkpt><trkpt lat="44.45248561013458" lon="10.357923881396644"><ele>555.0</ele><time>2026-04-19T09:16:07Z</time></trkpt><trkpt lat="44.45250298112194" lon="10.358036493333252"><ele>555.0</ele><time>2026-04-19T09:17:12Z</time></trkpt><trkpt lat="44.45253370488517" lon="10.358141770063721"><ele>555.0</ele><time>2026-04-19T09:17:13Z</time></trkpt><trkpt lat="44.45256907581059" lon="10.358285719581705"><ele>555.0</ele><time>2026-04-19T09:17:14Z</time></trkpt><trkpt lat="44.45260672376713" lon="10.358421329266205"><ele>555.0</ele><time>2026-04-19T09:17:15Z</time></trkpt><trkpt lat="44.45264775269026" lon="10.358526645130297"><ele>555.0</ele><time>2026-04-19T09:17:16Z</time></trkpt><trkpt lat="44.4526613445367" lon="10.358620144159406"><ele>555.0</ele><time>2026-04-19T09:17:17Z</time></trkpt><trkpt lat="44.45268210053747" lon="10.358717427753824"><ele>555.0</ele><time>2026-04-19T09:17:18Z</time></trkpt><trkpt lat="44.45270124864099" lon="10.358802239123623"><ele>560.25</ele><time>2026-04-19T09:17:19Z</time></trkpt><trkpt lat="44.452754690928224" lon="10.359000249443493"><ele>565.5</ele><time>2026-04-19T09:17:21Z</time></trkpt><trkpt lat="44.4527977246162" lon="10.359143015620603"><ele>570.75</ele><time>2026-04-19T09:17:22Z</time></trkpt><trkpt lat="44.45283652361994" lon="10.359280496129239"><ele>576.0</ele><time>2026-04-19T09:17:23Z</time></trkpt><trkpt lat="44.452917512751995" lon="10.359418108562886"><ele>577.2</ele><time>2026-04-19T09:17:24Z</time></trkpt><trkpt lat="44.45300217378485" lon="10.359541260681175"><ele>578.4000000000001</ele><time>2026-04-19T09:17:25Z</time></trkpt><trkpt lat="44.45304138687118" lon="10.35963496321719"><ele>579.6</ele><time>2026-04-19T09:17:26Z</time></trkpt><trkpt lat="44.453095831513004" lon="10.359741097438288"><ele>580.8000000000001</ele><time>2026-04-19T09:17:27Z</time></trkpt><trkpt lat="44.453165748322554" lon="10.359816259835787"><ele>582.0</ele><time>2026-04-19T09:17:28Z</time></trkpt><trkpt lat="44.4532393898433" lon="10.359841733220824"><ele>582.0</ele><time>2026-04-19T09:17:29Z</time></trkpt><trkpt lat="44.45331514987499" lon="10.359832701597538"><ele>582.0</ele><time>2026-04-19T09:17:30Z</time></trkpt><trkpt lat="44.45338292657193" lon="10.359806055673348"><ele>582.0</ele><time>2026-04-19T09:17:31Z</time></trkpt><trkpt lat="44.453465724136095" lon="10.359676359656321"><ele>582.0</ele><time>2026-04-19T09:17:33Z</time></trkpt><trkpt lat="44.453526682354436" lon="10.359563149753505"><ele>582.0</ele><time>2026-04-19T09:17:35Z</time></trkpt><trkpt lat="44.45358472261957" lon="10.35945757609917"><ele>580.8000000000001</ele><time>2026-04-19T09:17:37Z</time></trkpt><trkpt lat="44.453641902942394" lon="10.359353843697566"><ele>579.6</ele><time>2026-04-19T09:17:39Z</time></trkpt><trkpt lat="44.45370222912135" lon="10.359248025250269"><ele>578.4000000000001</ele><time>2026-04-19T09:17:41Z</time></trkpt><trkpt lat="44.45376540721648" lon="10.359208155494766"><ele>577.2</ele><time>2026-04-19T09:18:24Z</time></trkpt><trkpt lat="44.45379341724592" lon="10.35911149501708"><ele>576.0</ele><time>2026-04-19T09:18:26Z</time></trkpt><trkpt lat="44.453880635781616" lon="10.359004577778148"><ele>576.0</ele><time>2026-04-19T09:18:28Z</time></trkpt><trkpt lat="44.45391512647877" lon="10.35890693226171"><ele>576.0</ele><time>2026-04-19T09:18:30Z</time></trkpt><trkpt lat="44.4539313642646" lon="10.358769162912681"><ele>576.0</ele><time>2026-04-19T09:18:33Z</time></trkpt><trkpt lat="44.45380460995487" lon="10.358700847122707"><ele>576.0</ele><time>2026-04-19T09:18:35Z</time></trkpt><trkpt lat="44.45375458970778" lon="10.358529500339058"><ele>576.0</ele><time>2026-04-19T09:18:37Z</time></trkpt><trkpt lat="44.45373884072448" lon="10.358395529952293"><ele>574.25</ele><time>2026-04-19T09:18:38Z</time></trkpt><trkpt lat="44.453867761296934" lon="10.358271311475578"><ele>572.5</ele><time>2026-04-19T09:18:39Z</time></trkpt><trkpt lat="44.45387481006189" lon="10.358103617880019"><ele>570.75</ele><time>2026-04-19T09:18:41Z</time></trkpt><trkpt lat="44.453866236734925" lon="10.357963786711451"><ele>569.0</ele><time>2026-04-19T09:18:43Z</time></trkpt><trkpt lat="44.453878851334984" lon="10.35779540616517"><ele>565.8</ele><time>2026-04-19T09:18:45Z</time></trkpt><trkpt lat="44.453890625584975" lon="10.357684154956544"><ele>562.5999999999999</ele><time>2026-04-19T09:18:46Z</time></trkpt><trkpt lat="44.45394088561009" lon="10.357555876588583"><ele>559.4</ele><time>2026-04-19T09:18:47Z</time></trkpt><trkpt lat="44.45401257663376" lon="10.357469248195592"><ele>556.1999999999999</ele><time>2026-04-19T09:18:48Z</time></trkpt><trkpt lat="44.454104110921776" lon="10.357371965557956"><ele>553.0</ele><time>2026-04-19T09:18:49Z</time></trkpt><trkpt lat="44.454166406426104" lon="10.357272907924505"><ele>551.8333333333334</ele><time>2026-04-19T09:18:50Z</time></trkpt><trkpt lat="44.454195921520395" lon="10.35716501026786"><ele>550.6666666666667</ele><time>2026-04-19T09:18:51Z</time></trkpt><trkpt lat="44.45422035546533" lon="10.357027740485705"><ele>549.5</ele><time>2026-04-19T09:18:52Z</time></trkpt><trkpt lat="44.4542361188932" lon="10.356881407852713"><ele>548.3333333333334</ele><time>2026-04-19T09:18:53Z</time></trkpt><trkpt lat="44.454245073957175" lon="10.356764377721204"><ele>547.1666666666666</ele><time>2026-04-19T09:18:54Z</time></trkpt><trkpt lat="44.4542525942523" lon="10.35667060762519"><ele>546.0</ele><time>2026-04-19T09:18:55Z</time></trkpt><trkpt lat="44.454171800423346" lon="10.35656175702592"><ele>546.0</ele><time>2026-04-19T09:18:57Z</time></trkpt><trkpt lat="44.45403924400202" lon="10.356548354987796"><ele>546.0</ele><time>2026-04-19T09:18:58Z</time></trkpt><trkpt lat="44.45395621253053" lon="10.356506252184978"><ele>546.0</ele><time>2026-04-19T09:18:59Z</time></trkpt><trkpt lat="44.45391331049865" lon="10.356421242509729"><ele>546.0</ele><time>2026-04-19T09:19:00Z</time></trkpt><trkpt lat="44.45388194463757" lon="10.356280229738065"><ele>546.0</ele><time>2026-04-19T09:19:01Z</time></trkpt><trkpt lat="44.453930329078055" lon="10.3561379117972"><ele>547.4</ele><time>2026-04-19T09:19:02Z</time></trkpt><trkpt lat="44.45399631706722" lon="10.35603683706843"><ele>548.8</ele><time>2026-04-19T09:19:03Z</time></trkpt><trkpt lat="44.45402821529648" lon="10.355911271876812"><ele>550.1999999999999</ele><time>2026-04-19T09:19:05Z</time></trkpt><trkpt lat="44.45397425470997" lon="10.355809044627021"><ele>551.6</ele><time>2026-04-19T09:19:07Z</time></trkpt><trkpt lat="44.45389958031106" lon="10.355671675900924"><ele>553.0</ele><time>2026-04-19T09:19:09Z</time></trkpt><trkpt lat="44.453799382594816" lon="10.355573760149147"><ele>548.25</ele><time>2026-04-19T09:19:11Z</time></trkpt><trkpt lat="44.45369866976418" lon="10.355468948274579"><ele>543.5</ele><time>2026-04-19T09:19:13Z</time></trkpt><trkpt lat="44.45361283402433" lon="10.355344426608573"><ele>538.75</ele><time>2026-04-19T09:19:15Z</time></trkpt><trkpt lat="44.45358928442636" lon="10.355162970303557"><ele>534.0</ele><time>2026-04-19T09:19:17Z</time></trkpt><trkpt lat="44.453609395487554" lon="10.35504934383541"><ele>534.0</ele><time>2026-04-19T09:19:18Z</time></trkpt><trkpt lat="44.45360256827802" lon="10.354933805751692"><ele>534.0</ele><time>2026-04-19T09:19:19Z</time></trkpt><trkpt lat="44.45360712611605" lon="10.354822818462596"><ele>534.0</ele><time>2026-04-19T09:19:20Z</time></trkpt><trkpt lat="44.45361576507132" lon="10.354713406824148"><ele>534.0</ele><time>2026-04-19T09:19:21Z</time></trkpt><trkpt lat="44.45362438115229" lon="10.354611910925865"><ele>534.0</ele><time>2026-04-19T09:19:22Z</time></trkpt><trkpt lat="44.45364551189901" lon="10.354518645510849"><ele>534.0</ele><time>2026-04-19T09:19:23Z</time></trkpt><trkpt lat="44.453693527718734" lon="10.354437010082744"><ele>533.8333333333334</ele><time>2026-04-19T09:19:24Z</time></trkpt><trkpt lat="44.45374627737156" lon="10.354364521051314"><ele>533.6666666666666</ele><time>2026-04-19T09:19:25Z</time></trkpt><trkpt lat="44.45379752165413" lon="10.354294073675764"><ele>533.5</ele><time>2026-04-19T09:19:26Z</time></trkpt><trkpt lat="44.45377434509435" lon="10.354182504602372"><ele>533.3333333333333</ele><time>2026-04-19T09:19:28Z</time></trkpt><trkpt lat="44.45369284800949" lon="10.354131210370054"><ele>533.1666666666666</ele><time>2026-04-19T09:19:29Z</time></trkpt><trkpt lat="44.45360119564985" lon="10.354093494083205"><ele>533.0</ele><time>2026-04-19T09:19:30Z</time></trkpt><trkpt lat="44.45350227687603" lon="10.354044846714142"><ele>531.5</ele><time>2026-04-19T09:19:31Z</time></trkpt><trkpt lat="44.45343054368361" lon="10.354010245509114"><ele>530.0</ele><time>2026-04-19T09:19:32Z</time></trkpt><trkpt lat="44.45332978631214" lon="10.353941189429895"><ele>528.5</ele><time>2026-04-19T09:19:34Z</time></trkpt><trkpt lat="44.45327396945698" lon="10.353885891025246"><ele>527.0</ele><time>2026-04-19T09:19:35Z</time></trkpt><trkpt lat="44.453202770036405" lon="10.35385426736286"><ele>525.5</ele><time>2026-04-19T09:19:36Z</time></trkpt><trkpt lat="44.453122893570146" lon="10.353836737032234"><ele>524.0</ele><time>2026-04-19T09:19:37Z</time></trkpt><trkpt lat="44.4530436539346" lon="10.353831638472757"><ele>523.1666666666666</ele><time>2026-04-19T09:19:38Z</time></trkpt><trkpt lat="44.452972558229085" lon="10.353799176018313"><ele>522.3333333333333</ele><time>2026-04-19T09:19:39Z</time></trkpt><trkpt lat="44.452892953753185" lon="10.353822283167027"><ele>521.5</ele><time>2026-04-19T09:19:40Z</time></trkpt><trkpt lat="44.452817896115896" lon="10.353828015794434"><ele>520.6666666666666</ele><time>2026-04-19T09:19:41Z</time></trkpt><trkpt lat="44.452715956378576" lon="10.353814338773546"><ele>519.8333333333334</ele><time>2026-04-19T09:19:43Z</time></trkpt><trkpt lat="44.45265279788474" lon="10.353743154308399"><ele>519.0</ele><time>2026-04-19T09:19:45Z</time></trkpt><trkpt lat="44.452593529561945" lon="10.353652816016819"><ele>519.0</ele><time>2026-04-19T09:19:47Z</time></trkpt><trkpt lat="44.45251979512796" lon="10.35357726895648"><ele>519.0</ele><time>2026-04-19T09:19:48Z</time></trkpt><trkpt lat="44.452451151442915" lon="10.353509797028792"><ele>519.0</ele><time>2026-04-19T09:19:49Z</time></trkpt><trkpt lat="44.45238217298986" lon="10.353441546860292"><ele>519.0</ele><time>2026-04-19T09:19:50Z</time></trkpt><trkpt lat="44.45231641544592" lon="10.35334441664372"><ele>519.0</ele><time>2026-04-19T09:19:51Z</time></trkpt><trkpt lat="44.45223165166589" lon="10.353255565920131"><ele>520.2</ele><time>2026-04-19T09:19:52Z</time></trkpt><trkpt lat="44.452111215097226" lon="10.353286837038748"><ele>521.4</ele><time>2026-04-19T09:19:53Z</time></trkpt><trkpt lat="44.452022446935295" lon="10.3532898352275"><ele>522.6</ele><time>2026-04-19T09:19:54Z</time></trkpt><trkpt lat="44.45192323580378" lon="10.353245242009132"><ele>523.8</ele><time>2026-04-19T09:19:56Z</time></trkpt><trkpt lat="44.451895772222706" lon="10.35310751958219"><ele>525.0</ele><time>2026-04-19T09:19:58Z</time></trkpt><trkpt lat="44.45188967900989" lon="10.353000795884745"><ele>525.75</ele><time>2026-04-19T09:19:59Z</time></trkpt><trkpt lat="44.4518590707601" lon="10.352891990485203"><ele>526.5</ele><time>2026-04-19T09:20:00Z</time></trkpt><trkpt lat="44.451804246097005" lon="10.352753891484266"><ele>527.25</ele><time>2026-04-19T09:20:01Z</time></trkpt><trkpt lat="44.45170756052319" lon="10.35257044113608"><ele>528.0</ele><time>2026-04-19T09:20:02Z</time></trkpt><trkpt lat="44.45161739196167" lon="10.352374149793798"><ele>526.3333333333334</ele><time>2026-04-19T09:20:03Z</time></trkpt><trkpt lat="44.45152850108861" lon="10.35219656570806"><ele>524.6666666666667</ele><time>2026-04-19T09:20:04Z</time></trkpt><trkpt lat="44.451427158507514" lon="10.352030445793538"><ele>523.0</ele><time>2026-04-19T09:20:05Z</time></trkpt><trkpt lat="44.45132554208311" lon="10.351883743371433"><ele>522.8333333333334</ele><time>2026-04-19T09:20:06Z</time></trkpt><trkpt lat="44.451247931397575" lon="10.351785785934215"><ele>522.6666666666667</ele><time>2026-04-19T09:20:07Z</time></trkpt><trkpt lat="44.451215925212274" lon="10.35165278605994"><ele>522.5</ele><time>2026-04-19T09:20:09Z</time></trkpt><trkpt lat="44.4511889471358" lon="10.351565959662606"><ele>522.3333333333334</ele><time>2026-04-19T09:20:10Z</time></trkpt><trkpt lat="44.451136400667785" lon="10.35147468947154"><ele>522.1666666666666</ele><time>2026-04-19T09:20:12Z</time></trkpt><trkpt lat="44.451110860625825" lon="10.351356720272179"><ele>522.0</ele><time>2026-04-19T09:20:14Z</time></trkpt><trkpt lat="44.451115816631116" lon="10.351504634371814"><ele>522.0</ele><time>2026-04-19T09:20:19Z</time></trkpt><trkpt lat="44.45116158998082" lon="10.351590296061465"><ele>522.0</ele><time>2026-04-19T09:20:20Z</time></trkpt><trkpt lat="44.451186850764216" lon="10.351677992638875"><ele>522.0</ele><time>2026-04-19T09:20:21Z</time></trkpt><trkpt lat="44.451195775537116" lon="10.351778196669663"><ele>522.0</ele><time>2026-04-19T09:20:22Z</time></trkpt><trkpt lat="44.451216270325396" lon="10.35188947531182"><ele>522.0</ele><time>2026-04-19T09:20:23Z</time></trkpt><trkpt lat="44.45122861481363" lon="10.35198769296992"><ele>522.0</ele><time>2026-04-19T09:20:24Z</time></trkpt><trkpt lat="44.45127715721625" lon="10.352142922786136"><ele>522.1666666666666</ele><time>2026-04-19T09:20:26Z</time></trkpt><trkpt lat="44.45132930609561" lon="10.352202742020864"><ele>522.3333333333334</ele><time>2026-04-19T09:20:27Z</time></trkpt><trkpt lat="44.451379408656535" lon="10.352277645649014"><ele>522.5</ele><time>2026-04-19T09:20:28Z</time></trkpt><trkpt lat="44.45141962437654" lon="10.352356202792523"><ele>522.6666666666667</ele><time>2026-04-19T09:20:29Z</time></trkpt><trkpt lat="44.451469074944384" lon="10.35244624980773"><ele>522.8333333333334</ele><time>2026-04-19T09:20:30Z</time></trkpt><trkpt lat="44.451524479856005" lon="10.352538057368314"><ele>523.0</ele><time>2026-04-19T09:20:31Z</time></trkpt><trkpt lat="44.45158541078687" lon="10.352639160841346"><ele>523.4</ele><time>2026-04-19T09:20:32Z</time></trkpt><trkpt lat="44.45164361559465" lon="10.352747183776941"><ele>523.8</ele><time>2026-04-19T09:20:33Z</time></trkpt><trkpt lat="44.451700636922816" lon="10.352858179574097"><ele>524.2</ele><time>2026-04-19T09:20:34Z</time></trkpt><trkpt lat="44.45175322403974" lon="10.352957928631039"><ele>524.6</ele><time>2026-04-19T09:20:35Z</time></trkpt><trkpt lat="44.45180220657536" lon="10.353038750803698"><ele>525.0</ele><time>2026-04-19T09:20:36Z</time></trkpt><trkpt lat="44.45187468047633" lon="10.35313208520814"><ele>525.0</ele><time>2026-04-19T09:20:38Z</time></trkpt><trkpt lat="44.45189055157606" lon="10.353259901149018"><ele>525.0</ele><time>2026-04-19T09:20:40Z</time></trkpt><trkpt lat="44.451802670275065" lon="10.353221625594056"><ele>525.0</ele><time>2026-04-19T09:20:44Z</time></trkpt><trkpt lat="44.451726576802514" lon="10.353150723280903"><ele>525.0</ele><time>2026-04-19T09:20:45Z</time></trkpt><trkpt lat="44.45166854643745" lon="10.35309011535018"><ele>525.0</ele><time>2026-04-19T09:20:46Z</time></trkpt><trkpt lat="44.45160212945299" lon="10.353053635293401"><ele>525.0</ele><time>2026-04-19T09:20:47Z</time></trkpt><trkpt lat="44.451531692739465" lon="10.353047978069378"><ele>525.4</ele><time>2026-04-19T09:20:48Z</time></trkpt><trkpt lat="44.451458403896616" lon="10.35302570127897"><ele>525.8</ele><time>2026-04-19T09:20:49Z</time></trkpt><trkpt lat="44.45139307706397" lon="10.353021090828973"><ele>526.2</ele><time>2026-04-19T09:20:50Z</time></trkpt><trkpt lat="44.451317720164106" lon="10.35301077039539"><ele>526.6</ele><time>2026-04-19T09:20:51Z</time></trkpt><trkpt lat="44.451197269965775" lon="10.353019951800455"><ele>527.0</ele><time>2026-04-19T09:20:52Z</time></trkpt><trkpt lat="44.451084574058356" lon="10.353047132890417"><ele>525.0</ele><time>2026-04-19T09:20:53Z</time></trkpt><trkpt lat="44.45100558174248" lon="10.353084007896674"><ele>523.0</ele><time>2026-04-19T09:20:54Z</time></trkpt><trkpt lat="44.45090819443643" lon="10.353177652491494"><ele>521.0</ele><time>2026-04-19T09:20:56Z</time></trkpt><trkpt lat="44.45082007055954" lon="10.35317745393793"><ele>519.0</ele><time>2026-04-19T09:20:58Z</time></trkpt><trkpt lat="44.45075389421765" lon="10.353185925901688"><ele>517.0</ele><time>2026-04-19T09:20:59Z</time></trkpt><trkpt lat="44.450623378274074" lon="10.35319216870825"><ele>517.0</ele><time>2026-04-19T09:21:01Z</time></trkpt><trkpt lat="44.45055950119868" lon="10.353212184405926"><ele>517.0</ele><time>2026-04-19T09:21:02Z</time></trkpt><trkpt lat="44.45046507620496" lon="10.353232858287928"><ele>517.0</ele><time>2026-04-19T09:21:04Z</time></trkpt><trkpt lat="44.450388459746655" lon="10.353285366081964"><ele>517.0</ele><time>2026-04-19T09:21:06Z</time></trkpt><trkpt lat="44.45029718862972" lon="10.353223274080392"><ele>517.0</ele><time>2026-04-19T09:21:08Z</time></trkpt><trkpt lat="44.45025471673117" lon="10.353100025451976"><ele>517.0</ele><time>2026-04-19T09:21:09Z</time></trkpt><trkpt lat="44.45020898080105" lon="10.352960348602837"><ele>513.5</ele><time>2026-04-19T09:21:10Z</time></trkpt><trkpt lat="44.450170997097665" lon="10.352872474502771"><ele>510.0</ele><time>2026-04-19T09:21:11Z</time></trkpt><trkpt lat="44.45012113709435" lon="10.352728333633737"><ele>506.5</ele><time>2026-04-19T09:21:13Z</time></trkpt><trkpt lat="44.45007843299871" lon="10.352590821673726"><ele>503.0</ele><time>2026-04-19T09:21:15Z</time></trkpt><trkpt lat="44.45002508014716" lon="10.35252207206077"><ele>499.50000000000006</ele><time>2026-04-19T09:21:17Z</time></trkpt><trkpt lat="44.44995132483648" lon="10.352518173853857"><ele>496.0</ele><time>2026-04-19T09:21:19Z</time></trkpt><trkpt lat="44.44988639395843" lon="10.352443194486135"><ele>496.0</ele><time>2026-04-19T09:21:21Z</time></trkpt><trkpt lat="44.44982021623564" lon="10.35244157825073"><ele>496.00000000000006</ele><time>2026-04-19T09:21:24Z</time></trkpt><trkpt lat="44.44978204861514" lon="10.352511839290422"><ele>496.0</ele><time>2026-04-19T09:21:26Z</time></trkpt><trkpt lat="44.44969593669058" lon="10.352606695825589"><ele>496.0</ele><time>2026-04-19T09:21:29Z</time></trkpt><trkpt lat="44.44962770094242" lon="10.352632569280756"><ele>496.00000000000006</ele><time>2026-04-19T09:22:57Z</time></trkpt><trkpt lat="44.44965102612226" lon="10.3525490201805"><ele>496.0</ele><time>2026-04-19T09:23:01Z</time></trkpt><trkpt lat="44.44972409747554" lon="10.352527514197348"><ele>496.0</ele><time>2026-04-19T09:23:03Z</time></trkpt><trkpt lat="44.44978453564231" lon="10.352443651798604"><ele>496.0</ele><time>2026-04-19T09:23:06Z</time></trkpt><trkpt lat="44.4498692973718" lon="10.352437463690787"><ele>496.0</ele><time>2026-04-19T09:23:08Z</time></trkpt><trkpt lat="44.449936598959944" lon="10.352524434343035"><ele>496.0</ele><time>2026-04-19T09:23:11Z</time></trkpt><trkpt lat="44.45001236608152" lon="10.352562221241786"><ele>496.0</ele><time>2026-04-19T09:23:13Z</time></trkpt><trkpt lat="44.449906519044326" lon="10.352471443905403"><ele>496.0</ele><time>2026-04-19T09:23:43Z</time></trkpt><trkpt lat="44.44984986947338" lon="10.352391203069402"><ele>496.00000000000006</ele><time>2026-04-19T09:23:45Z</time></trkpt><trkpt lat="44.44983007992584" lon="10.352305721931655"><ele>496.0</ele><time>2026-04-19T09:23:46Z</time></trkpt><trkpt lat="44.449776991372964" lon="10.352199988672254"><ele>496.0</ele><time>2026-04-19T09:23:47Z</time></trkpt><trkpt lat="44.44975098081117" lon="10.352098554845444"><ele>496.0</ele><time>2026-04-19T09:23:48Z</time></trkpt><trkpt lat="44.4497175125187" lon="10.351953630844077"><ele>496.00000000000006</ele><time>2026-04-19T09:23:50Z</time></trkpt><trkpt lat="44.449697176335576" lon="10.351829016567459"><ele>496.0</ele><time>2026-04-19T09:23:52Z</time></trkpt><trkpt lat="44.449647389363605" lon="10.351733316192062"><ele>490.6666666666667</ele><time>2026-04-19T09:23:56Z</time></trkpt><trkpt lat="44.44956503774221" lon="10.351709055666982"><ele>485.33333333333337</ele><time>2026-04-19T09:23:58Z</time></trkpt><trkpt lat="44.44945820870325" lon="10.351695928042005"><ele>480.0</ele><time>2026-04-19T09:24:00Z</time></trkpt><trkpt lat="44.44936812868774" lon="10.351661418544147"><ele>474.66666666666663</ele><time>2026-04-19T09:24:02Z</time></trkpt><trkpt lat="44.44931451466911" lon="10.351594194192442"><ele>469.3333333333333</ele><time>2026-04-19T09:24:04Z</time></trkpt><trkpt lat="44.449247882311425" lon="10.351599929884262"><ele>464.0</ele><time>2026-04-19T09:24:07Z</time></trkpt><trkpt lat="44.449162348342455" lon="10.351696750028077"><ele>463.99999999999994</ele><time>2026-04-19T09:24:09Z</time></trkpt><trkpt lat="44.44911268575721" lon="10.351787996846236"><ele>464.0</ele><time>2026-04-19T09:24:10Z</time></trkpt><trkpt lat="44.44906766709687" lon="10.351877735479048"><ele>464.0</ele><time>2026-04-19T09:24:11Z</time></trkpt><trkpt lat="44.4490295655397" lon="10.35195346961344"><ele>464.0</ele><time>2026-04-19T09:24:12Z</time></trkpt><trkpt lat="44.44896973307608" lon="10.352062387399883"><ele>463.99999999999994</ele><time>2026-04-19T09:24:14Z</time></trkpt><trkpt lat="44.44890887402932" lon="10.35211374753791"><ele>464.0</ele><time>2026-04-19T09:24:15Z</time></trkpt><trkpt lat="44.448837633903594" lon="10.35214733641571"><ele>460.4285714285715</ele><time>2026-04-19T09:24:16Z</time></trkpt><trkpt lat="44.44877678133759" lon="10.352176670765726"><ele>456.8571428571429</ele><time>2026-04-19T09:24:17Z</time></trkpt><trkpt lat="44.44868068369857" lon="10.35222173720848"><ele>453.28571428571433</ele><time>2026-04-19T09:24:19Z</time></trkpt><trkpt lat="44.44863049393473" lon="10.352284244038485"><ele>449.7142857142858</ele><time>2026-04-19T09:24:25Z</time></trkpt><trkpt lat="44.44856996872166" lon="10.352310321112727"><ele>446.1428571428571</ele><time>2026-04-19T09:24:27Z</time></trkpt><trkpt lat="44.448499399091254" lon="10.352370502181094"><ele>442.57142857142856</ele><time>2026-04-19T09:24:29Z</time></trkpt><trkpt lat="44.44849151336664" lon="10.352463801776473"><ele>439.0</ele><time>2026-04-19T09:24:31Z</time></trkpt><trkpt lat="44.44850194400952" lon="10.352563302244068"><ele>439.00000000000006</ele><time>2026-04-19T09:24:33Z</time></trkpt><trkpt lat="44.448519230524994" lon="10.352678319331442"><ele>439.0</ele><time>2026-04-19T09:24:35Z</time></trkpt><trkpt lat="44.44854348827004" lon="10.352785619577341"><ele>439.0</ele><time>2026-04-19T09:24:37Z</time></trkpt><trkpt lat="44.44855366634368" lon="10.352887514044417"><ele>439.0</ele><time>2026-04-19T09:24:40Z</time></trkpt><trkpt lat="44.44856121287927" lon="10.353013006909698"><ele>439.00000000000006</ele><time>2026-04-19T09:24:43Z</time></trkpt><trkpt lat="44.44850700047269" lon="10.35306715375452"><ele>439.0</ele><time>2026-04-19T09:24:46Z</time></trkpt><trkpt lat="44.44844196395553" lon="10.35304299553835"><ele>439.0</ele><time>2026-04-19T09:24:48Z</time></trkpt><trkpt lat="44.448391553197865" lon="10.352982124426623"><ele>439.0</ele><time>2026-04-19T09:24:50Z</time></trkpt><trkpt lat="44.44833654401781" lon="10.352922885294388"><ele>439.0</ele><time>2026-04-19T09:24:55Z</time></trkpt><trkpt lat="44.44828234818552" lon="10.352810235794367"><ele>439.0</ele><time>2026-04-19T09:24:59Z</time></trkpt><trkpt lat="44.448267487143056" lon="10.352715263240952"><ele>439.0</ele><time>2026-04-19T09:25:01Z</time></trkpt><trkpt lat="44.44823871900036" lon="10.352609399527479"><ele>439.0</ele><time>2026-04-19T09:25:04Z</time></trkpt><trkpt lat="44.448184181395014" lon="10.352561475570253"><ele>439.0</ele><time>2026-04-19T09:25:07Z</time></trkpt><trkpt lat="44.44812018596411" lon="10.352562347531332"><ele>439.00000000000006</ele><time>2026-04-19T09:25:53Z</time></trkpt><trkpt lat="44.448056120871605" lon="10.352606706686801"><ele>439.0</ele><time>2026-04-19T09:25:56Z</time></trkpt><trkpt lat="44.44804059070711" lon="10.352708759231692"><ele>439.0</ele><time>2026-04-19T09:30:17Z</time></trkpt><trkpt lat="44.44806891822845" lon="10.352859007329902"><ele>439.0</ele><time>2026-04-19T09:30:19Z</time></trkpt><trkpt lat="44.44809405928162" lon="10.352948884401783"><ele>439.00000000000006</ele><time>2026-04-19T09:30:20Z</time></trkpt><trkpt lat="44.44812408455327" lon="10.353038789133416"><ele>439.0</ele><time>2026-04-19T09:30:21Z</time></trkpt><trkpt lat="44.4481528564365" lon="10.353127380050525"><ele>439.2</ele><time>2026-04-19T09:30:22Z</time></trkpt><trkpt lat="44.44819995439238" lon="10.353277077720671"><ele>439.4</ele><time>2026-04-19T09:30:24Z</time></trkpt><trkpt lat="44.4482517315691" lon="10.353417619877145"><ele>439.6</ele><time>2026-04-19T09:30:26Z</time></trkpt><trkpt lat="44.44829388791003" lon="10.353567226380003"><ele>439.8</ele><time>2026-04-19T09:30:28Z</time></trkpt><trkpt lat="44.44831528686545" lon="10.35365511964218"><ele>440.0</ele><time>2026-04-19T09:30:29Z</time></trkpt><trkpt lat="44.4483182420902" lon="10.353778047018274"><ele>440.5</ele><time>2026-04-19T09:30:31Z</time></trkpt><trkpt lat="44.44827104061704" lon="10.353896582803163"><ele>441.0</ele><time>2026-04-19T09:30:33Z</time></trkpt><trkpt lat="44.44820673822594" lon="10.353965765468866"><ele>441.5</ele><time>2026-04-19T09:30:35Z</time></trkpt><trkpt lat="44.448103342058786" lon="10.353933457006832"><ele>442.0</ele><time>2026-04-19T09:30:37Z</time></trkpt><trkpt lat="44.448132053857854" lon="10.354369877730223"><ele>442.00000000000006</ele><time>2026-04-19T09:30:39Z</time></trkpt><trkpt lat="44.448058984628375" lon="10.354424601670486"><ele>442.0</ele><time>2026-04-19T09:30:40Z</time></trkpt><trkpt lat="44.44800063411696" lon="10.35447370613608"><ele>442.0</ele><time>2026-04-19T09:30:41Z</time></trkpt><trkpt lat="44.44796376665541" lon="10.35454881554069"><ele>442.0</ele><time>2026-04-19T09:30:42Z</time></trkpt><trkpt lat="44.447937896667504" lon="10.354639622742187"><ele>442.00000000000006</ele><time>2026-04-19T09:30:43Z</time></trkpt><trkpt lat="44.44792476405786" lon="10.35478043627558"><ele>442.0</ele><time>2026-04-19T09:30:45Z</time></trkpt><trkpt lat="44.4479000649916" lon="10.35497476843748"><ele>442.5</ele><time>2026-04-19T09:30:47Z</time></trkpt><trkpt lat="44.447876360547795" lon="10.35509803627715"><ele>443.0</ele><time>2026-04-19T09:30:48Z</time></trkpt><trkpt lat="44.447836453641294" lon="10.355267692267311"><ele>443.5</ele><time>2026-04-19T09:30:49Z</time></trkpt><trkpt lat="44.44777553732659" lon="10.355464104419287"><ele>444.0</ele><time>2026-04-19T09:30:50Z</time></trkpt><trkpt lat="44.447707270805324" lon="10.355677296206332"><ele>444.33333333333337</ele><time>2026-04-19T09:30:51Z</time></trkpt><trkpt lat="44.44764165897151" lon="10.355865772499358"><ele>444.6666666666667</ele><time>2026-04-19T09:30:52Z</time></trkpt><trkpt lat="44.44754897144978" lon="10.356046552289634"><ele>445.0</ele><time>2026-04-19T09:30:53Z</time></trkpt><trkpt lat="44.44744022369697" lon="10.356243928936774"><ele>447.0</ele><time>2026-04-19T09:30:54Z</time></trkpt><trkpt lat="44.44734270840163" lon="10.356388887804691"><ele>449.0</ele><time>2026-04-19T09:30:55Z</time></trkpt><trkpt lat="44.447258358041125" lon="10.356506686568212"><ele>451.0</ele><time>2026-04-19T09:30:56Z</time></trkpt><trkpt lat="44.44718718518418" lon="10.356613343656798"><ele>453.0</ele><time>2026-04-19T09:30:57Z</time></trkpt><trkpt lat="44.44712699900699" lon="10.356706505025212"><ele>453.0</ele><time>2026-04-19T09:30:58Z</time></trkpt><trkpt lat="44.44707613367078" lon="10.356799647571398"><ele>452.99999999999994</ele><time>2026-04-19T09:30:59Z</time></trkpt><trkpt lat="44.44702657815801" lon="10.35690946533475"><ele>452.99999999999994</ele><time>2026-04-19T09:31:00Z</time></trkpt><trkpt lat="44.446963422197236" lon="10.357026498910571"><ele>453.0</ele><time>2026-04-19T09:31:01Z</time></trkpt><trkpt lat="44.446873519452616" lon="10.357151464241982"><ele>453.0</ele><time>2026-04-19T09:31:02Z</time></trkpt><trkpt lat="44.44677223870119" lon="10.357309781613422"><ele>452.79999999999995</ele><time>2026-04-19T09:31:03Z</time></trkpt><trkpt lat="44.446689281328794" lon="10.357439838225378"><ele>452.59999999999997</ele><time>2026-04-19T09:31:04Z</time></trkpt><trkpt lat="44.44663330777853" lon="10.357558521561272"><ele>452.40000000000003</ele><time>2026-04-19T09:31:05Z</time></trkpt><trkpt lat="44.44658869456826" lon="10.357706795694337"><ele>452.20000000000005</ele><time>2026-04-19T09:31:06Z</time></trkpt><trkpt lat="44.44657340881278" lon="10.357818088102766"><ele>452.0</ele><time>2026-04-19T09:31:07Z</time></trkpt><trkpt lat="44.446581218043875" lon="10.357908970566806"><ele>452.0</ele><time>2026-04-19T09:31:09Z</time></trkpt><trkpt lat="44.446544180291205" lon="10.357994678492213"><ele>452.0</ele><time>2026-04-19T09:31:11Z</time></trkpt><trkpt lat="44.44648637226216" lon="10.35803611916016"><ele>452.0</ele><time>2026-04-19T09:31:14Z</time></trkpt><trkpt lat="44.44650925422746" lon="10.358362405612274"><ele>452.0</ele><time>2026-04-19T09:31:19Z</time></trkpt><trkpt lat="44.446442100201246" lon="10.358546665101654"><ele>453.6</ele><time>2026-04-19T09:31:20Z</time></trkpt><trkpt lat="44.44645905503575" lon="10.358638702937471"><ele>455.20000000000005</ele><time>2026-04-19T09:31:21Z</time></trkpt><trkpt lat="44.44642066277464" lon="10.358826077256277"><ele>456.8</ele><time>2026-04-19T09:31:22Z</time></trkpt><trkpt lat="44.44637030758781" lon="10.358976055604682"><ele>458.4</ele><time>2026-04-19T09:31:23Z</time></trkpt><trkpt lat="44.446308989264544" lon="10.359124694844555"><ele>460.0</ele><time>2026-04-19T09:31:24Z</time></trkpt><trkpt lat="44.44627976018366" lon="10.359229907991073"><ele>460.8</ele><time>2026-04-19T09:31:25Z</time></trkpt><trkpt lat="44.44626098449622" lon="10.359369794260461"><ele>461.6</ele><time>2026-04-19T09:31:26Z</time></trkpt><trkpt lat="44.446203506275296" lon="10.35947131524409"><ele>462.4</ele><time>2026-04-19T09:31:27Z</time></trkpt><trkpt lat="44.44614781102985" lon="10.359565923387796"><ele>463.2</ele><time>2026-04-19T09:31:28Z</time></trkpt><trkpt lat="44.44611965957487" lon="10.359663373375232"><ele>464.0</ele><time>2026-04-19T09:31:29Z</time></trkpt><trkpt lat="44.44602763127218" lon="10.359742638827031"><ele>464.3333333333333</ele><time>2026-04-19T09:31:31Z</time></trkpt><trkpt lat="44.44596872111571" lon="10.359801646059388"><ele>464.66666666666663</ele><time>2026-04-19T09:31:34Z</time></trkpt><trkpt lat="44.44594537004634" lon="10.359896319050156"><ele>465.0</ele><time>2026-04-19T09:31:35Z</time></trkpt><trkpt lat="44.44587213681518" lon="10.360007229435345"><ele>465.33333333333337</ele><time>2026-04-19T09:31:37Z</time></trkpt><trkpt lat="44.445787026281906" lon="10.360087286722589"><ele>465.6666666666667</ele><time>2026-04-19T09:31:39Z</time></trkpt><trkpt lat="44.44572825380044" lon="10.360129811101487"><ele>466.0</ele><time>2026-04-19T09:31:40Z</time></trkpt><trkpt lat="44.44565147112401" lon="10.36020054654455"><ele>468.5</ele><time>2026-04-19T09:31:44Z</time></trkpt><trkpt lat="44.44547102758559" lon="10.3605887671807"><ele>471.0</ele><time>2026-04-19T09:31:46Z</time></trkpt><trkpt lat="44.445415726661075" lon="10.360767278220244"><ele>471.0</ele><time>2026-04-19T09:31:47Z</time></trkpt><trkpt lat="44.445361571208366" lon="10.360941728715858"><ele>471.0</ele><time>2026-04-19T09:31:48Z</time></trkpt><trkpt lat="44.44537663136209" lon="10.361054862580083"><ele>471.0</ele><time>2026-04-19T09:31:49Z</time></trkpt><trkpt lat="44.44541281688656" lon="10.361155161968732"><ele>471.0</ele><time>2026-04-19T09:31:52Z</time></trkpt><trkpt lat="44.44543281748955" lon="10.361296286594499"><ele>471.0</ele><time>2026-04-19T09:31:55Z</time></trkpt><trkpt lat="44.445422558942596" lon="10.361420379545482"><ele>469.8</ele><time>2026-04-19T09:31:58Z</time></trkpt><trkpt lat="44.44539500207184" lon="10.36150844402337"><ele>468.6</ele><time>2026-04-19T09:31:59Z</time></trkpt><trkpt lat="44.445347563543564" lon="10.361692216878224"><ele>467.4</ele><time>2026-04-19T09:32:00Z</time></trkpt><trkpt lat="44.445337818619706" lon="10.361850363751767"><ele>466.2</ele><time>2026-04-19T09:32:01Z</time></trkpt><trkpt lat="44.44532913183835" lon="10.362000063305558"><ele>465.0</ele><time>2026-04-19T09:32:02Z</time></trkpt><trkpt lat="44.44527557137169" lon="10.362139225311756"><ele>464.75</ele><time>2026-04-19T09:32:03Z</time></trkpt><trkpt lat="44.445203256673196" lon="10.362296507532164"><ele>464.5</ele><time>2026-04-19T09:32:04Z</time></trkpt><trkpt lat="44.44511728279144" lon="10.362464260075914"><ele>464.25</ele><time>2026-04-19T09:32:05Z</time></trkpt><trkpt lat="44.44504257545143" lon="10.362576183886777"><ele>464.0</ele><time>2026-04-19T09:32:06Z</time></trkpt><trkpt lat="44.444948248502804" lon="10.362631802015484"><ele>464.0</ele><time>2026-04-19T09:32:07Z</time></trkpt><trkpt lat="44.444840546749255" lon="10.362656588794882"><ele>464.0</ele><time>2026-04-19T09:32:08Z</time></trkpt><trkpt lat="44.44473253327735" lon="10.362743179164921"><ele>464.0</ele><time>2026-04-19T09:32:09Z</time></trkpt><trkpt lat="44.44459836685805" lon="10.362828283457295"><ele>464.0</ele><time>2026-04-19T09:32:10Z</time></trkpt><trkpt lat="44.444492048741154" lon="10.362884231757482"><ele>464.8333333333333</ele><time>2026-04-19T09:32:11Z</time></trkpt><trkpt lat="44.44441546636208" lon="10.362934617553854"><ele>465.66666666666663</ele><time>2026-04-19T09:32:12Z</time></trkpt><trkpt lat="44.444353187367085" lon="10.362999875273713"><ele>466.5</ele><time>2026-04-19T09:32:13Z</time></trkpt><trkpt lat="44.44427974879509" lon="10.36308445950833"><ele>467.33333333333337</ele><time>2026-04-19T09:32:14Z</time></trkpt><trkpt lat="44.44420032358542" lon="10.363158422753854"><ele>468.1666666666667</ele><time>2026-04-19T09:32:15Z</time></trkpt><trkpt lat="44.44414725756937" lon="10.363234695834228"><ele>469.0</ele><time>2026-04-19T09:32:16Z</time></trkpt><trkpt lat="44.44411155662021" lon="10.36332125407932"><ele>469.0</ele><time>2026-04-19T09:32:17Z</time></trkpt><trkpt lat="44.44406713124057" lon="10.363397592297908"><ele>469.0</ele><time>2026-04-19T09:32:18Z</time></trkpt><trkpt lat="44.4440164006681" lon="10.363458610944628"><ele>469.0</ele><time>2026-04-19T09:32:19Z</time></trkpt><trkpt lat="44.4439640247208" lon="10.363524257975232"><ele>469.0</ele><time>2026-04-19T09:32:20Z</time></trkpt><trkpt lat="44.44391022108113" lon="10.363583596148052"><ele>469.0</ele><time>2026-04-19T09:32:22Z</time></trkpt><trkpt lat="44.44383411815787" lon="10.363645869546266"><ele>469.0</ele><time>2026-04-19T09:34:06Z</time></trkpt><trkpt lat="44.44380558544738" lon="10.363739018815245"><ele>469.0</ele><time>2026-04-19T09:34:08Z</time></trkpt><trkpt lat="44.443818039438256" lon="10.363864665917626"><ele>471.4</ele><time>2026-04-19T09:34:10Z</time></trkpt><trkpt lat="44.44388841928429" lon="10.36398023415102"><ele>473.79999999999995</ele><time>2026-04-19T09:34:12Z</time></trkpt><trkpt lat="44.443943533703504" lon="10.364124607791448"><ele>476.20000000000005</ele><time>2026-04-19T09:34:14Z</time></trkpt><trkpt lat="44.443950111458435" lon="10.364215216561718"><ele>478.6</ele><time>2026-04-19T09:34:15Z</time></trkpt><trkpt lat="44.44394976030784" lon="10.364365548737503"><ele>481.0</ele><time>2026-04-19T09:34:17Z</time></trkpt><trkpt lat="44.44396935579339" lon="10.364526885104814"><ele>481.00000000000006</ele><time>2026-04-19T09:34:19Z</time></trkpt><trkpt lat="44.44398975585198" lon="10.364617521011159"><ele>481.0</ele><time>2026-04-19T09:34:20Z</time></trkpt><trkpt lat="44.444008370521935" lon="10.364713631341132"><ele>481.0</ele><time>2026-04-19T09:34:21Z</time></trkpt><trkpt lat="44.44401838089015" lon="10.364807575617263"><ele>481.0</ele><time>2026-04-19T09:34:22Z</time></trkpt><trkpt lat="44.44406573348021" lon="10.364963657043209"><ele>481.00000000000006</ele><time>2026-04-19T09:34:24Z</time></trkpt><trkpt lat="44.44409340263525" lon="10.36505213458909"><ele>481.0</ele><time>2026-04-19T09:34:25Z</time></trkpt><trkpt lat="44.444116357097215" lon="10.365192854340647"><ele>484.6</ele><time>2026-04-19T09:34:27Z</time></trkpt><trkpt lat="44.44413230515797" lon="10.365326043442984"><ele>488.20000000000005</ele><time>2026-04-19T09:34:29Z</time></trkpt><trkpt lat="44.444109129581975" lon="10.365427378571102"><ele>491.79999999999995</ele><time>2026-04-19T09:34:31Z</time></trkpt><trkpt lat="44.44404601871817" lon="10.365543397412722"><ele>495.4</ele><time>2026-04-19T09:34:33Z</time></trkpt><trkpt lat="44.44397284350731" lon="10.365638889779797"><ele>499.0</ele><time>2026-04-19T09:34:35Z</time></trkpt><trkpt lat="44.44389517240469" lon="10.36569642417749"><ele>502.00000000000006</ele><time>2026-04-19T09:34:41Z</time></trkpt><trkpt lat="44.44388111218382" lon="10.365799679682922"><ele>505.0</ele><time>2026-04-19T09:34:46Z</time></trkpt><trkpt lat="44.44393760310335" lon="10.365860989830587"><ele>508.0</ele><time>2026-04-19T09:34:52Z</time></trkpt><trkpt lat="44.44393512174158" lon="10.365964891376356"><ele>511.0</ele><time>2026-04-19T09:34:55Z</time></trkpt><trkpt lat="44.44394992965048" lon="10.366086100491636"><ele>514.0</ele><time>2026-04-19T09:34:57Z</time></trkpt><trkpt lat="44.443965232779284" lon="10.366198610623178"><ele>517.0</ele><time>2026-04-19T09:34:59Z</time></trkpt><trkpt lat="44.44398026513825" lon="10.366367776652455"><ele>518.0</ele><time>2026-04-19T09:35:01Z</time></trkpt><trkpt lat="44.44398627238257" lon="10.36645627041654"><ele>519.0</ele><time>2026-04-19T09:35:02Z</time></trkpt><trkpt lat="44.44399707805382" lon="10.366636454086533"><ele>520.0</ele><time>2026-04-19T09:35:04Z</time></trkpt><trkpt lat="44.44401179346449" lon="10.366778392004614"><ele>521.0</ele><time>2026-04-19T09:35:06Z</time></trkpt><trkpt lat="44.444034295883334" lon="10.366882066804575"><ele>522.0</ele><time>2026-04-19T09:35:08Z</time></trkpt><trkpt lat="44.444048856287026" lon="10.36697484292177"><ele>523.0</ele><time>2026-04-19T09:35:09Z</time></trkpt><trkpt lat="44.444060932090586" lon="10.367126012265254"><ele>524.5</ele><time>2026-04-19T09:35:11Z</time></trkpt><trkpt lat="44.44419709648799" lon="10.367648874962976"><ele>526.0</ele><time>2026-04-19T09:35:16Z</time></trkpt><trkpt lat="44.44421839003185" lon="10.367731866946057"><ele>526.0</ele><time>2026-04-19T09:35:17Z</time></trkpt><trkpt lat="44.444228534802114" lon="10.367858501274974"><ele>526.0</ele><time>2026-04-19T09:35:20Z</time></trkpt><trkpt lat="44.44419355543504" lon="10.367978945936546"><ele>526.0</ele><time>2026-04-19T09:35:22Z</time></trkpt><trkpt lat="44.44415795296071" lon="10.368114001184145"><ele>526.0</ele><time>2026-04-19T09:35:23Z</time></trkpt><trkpt lat="44.444134974989495" lon="10.368235366774563"><ele>526.0</ele><time>2026-04-19T09:35:24Z</time></trkpt><trkpt lat="44.4441166672623" lon="10.368341474371569"><ele>527.0</ele><time>2026-04-19T09:35:25Z</time></trkpt><trkpt lat="44.444114673520126" lon="10.3684511625954"><ele>528.0</ele><time>2026-04-19T09:35:26Z</time></trkpt><trkpt lat="44.44413344790085" lon="10.368608203324657"><ele>529.0</ele><time>2026-04-19T09:35:28Z</time></trkpt><trkpt lat="44.44419905851092" lon="10.368720886737318"><ele>530.0</ele><time>2026-04-19T09:35:30Z</time></trkpt><trkpt lat="44.44425558168416" lon="10.368846663230624"><ele>531.0</ele><time>2026-04-19T09:35:32Z</time></trkpt><trkpt lat="44.44430315447578" lon="10.368951629499367"><ele>533.0</ele><time>2026-04-19T09:35:34Z</time></trkpt><trkpt lat="44.44428093621828" lon="10.369057590156572"><ele>535.0</ele><time>2026-04-19T09:35:35Z</time></trkpt><trkpt lat="44.44426721523002" lon="10.369145779790932"><ele>537.0</ele><time>2026-04-19T09:35:36Z</time></trkpt><trkpt lat="44.444308371298945" lon="10.369238325340131"><ele>539.0</ele><time>2026-04-19T09:35:38Z</time></trkpt><trkpt lat="44.4443539455866" lon="10.369130689611245"><ele>541.0</ele><time>2026-04-19T09:35:40Z</time></trkpt><trkpt lat="44.44435465924993" lon="10.369022074313571"><ele>543.0</ele><time>2026-04-19T09:35:42Z</time></trkpt><trkpt lat="44.4443973589816" lon="10.368948576705137"><ele>543.0</ele><time>2026-04-19T09:35:44Z</time></trkpt><trkpt lat="44.44445698313038" lon="10.369031483823225"><ele>543.0</ele><time>2026-04-19T09:35:46Z</time></trkpt><trkpt lat="44.44443608396737" lon="10.369148895136831"><ele>543.0</ele><time>2026-04-19T09:35:47Z</time></trkpt><trkpt lat="44.444441440348555" lon="10.369331468548479"><ele>543.0</ele><time>2026-04-19T09:35:49Z</time></trkpt><trkpt lat="44.44447721755127" lon="10.369428896253956"><ele>543.0</ele><time>2026-04-19T09:35:50Z</time></trkpt><trkpt lat="44.444473697011155" lon="10.369586384581098"><ele>546.75</ele><time>2026-04-19T09:35:51Z</time></trkpt><trkpt lat="44.444470933376145" lon="10.369767591580219"><ele>550.5</ele><time>2026-04-19T09:35:52Z</time></trkpt><trkpt lat="44.44445234542174" lon="10.3699374358303"><ele>554.25</ele><time>2026-04-19T09:35:53Z</time></trkpt><trkpt lat="44.44444996672719" lon="10.370133422611378"><ele>558.0</ele><time>2026-04-19T09:35:54Z</time></trkpt><trkpt lat="44.44441836741018" lon="10.370388420228608"><ele>558.0</ele><time>2026-04-19T09:35:55Z</time></trkpt><trkpt lat="44.44437022530521" lon="10.37049886322151"><ele>558.0</ele><time>2026-04-19T09:35:56Z</time></trkpt><trkpt lat="44.44430865071302" lon="10.370607549855166"><ele>558.0</ele><time>2026-04-19T09:35:57Z</time></trkpt><trkpt lat="44.44428018909382" lon="10.370733802859005"><ele>558.0</ele><time>2026-04-19T09:35:58Z</time></trkpt><trkpt lat="44.44427319706174" lon="10.370867326387204"><ele>558.0</ele><time>2026-04-19T09:35:59Z</time></trkpt><trkpt lat="44.44424372957942" lon="10.370991416541676"><ele>561.1999999999999</ele><time>2026-04-19T09:36:00Z</time></trkpt><trkpt lat="44.444203054088966" lon="10.37114335347452"><ele>564.4</ele><time>2026-04-19T09:36:01Z</time></trkpt><trkpt lat="44.44417683979959" lon="10.371300264930985"><ele>567.5999999999999</ele><time>2026-04-19T09:36:02Z</time></trkpt><trkpt lat="44.444175398934796" lon="10.371424375911827"><ele>570.8</ele><time>2026-04-19T09:36:03Z</time></trkpt><trkpt lat="44.44419278396151" lon="10.371537986455245"><ele>574.0</ele><time>2026-04-19T09:36:04Z</time></trkpt><trkpt lat="44.444192952953" lon="10.371648731048438"><ele>575.8</ele><time>2026-04-19T09:36:05Z</time></trkpt><trkpt lat="44.444161016870666" lon="10.371774189253887"><ele>577.5999999999999</ele><time>2026-04-19T09:36:06Z</time></trkpt><trkpt lat="44.44411995485903" lon="10.371913696384542"><ele>579.4</ele><time>2026-04-19T09:36:07Z</time></trkpt><trkpt lat="44.44408682851708" lon="10.372072813869112"><ele>581.1999999999999</ele><time>2026-04-19T09:36:08Z</time></trkpt><trkpt lat="44.44406474750153" lon="10.372166716037068"><ele>583.0</ele><time>2026-04-19T09:36:09Z</time></trkpt><trkpt lat="44.444029155704186" lon="10.372261073443351"><ele>585.8</ele><time>2026-04-19T09:36:10Z</time></trkpt><trkpt lat="44.444003259366696" lon="10.372369817456935"><ele>588.5999999999999</ele><time>2026-04-19T09:36:11Z</time></trkpt><trkpt lat="44.44399317765956" lon="10.372496522730955"><ele>591.4000000000001</ele><time>2026-04-19T09:36:12Z</time></trkpt><trkpt lat="44.44398417467804" lon="10.372597370448378"><ele>594.2</ele><time>2026-04-19T09:36:13Z</time></trkpt><trkpt lat="44.44383887150822" lon="10.372662188922158"><ele>597.0</ele><time>2026-04-19T09:36:15Z</time></trkpt><trkpt lat="44.44374121940686" lon="10.372702961132605"><ele>598.0</ele><time>2026-04-19T09:36:16Z</time></trkpt><trkpt lat="44.44366996806019" lon="10.372781909004413"><ele>599.0</ele><time>2026-04-19T09:36:17Z</time></trkpt><trkpt lat="44.443633974436246" lon="10.372909534690287"><ele>600.0</ele><time>2026-04-19T09:36:18Z</time></trkpt><trkpt lat="44.44360406287327" lon="10.37304124828586"><ele>601.0</ele><time>2026-04-19T09:36:19Z</time></trkpt><trkpt lat="44.44358785788638" lon="10.373136072209338"><ele>602.0</ele><time>2026-04-19T09:36:20Z</time></trkpt><trkpt lat="44.44357235883844" lon="10.373324821804985"><ele>604.3333333333333</ele><time>2026-04-19T09:36:22Z</time></trkpt><trkpt lat="44.443560356290284" lon="10.37344626730005"><ele>606.6666666666666</ele><time>2026-04-19T09:36:23Z</time></trkpt><trkpt lat="44.44355068386234" lon="10.373564239875884"><ele>609.0</ele><time>2026-04-19T09:36:24Z</time></trkpt><trkpt lat="44.44353383593662" lon="10.373694932813853"><ele>611.3333333333334</ele><time>2026-04-19T09:36:25Z</time></trkpt><trkpt lat="44.44351885261068" lon="10.373795998893948"><ele>613.6666666666667</ele><time>2026-04-19T09:36:26Z</time></trkpt><trkpt lat="44.44347257387894" lon="10.373885175243872"><ele>616.0</ele><time>2026-04-19T09:36:27Z</time></trkpt><trkpt lat="44.44341547881162" lon="10.373954086503346"><ele>616.0</ele><time>2026-04-19T09:36:28Z</time></trkpt><trkpt lat="44.44337312267663" lon="10.374088522144524"><ele>616.0</ele><time>2026-04-19T09:36:30Z</time></trkpt><trkpt lat="44.443330756695275" lon="10.374156463361729"><ele>616.0</ele><time>2026-04-19T09:36:34Z</time></trkpt><trkpt lat="44.443250265023295" lon="10.374187949949501"><ele>616.0</ele><time>2026-04-19T09:36:38Z</time></trkpt><trkpt lat="44.44316742053533" lon="10.37425370542322"><ele>616.0</ele><time>2026-04-19T09:36:41Z</time></trkpt><trkpt lat="44.44298470944227" lon="10.374394837878704"><ele>618.2</ele><time>2026-04-19T09:36:43Z</time></trkpt><trkpt lat="44.44288569491115" lon="10.374460219981527"><ele>620.4000000000001</ele><time>2026-04-19T09:36:45Z</time></trkpt><trkpt lat="44.44282449562214" lon="10.374526860951955"><ele>622.6</ele><time>2026-04-19T09:36:46Z</time></trkpt><trkpt lat="44.442772484351764" lon="10.37457702042366"><ele>624.8000000000001</ele><time>2026-04-19T09:36:47Z</time></trkpt><trkpt lat="44.44271005467703" lon="10.374701207779337"><ele>627.0</ele><time>2026-04-19T09:36:49Z</time></trkpt><trkpt lat="44.442661025726636" lon="10.37485171603484"><ele>627.1428571428571</ele><time>2026-04-19T09:36:51Z</time></trkpt><trkpt lat="44.44262866454193" lon="10.374936168815141"><ele>627.2857142857142</ele><time>2026-04-19T09:36:52Z</time></trkpt><trkpt lat="44.44259917396584" lon="10.37501947302491"><ele>627.4285714285713</ele><time>2026-04-19T09:36:53Z</time></trkpt><trkpt lat="44.44256880612463" lon="10.375106181752948"><ele>627.5714285714286</ele><time>2026-04-19T09:36:54Z</time></trkpt><trkpt lat="44.4425313771369" lon="10.37520390032332"><ele>627.7142857142857</ele><time>2026-04-19T09:36:55Z</time></trkpt><trkpt lat="44.442509446230375" lon="10.37529067735404"><ele>627.8571428571428</ele><time>2026-04-19T09:36:56Z</time></trkpt><trkpt lat="44.44249661221553" lon="10.375381011131347"><ele>628.0</ele><time>2026-04-19T09:36:57Z</time></trkpt><trkpt lat="44.44246085207168" lon="10.375551279289656"><ele>627.9999999999999</ele><time>2026-04-19T09:36:59Z</time></trkpt><trkpt lat="44.44242654559351" lon="10.375630020945755"><ele>628.0</ele><time>2026-04-19T09:37:00Z</time></trkpt><trkpt lat="44.442367649639145" lon="10.375700040447814"><ele>628.0</ele><time>2026-04-19T09:37:01Z</time></trkpt><trkpt lat="44.44231398145265" lon="10.375761809695815"><ele>628.0</ele><time>2026-04-19T09:37:02Z</time></trkpt><trkpt lat="44.442258405863974" lon="10.375831548044808"><ele>628.0</ele><time>2026-04-19T09:37:03Z</time></trkpt><trkpt lat="44.44219555684337" lon="10.375885339470475"><ele>627.9999999999999</ele><time>2026-04-19T09:37:04Z</time></trkpt><trkpt lat="44.4421268216764" lon="10.37591941670296"><ele>628.0</ele><time>2026-04-19T09:37:05Z</time></trkpt><trkpt lat="44.442061654326565" lon="10.375946515086804"><ele>629.5</ele><time>2026-04-19T09:37:06Z</time></trkpt><trkpt lat="44.44198600016679" lon="10.376093648011599"><ele>631.0</ele><time>2026-04-19T09:37:08Z</time></trkpt><trkpt lat="44.44192947657955" lon="10.376174340501262"><ele>632.5</ele><time>2026-04-19T09:37:09Z</time></trkpt><trkpt lat="44.441877005753284" lon="10.376238769953371"><ele>634.0</ele><time>2026-04-19T09:37:10Z</time></trkpt><trkpt lat="44.441831743750186" lon="10.37630508480709"><ele>635.5</ele><time>2026-04-19T09:37:11Z</time></trkpt><trkpt lat="44.4417883496697" lon="10.37637075140419"><ele>637.0</ele><time>2026-04-19T09:37:12Z</time></trkpt><trkpt lat="44.44173957289282" lon="10.37648077915887"><ele>637.0</ele><time>2026-04-19T09:37:14Z</time></trkpt><trkpt lat="44.44169891669787" lon="10.376628274125055"><ele>637.0</ele><time>2026-04-19T09:37:16Z</time></trkpt><trkpt lat="44.44168050932235" lon="10.37672326754507"><ele>637.0</ele><time>2026-04-19T09:37:17Z</time></trkpt><trkpt lat="44.441672033628286" lon="10.376894338874495"><ele>637.0</ele><time>2026-04-19T09:37:19Z</time></trkpt><trkpt lat="44.4416852588149" lon="10.376985223400181"><ele>637.0</ele><time>2026-04-19T09:37:20Z</time></trkpt><trkpt lat="44.441710467699146" lon="10.377086850951539"><ele>637.0</ele><time>2026-04-19T09:37:21Z</time></trkpt><trkpt lat="44.441731136290855" lon="10.377177809390632"><ele>637.3333333333334</ele><time>2026-04-19T09:37:22Z</time></trkpt><trkpt lat="44.44175291694819" lon="10.377268239645106"><ele>637.6666666666667</ele><time>2026-04-19T09:37:23Z</time></trkpt><trkpt lat="44.4417751642633" lon="10.377365391696529"><ele>638.0</ele><time>2026-04-19T09:37:24Z</time></trkpt><trkpt lat="44.44179917155847" lon="10.377476177361729"><ele>638.3333333333334</ele><time>2026-04-19T09:37:25Z</time></trkpt><trkpt lat="44.44182970102849" lon="10.37760331541545"><ele>638.6666666666666</ele><time>2026-04-19T09:37:26Z</time></trkpt><trkpt lat="44.44186115786905" lon="10.377712663221999"><ele>639.0</ele><time>2026-04-19T09:37:27Z</time></trkpt><trkpt lat="44.441896425443915" lon="10.377807481273248"><ele>639.0</ele><time>2026-04-19T09:37:28Z</time></trkpt><trkpt lat="44.44191015563861" lon="10.377897653952143"><ele>639.0</ele><time>2026-04-19T09:37:29Z</time></trkpt><trkpt lat="44.44193234992545" lon="10.378032083701836"><ele>639.0</ele><time>2026-04-19T09:39:09Z</time></trkpt><trkpt lat="44.441987162154305" lon="10.378103009388193"><ele>639.0</ele><time>2026-04-19T09:39:10Z</time></trkpt><trkpt lat="44.442060154426095" lon="10.37816193623703"><ele>639.0</ele><time>2026-04-19T09:39:11Z</time></trkpt><trkpt lat="44.44215554756158" lon="10.378248444718523"><ele>639.0</ele><time>2026-04-19T09:39:12Z</time></trkpt><trkpt lat="44.442247047828126" lon="10.378354462057946"><ele>637.0</ele><time>2026-04-19T09:39:13Z</time></trkpt><trkpt lat="44.44231338549025" lon="10.378463377170425"><ele>635.0</ele><time>2026-04-19T09:39:14Z</time></trkpt><trkpt lat="44.44234659396725" lon="10.37860955736131"><ele>633.0</ele><time>2026-04-19T09:39:15Z</time></trkpt><trkpt lat="44.4424090669785" lon="10.378728347937841"><ele>631.0</ele><time>2026-04-19T09:39:16Z</time></trkpt><trkpt lat="44.44248862670121" lon="10.378852743866842"><ele>629.0</ele><time>2026-04-19T09:39:17Z</time></trkpt><trkpt lat="44.4426044276779" lon="10.378982521001037"><ele>629.0</ele><time>2026-04-19T09:39:18Z</time></trkpt><trkpt lat="44.44271345596438" lon="10.379114667359497"><ele>629.0</ele><time>2026-04-19T09:39:19Z</time></trkpt><trkpt lat="44.44280377219493" lon="10.379245699287807"><ele>629.0</ele><time>2026-04-19T09:39:20Z</time></trkpt><trkpt lat="44.44290055247514" lon="10.379352061787571"><ele>629.0</ele><time>2026-04-19T09:39:21Z</time></trkpt><trkpt lat="44.44300058324003" lon="10.379453692023768"><ele>625.5</ele><time>2026-04-19T09:39:22Z</time></trkpt><trkpt lat="44.44310301616255" lon="10.379552588653233"><ele>622.0</ele><time>2026-04-19T09:39:23Z</time></trkpt><trkpt lat="44.44320482306421" lon="10.379649535226696"><ele>618.5</ele><time>2026-04-19T09:39:24Z</time></trkpt><trkpt lat="44.44330202326458" lon="10.37975187118774"><ele>615.0</ele><time>2026-04-19T09:39:25Z</time></trkpt><trkpt lat="44.4433929045291" lon="10.379851882360187"><ele>615.0</ele><time>2026-04-19T09:39:26Z</time></trkpt><trkpt lat="44.44347272831448" lon="10.379944585912012"><ele>615.0</ele><time>2026-04-19T09:39:27Z</time></trkpt><trkpt lat="44.44353405970764" lon="10.38004185123592"><ele>615.0</ele><time>2026-04-19T09:39:28Z</time></trkpt><trkpt lat="44.443581549165906" lon="10.380146784695638"><ele>615.0</ele><time>2026-04-19T09:39:29Z</time></trkpt><trkpt lat="44.443613200877586" lon="10.380261944056869"><ele>615.0</ele><time>2026-04-19T09:39:30Z</time></trkpt><trkpt lat="44.44355168658318" lon="10.380391276509842"><ele>615.0</ele><time>2026-04-19T09:39:31Z</time></trkpt><trkpt lat="44.44348714352884" lon="10.38051140947569"><ele>615.0</ele><time>2026-04-19T09:39:32Z</time></trkpt><trkpt lat="44.44342577159568" lon="10.380664599504296"><ele>615.0</ele><time>2026-04-19T09:39:33Z</time></trkpt><trkpt lat="44.44336049136076" lon="10.380815798456402"><ele>615.0</ele><time>2026-04-19T09:39:34Z</time></trkpt><trkpt lat="44.44331027564991" lon="10.380971067496702"><ele>613.25</ele><time>2026-04-19T09:39:35Z</time></trkpt><trkpt lat="44.44326768361247" lon="10.381118601717938"><ele>611.5</ele><time>2026-04-19T09:39:36Z</time></trkpt><trkpt lat="44.443297277001754" lon="10.381278672574275"><ele>609.75</ele><time>2026-04-19T09:39:37Z</time></trkpt><trkpt lat="44.44335311259318" lon="10.381424106167897"><ele>608.0</ele><time>2026-04-19T09:39:38Z</time></trkpt><trkpt lat="44.44343802505354" lon="10.381548824679905"><ele>607.5</ele><time>2026-04-19T09:39:39Z</time></trkpt><trkpt lat="44.443512853946835" lon="10.381697780509745"><ele>607.0</ele><time>2026-04-19T09:39:40Z</time></trkpt><trkpt lat="44.443614839239984" lon="10.381866356187528"><ele>606.5</ele><time>2026-04-19T09:39:41Z</time></trkpt><trkpt lat="44.443704104990104" lon="10.382012300360488"><ele>606.0</ele><time>2026-04-19T09:39:42Z</time></trkpt><trkpt lat="44.4437722771267" lon="10.38213804182513"><ele>602.4</ele><time>2026-04-19T09:39:43Z</time></trkpt><trkpt lat="44.44381773789262" lon="10.382278937523752"><ele>598.8</ele><time>2026-04-19T09:39:44Z</time></trkpt><trkpt lat="44.443838285793184" lon="10.382425554512002"><ele>595.1999999999999</ele><time>2026-04-19T09:39:45Z</time></trkpt><trkpt lat="44.443852768570245" lon="10.382580710325252"><ele>591.6</ele><time>2026-04-19T09:39:46Z</time></trkpt><trkpt lat="44.44386873714599" lon="10.382742846927878"><ele>588.0</ele><time>2026-04-19T09:39:47Z</time></trkpt><trkpt lat="44.44388603477468" lon="10.382906906451893"><ele>588.1999999999999</ele><time>2026-04-19T09:39:48Z</time></trkpt><trkpt lat="44.44390179578066" lon="10.38306744133366"><ele>588.4</ele><time>2026-04-19T09:39:49Z</time></trkpt><trkpt lat="44.443924513992236" lon="10.383223110255148"><ele>588.5999999999999</ele><time>2026-04-19T09:39:50Z</time></trkpt><trkpt lat="44.44397061468286" lon="10.383353984708323"><ele>588.8</ele><time>2026-04-19T09:39:51Z</time></trkpt><trkpt lat="44.44402411809033" lon="10.38348218672452"><ele>589.0</ele><time>2026-04-19T09:39:52Z</time></trkpt><trkpt lat="44.44409622253121" lon="10.383605924140861"><ele>589.0</ele><time>2026-04-19T09:39:53Z</time></trkpt><trkpt lat="44.44418995326189" lon="10.383711515014907"><ele>589.0</ele><time>2026-04-19T09:39:54Z</time></trkpt><trkpt lat="44.444262060372836" lon="10.383835518226475"><ele>589.0</ele><time>2026-04-19T09:39:55Z</time></trkpt><trkpt lat="44.44432837609288" lon="10.383958508096207"><ele>589.0</ele><time>2026-04-19T09:39:56Z</time></trkpt><trkpt lat="44.44436453023786" lon="10.384048017441453"><ele>589.0</ele><time>2026-04-19T09:39:57Z</time></trkpt><trkpt lat="44.444423862447955" lon="10.38414291916479"><ele>590.0</ele><time>2026-04-19T09:39:58Z</time></trkpt><trkpt lat="44.44448345256903" lon="10.384217078084903"><ele>591.0</ele><time>2026-04-19T09:39:59Z</time></trkpt><trkpt lat="44.444577659604505" lon="10.384251668433183"><ele>592.0</ele><time>2026-04-19T09:40:00Z</time></trkpt><trkpt lat="44.44469288148401" lon="10.384237976383286"><ele>593.0</ele><time>2026-04-19T09:40:01Z</time></trkpt><trkpt lat="44.44484616213466" lon="10.384224790964916"><ele>594.0</ele><time>2026-04-19T09:40:02Z</time></trkpt><trkpt lat="44.445019959514525" lon="10.384191999111808"><ele>594.0</ele><time>2026-04-19T09:40:03Z</time></trkpt><trkpt lat="44.44515240377795" lon="10.384153924491645"><ele>594.0</ele><time>2026-04-19T09:40:04Z</time></trkpt><trkpt lat="44.44523186961418" lon="10.384202879426295"><ele>594.0</ele><time>2026-04-19T09:40:05Z</time></trkpt><trkpt lat="44.44526878038719" lon="10.384326826898553"><ele>594.0</ele><time>2026-04-19T09:40:06Z</time></trkpt><trkpt lat="44.44533298693428" lon="10.38448229171372"><ele>594.0</ele><time>2026-04-19T09:40:07Z</time></trkpt><trkpt lat="44.44539757208343" lon="10.38465455810689"><ele>594.75</ele><time>2026-04-19T09:40:08Z</time></trkpt><trkpt lat="44.44547559513535" lon="10.38481686464147"><ele>595.5</ele><time>2026-04-19T09:40:09Z</time></trkpt><trkpt lat="44.44555309394235" lon="10.384965194492578"><ele>596.25</ele><time>2026-04-19T09:40:10Z</time></trkpt><trkpt lat="44.4456206246228" lon="10.385104910188865"><ele>597.0</ele><time>2026-04-19T09:40:11Z</time></trkpt><trkpt lat="44.4456772032005" lon="10.385238982726442"><ele>597.0</ele><time>2026-04-19T09:40:12Z</time></trkpt><trkpt lat="44.44572155183468" lon="10.385372897712863"><ele>597.0</ele><time>2026-04-19T09:40:13Z</time></trkpt><trkpt lat="44.445751068364366" lon="10.38549932744463"><ele>597.0</ele><time>2026-04-19T09:40:14Z</time></trkpt><trkpt lat="44.445737395135616" lon="10.38562980744677"><ele>597.0</ele><time>2026-04-19T09:40:15Z</time></trkpt><trkpt lat="44.44575392325416" lon="10.38575424508853"><ele>597.0</ele><time>2026-04-19T09:40:16Z</time></trkpt><trkpt lat="44.445760765644174" lon="10.385862102427094"><ele>598.0</ele><time>2026-04-19T09:40:17Z</time></trkpt><trkpt lat="44.44576340306576" lon="10.385954753982437"><ele>599.0</ele><time>2026-04-19T09:40:18Z</time></trkpt><trkpt lat="44.445751559483966" lon="10.38605114144932"><ele>600.0</ele><time>2026-04-19T09:40:20Z</time></trkpt><trkpt lat="44.445865365284455" lon="10.386063062322965"><ele>601.0</ele><time>2026-04-19T09:40:23Z</time></trkpt><trkpt lat="44.44593299526502" lon="10.386093429682541"><ele>602.0</ele><time>2026-04-19T09:40:25Z</time></trkpt><trkpt lat="44.44601484437457" lon="10.386137106328809"><ele>603.0</ele><time>2026-04-19T09:40:27Z</time></trkpt><trkpt lat="44.44607274794802" lon="10.386173242015797"><ele>603.0</ele><time>2026-04-19T09:40:28Z</time></trkpt><trkpt lat="44.446144701327334" lon="10.386197940428415"><ele>603.0</ele><time>2026-04-19T09:40:29Z</time></trkpt><trkpt lat="44.44622152919849" lon="10.386254143148252"><ele>603.0</ele><time>2026-04-19T09:40:30Z</time></trkpt><trkpt lat="44.4463033835396" lon="10.386310681733434"><ele>603.0</ele><time>2026-04-19T09:40:31Z</time></trkpt><trkpt lat="44.4463872023145" lon="10.386369207160607"><ele>603.0</ele><time>2026-04-19T09:40:32Z</time></trkpt><trkpt lat="44.44646878334544" lon="10.38643452972587"><ele>603.0</ele><time>2026-04-19T09:40:33Z</time></trkpt><trkpt lat="44.44656182115064" lon="10.386492793573002"><ele>601.1666666666666</ele><time>2026-04-19T09:40:34Z</time></trkpt><trkpt lat="44.44665063211381" lon="10.38655565717997"><ele>599.3333333333334</ele><time>2026-04-19T09:40:35Z</time></trkpt><trkpt lat="44.44673406529275" lon="10.386618974694183"><ele>597.5</ele><time>2026-04-19T09:40:36Z</time></trkpt><trkpt lat="44.446810625769096" lon="10.386680477670918"><ele>595.6666666666667</ele><time>2026-04-19T09:40:37Z</time></trkpt><trkpt lat="44.446874270585774" lon="10.386755390914072"><ele>593.8333333333334</ele><time>2026-04-19T09:40:38Z</time></trkpt><trkpt lat="44.446939506380986" lon="10.38679533382307"><ele>592.0</ele><time>2026-04-19T09:40:39Z</time></trkpt><trkpt lat="44.44700481481181" lon="10.386795038495837"><ele>592.0</ele><time>2026-04-19T09:40:40Z</time></trkpt><trkpt lat="44.44708142534183" lon="10.386702201873508"><ele>592.0</ele><time>2026-04-19T09:40:41Z</time></trkpt><trkpt lat="44.4471587744221" lon="10.386637559683374"><ele>592.0</ele><time>2026-04-19T09:40:42Z</time></trkpt><trkpt lat="44.44724722832505" lon="10.386559841425951"><ele>592.0</ele><time>2026-04-19T09:40:43Z</time></trkpt><trkpt lat="44.44737929934644" lon="10.386439238340053"><ele>591.6666666666667</ele><time>2026-04-19T09:40:44Z</time></trkpt><trkpt lat="44.44753102960235" lon="10.386281325196194"><ele>591.3333333333334</ele><time>2026-04-19T09:40:45Z</time></trkpt><trkpt lat="44.44769001798075" lon="10.38606976991521"><ele>591.0</ele><time>2026-04-19T09:40:46Z</time></trkpt><trkpt lat="44.447829551863876" lon="10.38582663712743"><ele>591.0</ele><time>2026-04-19T09:40:47Z</time></trkpt><trkpt lat="44.447945768891195" lon="10.385645211386395"><ele>591.0</ele><time>2026-04-19T09:40:48Z</time></trkpt><trkpt lat="44.44804570705979" lon="10.385499828798249"><ele>591.0</ele><time>2026-04-19T09:40:49Z</time></trkpt><trkpt lat="44.44813147325128" lon="10.385421227009813"><ele>591.0</ele><time>2026-04-19T09:40:50Z</time></trkpt><trkpt lat="44.44821965073409" lon="10.38542046253316"><ele>590.75</ele><time>2026-04-19T09:40:52Z</time></trkpt><trkpt lat="44.44833535848047" lon="10.385479186783968"><ele>590.5</ele><time>2026-04-19T09:40:54Z</time></trkpt><trkpt lat="44.44845067177052" lon="10.385528376777923"><ele>590.25</ele><time>2026-04-19T09:40:55Z</time></trkpt><trkpt lat="44.448580488919006" lon="10.385595625126848"><ele>590.0</ele><time>2026-04-19T09:40:56Z</time></trkpt><trkpt lat="44.44870577044747" lon="10.385686304653131"><ele>593.0</ele><time>2026-04-19T09:40:57Z</time></trkpt><trkpt lat="44.448848730766144" lon="10.385774738386267"><ele>596.0</ele><time>2026-04-19T09:40:58Z</time></trkpt><trkpt lat="44.449001501178735" lon="10.385838511698655"><ele>599.0</ele><time>2026-04-19T09:40:59Z</time></trkpt><trkpt lat="44.44913649041186" lon="10.385912022628654"><ele>599.0</ele><time>2026-04-19T09:41:00Z</time></trkpt><trkpt lat="44.44926630345357" lon="10.385966856949006"><ele>599.0</ele><time>2026-04-19T09:41:01Z</time></trkpt><trkpt lat="44.449411130292496" lon="10.386022476943516"><ele>599.0</ele><time>2026-04-19T09:41:02Z</time></trkpt><trkpt lat="44.44955398876519" lon="10.386118307975917"><ele>599.0</ele><time>2026-04-19T09:41:03Z</time></trkpt><trkpt lat="44.44966943820445" lon="10.386173711598397"><ele>600.6</ele><time>2026-04-19T09:41:04Z</time></trkpt><trkpt lat="44.44977401913669" lon="10.386224294954152"><ele>602.2</ele><time>2026-04-19T09:41:05Z</time></trkpt><trkpt lat="44.449866029295826" lon="10.38627706091512"><ele>603.8000000000001</ele><time>2026-04-19T09:41:06Z</time></trkpt><trkpt lat="44.44996339249184" lon="10.386316337616716"><ele>605.4</ele><time>2026-04-19T09:41:07Z</time></trkpt><trkpt lat="44.45005701480428" lon="10.386381565837722"><ele>607.0</ele><time>2026-04-19T09:41:08Z</time></trkpt><trkpt lat="44.45014162508731" lon="10.386453046346219"><ele>607.2</ele><time>2026-04-19T09:41:09Z</time></trkpt><trkpt lat="44.450230997320034" lon="10.38651295422578"><ele>607.4000000000001</ele><time>2026-04-19T09:41:10Z</time></trkpt><trkpt lat="44.45031833773313" lon="10.386572672223197"><ele>607.5999999999999</ele><time>2026-04-19T09:41:11Z</time></trkpt><trkpt lat="44.45040694870407" lon="10.386631238354083"><ele>607.8</ele><time>2026-04-19T09:41:12Z</time></trkpt><trkpt lat="44.45050201333014" lon="10.386687290207911"><ele>608.0</ele><time>2026-04-19T09:41:13Z</time></trkpt><trkpt lat="44.450597573765194" lon="10.386742150474571"><ele>609.0</ele><time>2026-04-19T09:41:14Z</time></trkpt><trkpt lat="44.45070351958485" lon="10.386804628481292"><ele>610.0</ele><time>2026-04-19T09:41:15Z</time></trkpt><trkpt lat="44.450803438136305" lon="10.386868799687875"><ele>611.0</ele><time>2026-04-19T09:41:16Z</time></trkpt><trkpt lat="44.45088783296728" lon="10.386920106541153"><ele>612.0</ele><time>2026-04-19T09:41:17Z</time></trkpt><trkpt lat="44.45096707982025" lon="10.386968883302167"><ele>613.0</ele><time>2026-04-19T09:41:18Z</time></trkpt><trkpt lat="44.451049421038554" lon="10.387022553192317"><ele>613.0</ele><time>2026-04-19T09:41:19Z</time></trkpt><trkpt lat="44.451120275221335" lon="10.387074156642695"><ele>613.0</ele><time>2026-04-19T09:41:20Z</time></trkpt><trkpt lat="44.45118097791151" lon="10.387125397411644"><ele>613.0</ele><time>2026-04-19T09:41:21Z</time></trkpt><trkpt lat="44.45127422246391" lon="10.387200501793194"><ele>613.0</ele><time>2026-04-19T09:41:23Z</time></trkpt><trkpt lat="44.451335912195766" lon="10.3872706193931"><ele>613.0</ele><time>2026-04-19T09:41:25Z</time></trkpt><trkpt lat="44.45130602141151" lon="10.38740593720284"><ele>613.0</ele><time>2026-04-19T09:41:39Z</time></trkpt><trkpt lat="44.451247040201295" lon="10.387500385261378"><ele>613.75</ele><time>2026-04-19T09:41:40Z</time></trkpt><trkpt lat="44.45117049006163" lon="10.387614292658743"><ele>614.5</ele><time>2026-04-19T09:41:41Z</time></trkpt><trkpt lat="44.451074688808575" lon="10.387769657763947"><ele>615.25</ele><time>2026-04-19T09:41:42Z</time></trkpt><trkpt lat="44.45097781489487" lon="10.387929909704395"><ele>616.0</ele><time>2026-04-19T09:41:43Z</time></trkpt><trkpt lat="44.450885459814025" lon="10.388074705583891"><ele>617.0</ele><time>2026-04-19T09:41:44Z</time></trkpt><trkpt lat="44.45077942325083" lon="10.388247106928707"><ele>618.0</ele><time>2026-04-19T09:41:45Z</time></trkpt><trkpt lat="44.45067116515192" lon="10.38843305058779"><ele>619.0</ele><time>2026-04-19T09:41:46Z</time></trkpt><trkpt lat="44.45054629856569" lon="10.388638049668453"><ele>619.3333333333334</ele><time>2026-04-19T09:41:47Z</time></trkpt><trkpt lat="44.45042204998639" lon="10.38882460978288"><ele>619.6666666666666</ele><time>2026-04-19T09:41:48Z</time></trkpt><trkpt lat="44.4503054314044" lon="10.38896977620895"><ele>620.0</ele><time>2026-04-19T09:41:49Z</time></trkpt><trkpt lat="44.450193629039" lon="10.389076632991554"><ele>620.75</ele><time>2026-04-19T09:41:50Z</time></trkpt><trkpt lat="44.450077578588655" lon="10.38918190042695"><ele>621.5</ele><time>2026-04-19T09:41:51Z</time></trkpt><trkpt lat="44.449963697209405" lon="10.389286894253065"><ele>622.25</ele><time>2026-04-19T09:41:52Z</time></trkpt><trkpt lat="44.4498486822031" lon="10.389403834770516"><ele>623.0</ele><time>2026-04-19T09:41:53Z</time></trkpt><trkpt lat="44.44973878491637" lon="10.38951467325285"><ele>623.0</ele><time>2026-04-19T09:41:54Z</time></trkpt><trkpt lat="44.449635581489574" lon="10.389636998846226"><ele>623.0</ele><time>2026-04-19T09:41:55Z</time></trkpt><trkpt lat="44.44954490558801" lon="10.389766279107853"><ele>623.0</ele><time>2026-04-19T09:41:56Z</time></trkpt><trkpt lat="44.449455151013176" lon="10.389919113170965"><ele>623.0</ele><time>2026-04-19T09:41:57Z</time></trkpt><trkpt lat="44.44938378161446" lon="10.390064906664596"><ele>622.5</ele><time>2026-04-19T09:41:58Z</time></trkpt><trkpt lat="44.449324861857534" lon="10.39021531542809"><ele>622.0</ele><time>2026-04-19T09:41:59Z</time></trkpt><trkpt lat="44.449279639422194" lon="10.390362647484974"><ele>621.5</ele><time>2026-04-19T09:42:00Z</time></trkpt><trkpt lat="44.449239141218825" lon="10.390507539129661"><ele>621.0</ele><time>2026-04-19T09:42:01Z</time></trkpt><trkpt lat="44.44920006812186" lon="10.3906458068943"><ele>621.0</ele><time>2026-04-19T09:42:02Z</time></trkpt><trkpt lat="44.44916480364932" lon="10.390777302912534"><ele>621.0</ele><time>2026-04-19T09:42:03Z</time></trkpt><trkpt lat="44.44912888007485" lon="10.390903129800352"><ele>621.0</ele><time>2026-04-19T09:42:04Z</time></trkpt><trkpt lat="44.449096047270466" lon="10.391013288508917"><ele>621.0</ele><time>2026-04-19T09:42:05Z</time></trkpt><trkpt lat="44.44907678485882" lon="10.391099746508846"><ele>621.0</ele><time>2026-04-19T09:42:06Z</time></trkpt><trkpt lat="44.44918077244999" lon="10.39119515618643"><ele>621.0</ele><time>2026-04-19T09:42:10Z</time></trkpt><trkpt lat="44.449249114017064" lon="10.391200491206114"><ele>621.0</ele><time>2026-04-19T09:42:12Z</time></trkpt><trkpt lat="44.44934102096181" lon="10.391248017351085"><ele>621.0</ele><time>2026-04-19T09:42:15Z</time></trkpt><trkpt lat="44.44937456875598" lon="10.391332465961963"><ele>621.0</ele><time>2026-04-19T09:42:17Z</time></trkpt><trkpt lat="44.44939724151795" lon="10.391419799561204"><ele>621.0</ele><time>2026-04-19T09:42:19Z</time></trkpt><trkpt lat="44.44945364626446" lon="10.391507419474106"><ele>621.0</ele><time>2026-04-19T09:42:21Z</time></trkpt><trkpt lat="44.44947563340634" lon="10.391634988430651"><ele>621.0</ele><time>2026-04-19T09:42:23Z</time></trkpt><trkpt lat="44.44950332549562" lon="10.391773555880667"><ele>621.0</ele><time>2026-04-19T09:42:25Z</time></trkpt><trkpt lat="44.44953310182197" lon="10.391923580434394"><ele>621.0</ele><time>2026-04-19T09:42:27Z</time></trkpt><trkpt lat="44.44956381907916" lon="10.392086462509958"><ele>621.0</ele><time>2026-04-19T09:42:29Z</time></trkpt><trkpt lat="44.44959541537054" lon="10.392256097125015"><ele>621.5</ele><time>2026-04-19T09:42:31Z</time></trkpt><trkpt lat="44.449609401906876" lon="10.392348625491861"><ele>622.0</ele><time>2026-04-19T09:42:32Z</time></trkpt><trkpt lat="44.44962177978495" lon="10.392448411635488"><ele>622.5</ele><time>2026-04-19T09:42:33Z</time></trkpt><trkpt lat="44.44963477436839" lon="10.392555635040335"><ele>623.0</ele><time>2026-04-19T09:42:34Z</time></trkpt><trkpt lat="44.449657643595394" lon="10.392659892855908"><ele>623.5</ele><time>2026-04-19T09:42:35Z</time></trkpt><trkpt lat="44.44969250684726" lon="10.392766255356452"><ele>624.0</ele><time>2026-04-19T09:42:36Z</time></trkpt><trkpt lat="44.449738195847914" lon="10.392873082555363"><ele>616.0</ele><time>2026-04-19T09:42:37Z</time></trkpt><trkpt lat="44.44983364746103" lon="10.39306165962183"><ele>608.0</ele><time>2026-04-19T09:42:38Z</time></trkpt><trkpt lat="44.44997671002445" lon="10.393271078227409"><ele>600.0</ele><time>2026-04-19T09:42:39Z</time></trkpt><trkpt lat="44.45011579973059" lon="10.393445309172533"><ele>600.0</ele><time>2026-04-19T09:42:40Z</time></trkpt><trkpt lat="44.45022478634989" lon="10.39357602024376"><ele>600.0</ele><time>2026-04-19T09:42:41Z</time></trkpt><trkpt lat="44.450322039950166" lon="10.393684494394348"><ele>600.0</ele><time>2026-04-19T09:42:42Z</time></trkpt><trkpt lat="44.45039932630378" lon="10.393817083275641"><ele>600.0</ele><time>2026-04-19T09:42:43Z</time></trkpt><trkpt lat="44.450467682314304" lon="10.393938773146473"><ele>592.6666666666666</ele><time>2026-04-19T09:42:44Z</time></trkpt><trkpt lat="44.45051842561702" lon="10.394119776710623"><ele>585.3333333333333</ele><time>2026-04-19T09:42:45Z</time></trkpt><trkpt lat="44.450565097274556" lon="10.394367664498082"><ele>578.0</ele><time>2026-04-19T09:42:46Z</time></trkpt><trkpt lat="44.45060469212243" lon="10.394578854608422"><ele>577.75</ele><time>2026-04-19T09:42:47Z</time></trkpt><trkpt lat="44.450642582666056" lon="10.394772330079975"><ele>577.5</ele><time>2026-04-19T09:42:48Z</time></trkpt><trkpt lat="44.45068152936976" lon="10.394949896471173"><ele>577.25</ele><time>2026-04-19T09:42:49Z</time></trkpt><trkpt lat="44.45073225863149" lon="10.3951142646982"><ele>577.0</ele><time>2026-04-19T09:42:50Z</time></trkpt><trkpt lat="44.45081706903861" lon="10.395247275060479"><ele>577.0</ele><time>2026-04-19T09:42:51Z</time></trkpt><trkpt lat="44.45095808273277" lon="10.395331524608418"><ele>577.0</ele><time>2026-04-19T09:42:52Z</time></trkpt><trkpt lat="44.45111246330563" lon="10.395441578943883"><ele>577.0</ele><time>2026-04-19T09:42:53Z</time></trkpt><trkpt lat="44.45124032793288" lon="10.395536687945775"><ele>574.75</ele><time>2026-04-19T09:42:54Z</time></trkpt><trkpt lat="44.45136008926175" lon="10.395651325199813"><ele>572.5</ele><time>2026-04-19T09:42:55Z</time></trkpt><trkpt lat="44.45146754083114" lon="10.395782338477114"><ele>570.25</ele><time>2026-04-19T09:42:56Z</time></trkpt><trkpt lat="44.45155521930334" lon="10.395934240149819"><ele>568.0</ele><time>2026-04-19T09:42:57Z</time></trkpt><trkpt lat="44.45162723191713" lon="10.3961119906324"><ele>568.0</ele><time>2026-04-19T09:42:58Z</time></trkpt><trkpt lat="44.45169916425102" lon="10.396295477886529"><ele>568.0</ele><time>2026-04-19T09:42:59Z</time></trkpt><trkpt lat="44.45178804504385" lon="10.396486319715521"><ele>568.0</ele><time>2026-04-19T09:43:00Z</time></trkpt><trkpt lat="44.451846667087594" lon="10.396711244444182"><ele>569.3333333333334</ele><time>2026-04-19T09:43:01Z</time></trkpt><trkpt lat="44.45193785866793" lon="10.396935929435827"><ele>570.6666666666666</ele><time>2026-04-19T09:43:02Z</time></trkpt><trkpt lat="44.45201149143233" lon="10.397148040611219"><ele>572.0</ele><time>2026-04-19T09:43:03Z</time></trkpt><trkpt lat="44.45210183993807" lon="10.397330440372187"><ele>565.6666666666666</ele><time>2026-04-19T09:43:04Z</time></trkpt><trkpt lat="44.45220621780399" lon="10.397489205717722"><ele>559.3333333333334</ele><time>2026-04-19T09:43:05Z</time></trkpt><trkpt lat="44.452318487798806" lon="10.397627738494418"><ele>553.0</ele><time>2026-04-19T09:43:06Z</time></trkpt><trkpt lat="44.45244139717992" lon="10.397763147519143"><ele>553.0</ele><time>2026-04-19T09:43:07Z</time></trkpt><trkpt lat="44.45256837775936" lon="10.397882365244547"><ele>553.0</ele><time>2026-04-19T09:43:08Z</time></trkpt><trkpt lat="44.45268790175265" lon="10.397991889869612"><ele>553.0</ele><time>2026-04-19T09:43:09Z</time></trkpt><trkpt lat="44.45283210530513" lon="10.398112028712305"><ele>550.25</ele><time>2026-04-19T09:43:10Z</time></trkpt><trkpt lat="44.452971511172784" lon="10.398205540934216"><ele>547.5</ele><time>2026-04-19T09:43:11Z</time></trkpt><trkpt lat="44.45309459094721" lon="10.39831927832595"><ele>544.75</ele><time>2026-04-19T09:43:12Z</time></trkpt><trkpt lat="44.45319078560574" lon="10.398445055326432"><ele>542.0</ele><time>2026-04-19T09:43:13Z</time></trkpt><trkpt lat="44.453289539484246" lon="10.398543717070309"><ele>542.0</ele><time>2026-04-19T09:43:14Z</time></trkpt><trkpt lat="44.45341440204825" lon="10.398574015426755"><ele>542.0</ele><time>2026-04-19T09:43:15Z</time></trkpt><trkpt lat="44.45353307412087" lon="10.398560106094534"><ele>542.0</ele><time>2026-04-19T09:43:16Z</time></trkpt><trkpt lat="44.45367517123693" lon="10.39853884568358"><ele>542.0</ele><time>2026-04-19T09:43:17Z</time></trkpt><trkpt lat="44.45382053519134" lon="10.398575995819556"><ele>539.5</ele><time>2026-04-19T09:43:18Z</time></trkpt><trkpt lat="44.453930462021674" lon="10.398659810707406"><ele>537.0</ele><time>2026-04-19T09:43:19Z</time></trkpt><trkpt lat="44.45400599394646" lon="10.39878849074829"><ele>534.5</ele><time>2026-04-19T09:43:20Z</time></trkpt><trkpt lat="44.454051681475015" lon="10.398963028436068"><ele>532.0</ele><time>2026-04-19T09:43:21Z</time></trkpt><trkpt lat="44.454090221968144" lon="10.399161586783498"><ele>531.5</ele><time>2026-04-19T09:43:22Z</time></trkpt><trkpt lat="44.4541023839489" lon="10.399373106567978"><ele>531.0</ele><time>2026-04-19T09:43:23Z</time></trkpt><trkpt lat="44.454107384970975" lon="10.39956135390846"><ele>530.5</ele><time>2026-04-19T09:43:24Z</time></trkpt><trkpt lat="44.45411551736017" lon="10.39972319496564"><ele>530.0</ele><time>2026-04-19T09:43:25Z</time></trkpt><trkpt lat="44.45413038257596" lon="10.399853383551973"><ele>531.6666666666666</ele><time>2026-04-19T09:43:26Z</time></trkpt><trkpt lat="44.4540015652297" lon="10.40001738526275"><ele>533.3333333333334</ele><time>2026-04-19T09:43:27Z</time></trkpt><trkpt lat="44.45389117946118" lon="10.400176897714399"><ele>535.0</ele><time>2026-04-19T09:43:28Z</time></trkpt><trkpt lat="44.453770347030684" lon="10.400366069846507"><ele>533.25</ele><time>2026-04-19T09:43:29Z</time></trkpt><trkpt lat="44.453679088478346" lon="10.400539179904221"><ele>531.5</ele><time>2026-04-19T09:43:30Z</time></trkpt><trkpt lat="44.45362607409858" lon="10.400699273954361"><ele>529.75</ele><time>2026-04-19T09:43:31Z</time></trkpt><trkpt lat="44.45361992345663" lon="10.400880761057536"><ele>528.0</ele><time>2026-04-19T09:43:32Z</time></trkpt><trkpt lat="44.453647438967884" lon="10.401086062732965"><ele>528.0</ele><time>2026-04-19T09:43:33Z</time></trkpt><trkpt lat="44.45368091939758" lon="10.401298623139633"><ele>528.0</ele><time>2026-04-19T09:43:34Z</time></trkpt><trkpt lat="44.45372980720092" lon="10.40149439561086"><ele>528.0</ele><time>2026-04-19T09:43:35Z</time></trkpt><trkpt lat="44.45380263018046" lon="10.401672185248165"><ele>532.3333333333334</ele><time>2026-04-19T09:43:36Z</time></trkpt><trkpt lat="44.45389169511996" lon="10.401848370997667"><ele>536.6666666666667</ele><time>2026-04-19T09:43:37Z</time></trkpt><trkpt lat="44.45398832803568" lon="10.40201932847147"><ele>541.0</ele><time>2026-04-19T09:43:38Z</time></trkpt><trkpt lat="44.454091249651626" lon="10.402152895831968"><ele>537.25</ele><time>2026-04-19T09:43:39Z</time></trkpt><trkpt lat="44.454197853939604" lon="10.402285441771781"><ele>533.5</ele><time>2026-04-19T09:43:40Z</time></trkpt><trkpt lat="44.45430719288144" lon="10.402418949323174"><ele>529.75</ele><time>2026-04-19T09:43:41Z</time></trkpt><trkpt lat="44.45439843455692" lon="10.402550555738177"><ele>526.0</ele><time>2026-04-19T09:43:42Z</time></trkpt><trkpt lat="44.45448677932941" lon="10.40268144761953"><ele>526.0</ele><time>2026-04-19T09:43:43Z</time></trkpt><trkpt lat="44.454561462867105" lon="10.40281300476782"><ele>526.0</ele><time>2026-04-19T09:43:44Z</time></trkpt><trkpt lat="44.45461167983902" lon="10.402959366005987"><ele>526.0</ele><time>2026-04-19T09:43:45Z</time></trkpt><trkpt lat="44.45459560408297" lon="10.403115197776556"><ele>526.0</ele><time>2026-04-19T09:43:46Z</time></trkpt><trkpt lat="44.454586067102234" lon="10.40327427080478"><ele>524.25</ele><time>2026-04-19T09:43:47Z</time></trkpt><trkpt lat="44.45453566071126" lon="10.403422778647277"><ele>522.5</ele><time>2026-04-19T09:43:48Z</time></trkpt><trkpt lat="44.45444889095012" lon="10.403535695268584"><ele>520.75</ele><time>2026-04-19T09:43:49Z</time></trkpt><trkpt lat="44.45434387018076" lon="10.403597909880379"><ele>519.0</ele><time>2026-04-19T09:43:50Z</time></trkpt><trkpt lat="44.4542456951969" lon="10.403653980338525"><ele>519.0</ele><time>2026-04-19T09:43:51Z</time></trkpt><trkpt lat="44.45416658935836" lon="10.403734800009069"><ele>519.0</ele><time>2026-04-19T09:43:52Z</time></trkpt><trkpt lat="44.454113197408915" lon="10.403849907831571"><ele>519.0</ele><time>2026-04-19T09:43:53Z</time></trkpt><trkpt lat="44.4540855885416" lon="10.403994359464738"><ele>519.0</ele><time>2026-04-19T09:43:54Z</time></trkpt><trkpt lat="44.45407478439318" lon="10.404156939086919"><ele>519.0</ele><time>2026-04-19T09:43:55Z</time></trkpt><trkpt lat="44.454074701170214" lon="10.404322559655"><ele>519.25</ele><time>2026-04-19T09:43:56Z</time></trkpt><trkpt lat="44.4540887259003" lon="10.40448029601645"><ele>519.5</ele><time>2026-04-19T09:43:57Z</time></trkpt><trkpt lat="44.45412972195366" lon="10.40464027606506"><ele>519.75</ele><time>2026-04-19T09:43:58Z</time></trkpt><trkpt lat="44.454191304740846" lon="10.404809285049954"><ele>520.0</ele><time>2026-04-19T09:43:59Z</time></trkpt><trkpt lat="44.45425653999524" lon="10.4050057905886"><ele>520.75</ele><time>2026-04-19T09:44:00Z</time></trkpt><trkpt lat="44.454310902099245" lon="10.405191813704073"><ele>521.5</ele><time>2026-04-19T09:44:01Z</time></trkpt><trkpt lat="44.454367927695884" lon="10.405350907787422"><ele>522.25</ele><time>2026-04-19T09:44:02Z</time></trkpt><trkpt lat="44.4544307553305" lon="10.405507412711858"><ele>523.0</ele><time>2026-04-19T09:44:03Z</time></trkpt><trkpt lat="44.45451205546823" lon="10.405651248673545"><ele>519.6666666666667</ele><time>2026-04-19T09:44:04Z</time></trkpt><trkpt lat="44.45462174237646" lon="10.405770580711932"><ele>516.3333333333334</ele><time>2026-04-19T09:44:05Z</time></trkpt><trkpt lat="44.454754797137774" lon="10.40588049224607"><ele>513.0</ele><time>2026-04-19T09:44:06Z</time></trkpt><trkpt lat="44.4548887898539" lon="10.405993171849252"><ele>513.0</ele><time>2026-04-19T09:44:07Z</time></trkpt><trkpt lat="44.45498523749118" lon="10.40613988244118"><ele>513.0</ele><time>2026-04-19T09:44:08Z</time></trkpt><trkpt lat="44.45507546305318" lon="10.406291017774107"><ele>513.0</ele><time>2026-04-19T09:44:09Z</time></trkpt><trkpt lat="44.45516769231516" lon="10.406449207885972"><ele>513.0</ele><time>2026-04-19T09:44:10Z</time></trkpt><trkpt lat="44.45526574352558" lon="10.40659657024854"><ele>512.5</ele><time>2026-04-19T09:44:11Z</time></trkpt><trkpt lat="44.45534380593343" lon="10.406734215522349"><ele>512.0</ele><time>2026-04-19T09:44:12Z</time></trkpt><trkpt lat="44.455423190817754" lon="10.406869747810912"><ele>511.5</ele><time>2026-04-19T09:44:13Z</time></trkpt><trkpt lat="44.455499136529404" lon="10.407005517759515"><ele>511.0</ele><time>2026-04-19T09:44:14Z</time></trkpt><trkpt lat="44.45557019169321" lon="10.407136166983832"><ele>510.25</ele><time>2026-04-19T09:44:15Z</time></trkpt><trkpt lat="44.45559900154598" lon="10.407293538040927"><ele>509.5</ele><time>2026-04-19T09:44:16Z</time></trkpt><trkpt lat="44.45561907127809" lon="10.407442591595816"><ele>508.75</ele><time>2026-04-19T09:44:17Z</time></trkpt><trkpt lat="44.45565827834565" lon="10.407595907804978"><ele>508.0</ele><time>2026-04-19T09:44:18Z</time></trkpt><trkpt lat="44.45570717327708" lon="10.40775206792385"><ele>508.0</ele><time>2026-04-19T09:44:19Z</time></trkpt><trkpt lat="44.45577935111256" lon="10.407892289684849"><ele>508.0</ele><time>2026-04-19T09:44:20Z</time></trkpt><trkpt lat="44.45584094668792" lon="10.408025712722802"><ele>508.0</ele><time>2026-04-19T09:44:21Z</time></trkpt><trkpt lat="44.455846242993914" lon="10.408168883494552"><ele>508.0</ele><time>2026-04-19T09:44:22Z</time></trkpt><trkpt lat="44.455831252783526" lon="10.40832470137717"><ele>506.59999999999997</ele><time>2026-04-19T09:44:23Z</time></trkpt><trkpt lat="44.45584333677918" lon="10.408478903084166"><ele>505.19999999999993</ele><time>2026-04-19T09:44:24Z</time></trkpt><trkpt lat="44.45586796058551" lon="10.408609073750045"><ele>503.8</ele><time>2026-04-19T09:44:25Z</time></trkpt><trkpt lat="44.45592119128639" lon="10.408735047135226"><ele>502.4</ele><time>2026-04-19T09:44:26Z</time></trkpt><trkpt lat="44.45600612918125" lon="10.408882932913526"><ele>501.0</ele><time>2026-04-19T09:44:27Z</time></trkpt><trkpt lat="44.45610036477764" lon="10.408992939575059"><ele>500.5</ele><time>2026-04-19T09:44:28Z</time></trkpt><trkpt lat="44.45620847887039" lon="10.409128042038539"><ele>500.0</ele><time>2026-04-19T09:44:29Z</time></trkpt><trkpt lat="44.456324242521816" lon="10.409242244044842"><ele>499.5</ele><time>2026-04-19T09:44:30Z</time></trkpt><trkpt lat="44.45640830221603" lon="10.409352947346834"><ele>499.0</ele><time>2026-04-19T09:44:31Z</time></trkpt><trkpt lat="44.45652289114225" lon="10.409462254923865"><ele>498.5</ele><time>2026-04-19T09:44:32Z</time></trkpt><trkpt lat="44.45664043694752" lon="10.409543971034244"><ele>498.0</ele><time>2026-04-19T09:44:33Z</time></trkpt><trkpt lat="44.4567336991547" lon="10.409663360893271"><ele>497.5</ele><time>2026-04-19T09:44:34Z</time></trkpt><trkpt lat="44.45682946249456" lon="10.409734449232529"><ele>497.0</ele><time>2026-04-19T09:44:35Z</time></trkpt><trkpt lat="44.45691892893934" lon="10.409811857304545"><ele>495.6</ele><time>2026-04-19T09:44:36Z</time></trkpt><trkpt lat="44.457009063366705" lon="10.409851379329565"><ele>494.20000000000005</ele><time>2026-04-19T09:44:37Z</time></trkpt><trkpt lat="44.45710183869585" lon="10.409856103984533"><ele>492.8</ele><time>2026-04-19T09:44:38Z</time></trkpt><trkpt lat="44.457200772184734" lon="10.409840905289267"><ele>491.4</ele><time>2026-04-19T09:44:39Z</time></trkpt><trkpt lat="44.457318012317934" lon="10.409782345891132"><ele>490.0</ele><time>2026-04-19T09:44:40Z</time></trkpt><trkpt lat="44.45742599751022" lon="10.409759833101024"><ele>489.33333333333337</ele><time>2026-04-19T09:44:41Z</time></trkpt><trkpt lat="44.45751759260204" lon="10.409739988806406"><ele>488.6666666666667</ele><time>2026-04-19T09:44:42Z</time></trkpt><trkpt lat="44.45759666267411" lon="10.4097293327859"><ele>488.0</ele><time>2026-04-19T09:44:43Z</time></trkpt><trkpt lat="44.45767296323137" lon="10.40972804233944"><ele>487.33333333333337</ele><time>2026-04-19T09:44:44Z</time></trkpt><trkpt lat="44.4577474205152" lon="10.409736394059996"><ele>486.6666666666667</ele><time>2026-04-19T09:44:45Z</time></trkpt><trkpt lat="44.45782688908019" lon="10.409746838472946"><ele>486.0</ele><time>2026-04-19T09:44:46Z</time></trkpt><trkpt lat="44.45790805683841" lon="10.409759655368928"><ele>486.5</ele><time>2026-04-19T09:44:47Z</time></trkpt><trkpt lat="44.4579896626185" lon="10.40977402310233"><ele>487.0</ele><time>2026-04-19T09:44:48Z</time></trkpt><trkpt lat="44.45807622876715" lon="10.409790634957"><ele>487.5</ele><time>2026-04-19T09:44:49Z</time></trkpt><trkpt lat="44.458163030293214" lon="10.409787052824074"><ele>488.0</ele><time>2026-04-19T09:44:50Z</time></trkpt><trkpt lat="44.458237975489325" lon="10.40983569698902"><ele>488.5</ele><time>2026-04-19T09:44:51Z</time></trkpt><trkpt lat="44.45830910442881" lon="10.40988047903432"><ele>489.0</ele><time>2026-04-19T09:44:52Z</time></trkpt><trkpt lat="44.45837176514088" lon="10.4099479201365"><ele>489.0</ele><time>2026-04-19T09:44:53Z</time></trkpt><trkpt lat="44.45842522946749" lon="10.41003654601125"><ele>489.0</ele><time>2026-04-19T09:44:54Z</time></trkpt><trkpt lat="44.45848636567057" lon="10.410139453352587"><ele>489.0</ele><time>2026-04-19T09:44:55Z</time></trkpt><trkpt lat="44.45854101331052" lon="10.410221837360194"><ele>489.0</ele><time>2026-04-19T09:44:56Z</time></trkpt><trkpt lat="44.45860428094513" lon="10.410274767765175"><ele>489.0</ele><time>2026-04-19T09:44:57Z</time></trkpt><trkpt lat="44.458659721997336" lon="10.410331893527072"><ele>489.0</ele><time>2026-04-19T09:44:58Z</time></trkpt><trkpt lat="44.458727675924436" lon="10.410381414351603"><ele>490.2</ele><time>2026-04-19T09:45:00Z</time></trkpt><trkpt lat="44.45881721854287" lon="10.410462482824823"><ele>491.4</ele><time>2026-04-19T09:45:03Z</time></trkpt><trkpt lat="44.458891280722675" lon="10.410401438596558"><ele>492.6</ele><time>2026-04-19T09:45:04Z</time></trkpt><trkpt lat="44.45901604155211" lon="10.410361491078689"><ele>493.8</ele><time>2026-04-19T09:45:06Z</time></trkpt><trkpt lat="44.45913261750968" lon="10.410324484368566"><ele>495.0</ele><time>2026-04-19T09:45:08Z</time></trkpt><trkpt lat="44.45924719914477" lon="10.410284381819713"><ele>495.0</ele><time>2026-04-19T09:45:10Z</time></trkpt><trkpt lat="44.45937085096012" lon="10.410249885347207"><ele>495.0</ele><time>2026-04-19T09:45:12Z</time></trkpt><trkpt lat="44.459479858315014" lon="10.410199998198957"><ele>495.0</ele><time>2026-04-19T09:45:14Z</time></trkpt><trkpt lat="44.45960209159183" lon="10.410155376316855"><ele>495.0</ele><time>2026-04-19T09:45:16Z</time></trkpt><trkpt lat="44.45971939380794" lon="10.410112931262525"><ele>494.2</ele><time>2026-04-19T09:45:18Z</time></trkpt><trkpt lat="44.45978816974759" lon="10.410094298260093"><ele>493.4</ele><time>2026-04-19T09:45:19Z</time></trkpt><trkpt lat="44.459914221950825" lon="10.410085926992206"><ele>492.6</ele><time>2026-04-19T09:45:21Z</time></trkpt><trkpt lat="44.45998439727883" lon="10.410058959349465"><ele>491.8</ele><time>2026-04-19T09:45:22Z</time></trkpt><trkpt lat="44.46010743781308" lon="10.41003515535419"><ele>491.0</ele><time>2026-04-19T09:45:24Z</time></trkpt><trkpt lat="44.460179840896544" lon="10.410024924971676"><ele>491.0</ele><time>2026-04-19T09:45:25Z</time></trkpt><trkpt lat="44.460247047344865" lon="10.410018078929134"><ele>490.99999999999994</ele><time>2026-04-19T09:45:26Z</time></trkpt><trkpt lat="44.46031356199506" lon="10.4100108222414"><ele>491.0</ele><time>2026-04-19T09:45:27Z</time></trkpt><trkpt lat="44.460379002966995" lon="10.410011374128315"><ele>491.0</ele><time>2026-04-19T09:45:28Z</time></trkpt><trkpt lat="44.460446327769596" lon="10.410006488950952"><ele>490.99999999999994</ele><time>2026-04-19T09:45:29Z</time></trkpt><trkpt lat="44.460515012998265" lon="10.410004053008809"><ele>491.0</ele><time>2026-04-19T09:45:30Z</time></trkpt><trkpt lat="44.46058300895189" lon="10.410005244725733"><ele>491.0</ele><time>2026-04-19T09:45:31Z</time></trkpt><trkpt lat="44.46065170339616" lon="10.410030743612671"><ele>490.49999999999994</ele><time>2026-04-19T09:45:32Z</time></trkpt><trkpt lat="44.46072480643634" lon="10.41003385205616"><ele>490.0</ele><time>2026-04-19T09:45:33Z</time></trkpt><trkpt lat="44.460801647468855" lon="10.41003725586453"><ele>489.5</ele><time>2026-04-19T09:45:34Z</time></trkpt><trkpt lat="44.460876768399025" lon="10.410040583487701"><ele>489.0</ele><time>2026-04-19T09:45:35Z</time></trkpt><trkpt lat="44.46095251949402" lon="10.410044279180806"><ele>488.49999999999994</ele><time>2026-04-19T09:45:36Z</time></trkpt><trkpt lat="44.46103005423977" lon="10.410049354563451"><ele>488.0</ele><time>2026-04-19T09:45:37Z</time></trkpt><trkpt lat="44.4611055785586" lon="10.410054701182275"><ele>487.99999999999994</ele><time>2026-04-19T09:45:38Z</time></trkpt><trkpt lat="44.46118220585383" lon="10.410060915816238"><ele>488.0</ele><time>2026-04-19T09:45:39Z</time></trkpt><trkpt lat="44.46125738180367" lon="10.410067012782562"><ele>488.0</ele><time>2026-04-19T09:45:40Z</time></trkpt><trkpt lat="44.46133328896112" lon="10.410073169028598"><ele>488.0</ele><time>2026-04-19T09:45:41Z</time></trkpt><trkpt lat="44.46140732077623" lon="10.410079173197346"><ele>487.99999999999994</ele><time>2026-04-19T09:45:42Z</time></trkpt><trkpt lat="44.46148785310763" lon="10.41008624910445"><ele>488.0</ele><time>2026-04-19T09:45:43Z</time></trkpt><trkpt lat="44.46156638150134" lon="10.4100941879351"><ele>487.99999999999994</ele><time>2026-04-19T09:45:44Z</time></trkpt><trkpt lat="44.4616386633694" lon="10.410107483564431"><ele>488.0</ele><time>2026-04-19T09:45:45Z</time></trkpt><trkpt lat="44.4617126741839" lon="10.41012577010659"><ele>487.99999999999994</ele><time>2026-04-19T09:45:46Z</time></trkpt><trkpt lat="44.46178297203046" lon="10.410145761265195"><ele>487.99999999999994</ele><time>2026-04-19T09:45:47Z</time></trkpt><trkpt lat="44.46185555116901" lon="10.410172720021375"><ele>488.0</ele><time>2026-04-19T09:45:48Z</time></trkpt><trkpt lat="44.461924408279906" lon="10.410202980617743"><ele>487.99999999999994</ele><time>2026-04-19T09:45:49Z</time></trkpt><trkpt lat="44.46198824095321" lon="10.410234868708372"><ele>487.99999999999994</ele><time>2026-04-19T09:45:50Z</time></trkpt><trkpt lat="44.462099843590885" lon="10.410294276138037"><ele>487.79999999999995</ele><time>2026-04-19T09:45:52Z</time></trkpt><trkpt lat="44.46220759158822" lon="10.410354902708606"><ele>487.59999999999997</ele><time>2026-04-19T09:45:54Z</time></trkpt><trkpt lat="44.46226796917677" lon="10.410389602465418"><ele>487.40000000000003</ele><time>2026-04-19T09:45:55Z</time></trkpt><trkpt lat="44.46239949819059" lon="10.410440926873578"><ele>487.20000000000005</ele><time>2026-04-19T09:45:57Z</time></trkpt><trkpt lat="44.462460027547635" lon="10.410478675019979"><ele>487.0</ele><time>2026-04-19T09:45:58Z</time></trkpt><trkpt lat="44.46257301787958" lon="10.4105532671124"><ele>486.40000000000003</ele><time>2026-04-19T09:46:00Z</time></trkpt><trkpt lat="44.46269051031569" lon="10.410660436235633"><ele>485.80000000000007</ele><time>2026-04-19T09:46:02Z</time></trkpt><trkpt lat="44.46274689785071" lon="10.410722445443676"><ele>485.2</ele><time>2026-04-19T09:46:03Z</time></trkpt><trkpt lat="44.462837301039826" lon="10.410822168170887"><ele>484.6</ele><time>2026-04-19T09:46:05Z</time></trkpt><trkpt lat="44.462907262483164" lon="10.41090450837431"><ele>484.0</ele><time>2026-04-19T09:46:07Z</time></trkpt><trkpt lat="44.4629844734496" lon="10.41097568660493"><ele>484.00000000000006</ele><time>2026-04-19T09:46:09Z</time></trkpt><trkpt lat="44.46304931883058" lon="10.411054631969844"><ele>484.0</ele><time>2026-04-19T09:46:11Z</time></trkpt><trkpt lat="44.463109291446365" lon="10.411107661258438"><ele>484.0</ele><time>2026-04-19T09:46:15Z</time></trkpt><trkpt lat="44.46318173857946" lon="10.411125074585488"><ele>484.0</ele><time>2026-04-19T09:47:56Z</time></trkpt><trkpt lat="44.463266517112295" lon="10.411174347980497"><ele>484.00000000000006</ele><time>2026-04-19T09:47:57Z</time></trkpt><trkpt lat="44.4633449873737" lon="10.41122663403349"><ele>484.0</ele><time>2026-04-19T09:47:58Z</time></trkpt><trkpt lat="44.46342986823165" lon="10.411265671758766"><ele>484.0</ele><time>2026-04-19T09:47:59Z</time></trkpt><trkpt lat="44.463507152826885" lon="10.411303501883557"><ele>484.0</ele><time>2026-04-19T09:48:00Z</time></trkpt><trkpt lat="44.4635853839616" lon="10.411323146123708"><ele>484.0</ele><time>2026-04-19T09:48:01Z</time></trkpt><trkpt lat="44.46367297031128" lon="10.411344082464923"><ele>484.0</ele><time>2026-04-19T09:48:02Z</time></trkpt><trkpt lat="44.463772277065075" lon="10.411349156780714"><ele>484.0</ele><time>2026-04-19T09:48:03Z</time></trkpt><trkpt lat="44.46387484100776" lon="10.411352634530495"><ele>483.4</ele><time>2026-04-19T09:48:04Z</time></trkpt><trkpt lat="44.46397872063033" lon="10.411352215631608"><ele>482.79999999999995</ele><time>2026-04-19T09:48:05Z</time></trkpt><trkpt lat="44.46408419642582" lon="10.411357195409995"><ele>482.20000000000005</ele><time>2026-04-19T09:48:06Z</time></trkpt><trkpt lat="44.46418856917284" lon="10.411371029786746"><ele>481.6</ele><time>2026-04-19T09:48:07Z</time></trkpt><trkpt lat="44.46428392831205" lon="10.411421625781719"><ele>481.0</ele><time>2026-04-19T09:48:08Z</time></trkpt><trkpt lat="44.46436624690052" lon="10.411497380942613"><ele>481.0</ele><time>2026-04-19T09:48:09Z</time></trkpt><trkpt lat="44.4644430928527" lon="10.41160464647789"><ele>481.0</ele><time>2026-04-19T09:48:10Z</time></trkpt><trkpt lat="44.464514896341555" lon="10.411710133904284"><ele>481.0</ele><time>2026-04-19T09:48:11Z</time></trkpt><trkpt lat="44.464588443419885" lon="10.411814234120785"><ele>481.0</ele><time>2026-04-19T09:48:12Z</time></trkpt><trkpt lat="44.464667683743926" lon="10.411914313190728"><ele>481.0</ele><time>2026-04-19T09:48:13Z</time></trkpt><trkpt lat="44.46473771718092" lon="10.412027860367457"><ele>482.4</ele><time>2026-04-19T09:48:14Z</time></trkpt><trkpt lat="44.46482077254294" lon="10.41211822434679"><ele>483.8</ele><time>2026-04-19T09:48:15Z</time></trkpt><trkpt lat="44.46489505803357" lon="10.412201846635753"><ele>485.19999999999993</ele><time>2026-04-19T09:48:16Z</time></trkpt><trkpt lat="44.46496625845993" lon="10.412287928391779"><ele>486.59999999999997</ele><time>2026-04-19T09:48:17Z</time></trkpt><trkpt lat="44.465036088465" lon="10.41237592074245"><ele>488.0</ele><time>2026-04-19T09:48:18Z</time></trkpt><trkpt lat="44.46510421527793" lon="10.412463048002802"><ele>484.5</ele><time>2026-04-19T09:48:19Z</time></trkpt><trkpt lat="44.46517373891082" lon="10.412558034052282"><ele>481.0</ele><time>2026-04-19T09:48:20Z</time></trkpt><trkpt lat="44.465243622269945" lon="10.412648740434115"><ele>477.5</ele><time>2026-04-19T09:48:21Z</time></trkpt><trkpt lat="44.46533283746513" lon="10.412756215847853"><ele>474.0</ele><time>2026-04-19T09:48:22Z</time></trkpt><trkpt lat="44.46545257412344" lon="10.412864039502816"><ele>473.66666666666663</ele><time>2026-04-19T09:48:23Z</time></trkpt><trkpt lat="44.46558200796506" lon="10.412957255395261"><ele>473.3333333333333</ele><time>2026-04-19T09:48:24Z</time></trkpt><trkpt lat="44.46572979038749" lon="10.413034622005965"><ele>473.0</ele><time>2026-04-19T09:48:25Z</time></trkpt><trkpt lat="44.46588187368354" lon="10.413109938324878"><ele>470.75</ele><time>2026-04-19T09:48:26Z</time></trkpt><trkpt lat="44.46602016184596" lon="10.413184687566227"><ele>468.5</ele><time>2026-04-19T09:48:27Z</time></trkpt><trkpt lat="44.466143751017086" lon="10.413270680121624"><ele>466.25</ele><time>2026-04-19T09:48:28Z</time></trkpt><trkpt lat="44.466243625685266" lon="10.41338059988226"><ele>464.0</ele><time>2026-04-19T09:48:29Z</time></trkpt><trkpt lat="44.46631153952915" lon="10.41352321106095"><ele>464.0</ele><time>2026-04-19T09:48:30Z</time></trkpt><trkpt lat="44.466336992870495" lon="10.413727743894556"><ele>464.0</ele><time>2026-04-19T09:48:31Z</time></trkpt><trkpt lat="44.46638141473601" lon="10.413934890386203"><ele>464.0</ele><time>2026-04-19T09:48:32Z</time></trkpt><trkpt lat="44.46642115865498" lon="10.414128021665341"><ele>464.0</ele><time>2026-04-19T09:48:33Z</time></trkpt><trkpt lat="44.46646442518117" lon="10.414303052942637"><ele>463.75</ele><time>2026-04-19T09:48:34Z</time></trkpt><trkpt lat="44.46652007024133" lon="10.414466019539287"><ele>463.5</ele><time>2026-04-19T09:48:35Z</time></trkpt><trkpt lat="44.46659887991625" lon="10.414582345826465"><ele>463.25</ele><time>2026-04-19T09:48:36Z</time></trkpt><trkpt lat="44.46671063001288" lon="10.414675598369126"><ele>463.0</ele><time>2026-04-19T09:48:37Z</time></trkpt><trkpt lat="44.46680767104578" lon="10.414718436920921"><ele>463.0</ele><time>2026-04-19T09:48:38Z</time></trkpt><trkpt lat="44.46693445412858" lon="10.414720166775128"><ele>463.0</ele><time>2026-04-19T09:48:39Z</time></trkpt><trkpt lat="44.46707343557435" lon="10.41467769076453"><ele>463.0</ele><time>2026-04-19T09:48:40Z</time></trkpt><trkpt lat="44.46721557508864" lon="10.41461176875807"><ele>463.0</ele><time>2026-04-19T09:48:41Z</time></trkpt><trkpt lat="44.46735661194974" lon="10.414545271439149"><ele>462.0</ele><time>2026-04-19T09:48:42Z</time></trkpt><trkpt lat="44.46750002504832" lon="10.414489828704681"><ele>461.0</ele><time>2026-04-19T09:48:43Z</time></trkpt><trkpt lat="44.46764605327148" lon="10.414461414777788"><ele>460.0</ele><time>2026-04-19T09:48:44Z</time></trkpt><trkpt lat="44.467799872173835" lon="10.414457802352791"><ele>460.0</ele><time>2026-04-19T09:48:45Z</time></trkpt><trkpt lat="44.467943345545955" lon="10.414467953107248"><ele>460.0</ele><time>2026-04-19T09:48:46Z</time></trkpt><trkpt lat="44.468082483460485" lon="10.414476277828625"><ele>460.0</ele><time>2026-04-19T09:48:47Z</time></trkpt><trkpt lat="44.46820739532314" lon="10.414497838012272"><ele>460.0</ele><time>2026-04-19T09:48:48Z</time></trkpt><trkpt lat="44.468321744553904" lon="10.414548705238898"><ele>458.8</ele><time>2026-04-19T09:48:49Z</time></trkpt><trkpt lat="44.4684313393516" lon="10.414603038389092"><ele>457.6</ele><time>2026-04-19T09:48:50Z</time></trkpt><trkpt lat="44.46852632249617" lon="10.414642180413072"><ele>456.4</ele><time>2026-04-19T09:48:51Z</time></trkpt><trkpt lat="44.46861067989882" lon="10.41468149375862"><ele>455.2</ele><time>2026-04-19T09:48:52Z</time></trkpt><trkpt lat="44.46870302583421" lon="10.414723416529371"><ele>454.0</ele><time>2026-04-19T09:48:53Z</time></trkpt><trkpt lat="44.46879694892317" lon="10.414774889278155"><ele>452.25</ele><time>2026-04-19T09:48:54Z</time></trkpt><trkpt lat="44.46889685809504" lon="10.414836383004534"><ele>450.5</ele><time>2026-04-19T09:48:55Z</time></trkpt><trkpt lat="44.4690192918105" lon="10.414877336290447"><ele>448.75</ele><time>2026-04-19T09:48:56Z</time></trkpt><trkpt lat="44.4691514517635" lon="10.414901534679688"><ele>447.0</ele><time>2026-04-19T09:48:57Z</time></trkpt><trkpt lat="44.46930540976493" lon="10.414909632599903"><ele>447.0</ele><time>2026-04-19T09:48:58Z</time></trkpt><trkpt lat="44.469444618802996" lon="10.414917909993676"><ele>447.0</ele><time>2026-04-19T09:48:59Z</time></trkpt><trkpt lat="44.46958821697592" lon="10.41492905793253"><ele>447.0</ele><time>2026-04-19T09:49:00Z</time></trkpt><trkpt lat="44.4697335052368" lon="10.414941175640896"><ele>447.0</ele><time>2026-04-19T09:49:01Z</time></trkpt><trkpt lat="44.46988317361817" lon="10.414955790803216"><ele>446.75</ele><time>2026-04-19T09:49:02Z</time></trkpt><trkpt lat="44.470024964861246" lon="10.414969642871505"><ele>446.5</ele><time>2026-04-19T09:49:03Z</time></trkpt><trkpt lat="44.47015887568487" lon="10.414982951483347"><ele>446.25</ele><time>2026-04-19T09:49:04Z</time></trkpt><trkpt lat="44.47028487005691" lon="10.414991100383"><ele>446.0</ele><time>2026-04-19T09:49:05Z</time></trkpt><trkpt lat="44.47040101851047" lon="10.414997663815567"><ele>446.6</ele><time>2026-04-19T09:49:06Z</time></trkpt><trkpt lat="44.47051207648692" lon="10.415009200552404"><ele>447.20000000000005</ele><time>2026-04-19T09:49:07Z</time></trkpt><trkpt lat="44.47061936915887" lon="10.415023210387819"><ele>447.79999999999995</ele><time>2026-04-19T09:49:08Z</time></trkpt><trkpt lat="44.470724837864196" lon="10.41503408553412"><ele>448.4</ele><time>2026-04-19T09:49:09Z</time></trkpt><trkpt lat="44.47083103051652" lon="10.415052258688599"><ele>449.0</ele><time>2026-04-19T09:49:10Z</time></trkpt><trkpt lat="44.47093644784341" lon="10.415066357984713"><ele>449.0</ele><time>2026-04-19T09:49:11Z</time></trkpt><trkpt lat="44.47104330653192" lon="10.41507668178304"><ele>449.0</ele><time>2026-04-19T09:49:12Z</time></trkpt><trkpt lat="44.47114782946822" lon="10.41509388568764"><ele>449.0</ele><time>2026-04-19T09:49:13Z</time></trkpt><trkpt lat="44.471258929714494" lon="10.415118386903954"><ele>449.0</ele><time>2026-04-19T09:49:14Z</time></trkpt><trkpt lat="44.47136775892021" lon="10.415157321587104"><ele>449.0</ele><time>2026-04-19T09:49:15Z</time></trkpt><trkpt lat="44.47148052508592" lon="10.41522414581618"><ele>450.5</ele><time>2026-04-19T09:49:16Z</time></trkpt><trkpt lat="44.47158203222389" lon="10.4153000324009"><ele>452.0</ele><time>2026-04-19T09:49:17Z</time></trkpt><trkpt lat="44.47168919270461" lon="10.415351085168133"><ele>453.5</ele><time>2026-04-19T09:49:18Z</time></trkpt><trkpt lat="44.47181529143768" lon="10.415361416225503"><ele>455.0</ele><time>2026-04-19T09:49:19Z</time></trkpt><trkpt lat="44.47195495718901" lon="10.4153434230643"><ele>455.0</ele><time>2026-04-19T09:49:20Z</time></trkpt><trkpt lat="44.47210570936021" lon="10.415318696620444"><ele>455.0</ele><time>2026-04-19T09:49:21Z</time></trkpt><trkpt lat="44.47224413889816" lon="10.415305943555895"><ele>455.0</ele><time>2026-04-19T09:49:22Z</time></trkpt><trkpt lat="44.47238330125181" lon="10.415293263663038"><ele>455.0</ele><time>2026-04-19T09:49:23Z</time></trkpt><trkpt lat="44.47252417033036" lon="10.415285858977464"><ele>454.75</ele><time>2026-04-19T09:49:24Z</time></trkpt><trkpt lat="44.472658219890874" lon="10.4152696857483"><ele>454.5</ele><time>2026-04-19T09:49:25Z</time></trkpt><trkpt lat="44.47279187050444" lon="10.415256486551508"><ele>454.25</ele><time>2026-04-19T09:49:26Z</time></trkpt><trkpt lat="44.47291149118425" lon="10.41524953145513"><ele>454.0</ele><time>2026-04-19T09:49:27Z</time></trkpt><trkpt lat="44.473031889394285" lon="10.415248559975941"><ele>454.5</ele><time>2026-04-19T09:49:28Z</time></trkpt><trkpt lat="44.473153622118375" lon="10.415278545387343"><ele>455.0</ele><time>2026-04-19T09:49:29Z</time></trkpt><trkpt lat="44.47326832496297" lon="10.415330829365715"><ele>455.5</ele><time>2026-04-19T09:49:30Z</time></trkpt><trkpt lat="44.47340063077195" lon="10.415407899045897"><ele>456.0</ele><time>2026-04-19T09:49:31Z</time></trkpt><trkpt lat="44.47353245709788" lon="10.415490514050406"><ele>456.0</ele><time>2026-04-19T09:49:32Z</time></trkpt><trkpt lat="44.47363420093411" lon="10.41557719600086"><ele>456.0</ele><time>2026-04-19T09:49:33Z</time></trkpt><trkpt lat="44.473736459653196" lon="10.415672086465005"><ele>456.0</ele><time>2026-04-19T09:49:34Z</time></trkpt><trkpt lat="44.47386044856697" lon="10.415787831359733"><ele>456.0</ele><time>2026-04-19T09:49:35Z</time></trkpt><trkpt lat="44.47400014433279" lon="10.415889701955601"><ele>452.5</ele><time>2026-04-19T09:49:36Z</time></trkpt><trkpt lat="44.47412333162259" lon="10.415995870214385"><ele>449.0</ele><time>2026-04-19T09:49:37Z</time></trkpt><trkpt lat="44.47423954140615" lon="10.41610305332044"><ele>445.5</ele><time>2026-04-19T09:49:38Z</time></trkpt><trkpt lat="44.47436834012256" lon="10.416209225268698"><ele>442.0</ele><time>2026-04-19T09:49:39Z</time></trkpt><trkpt lat="44.47444501905904" lon="10.416214800142535"><ele>442.00000000000006</ele><time>2026-04-19T09:49:40Z</time></trkpt><trkpt lat="44.474537018578054" lon="10.416233589724145"><ele>442.0</ele><time>2026-04-19T09:49:41Z</time></trkpt><trkpt lat="44.47460755732209" lon="10.416252272750718"><ele>442.0</ele><time>2026-04-19T09:49:42Z</time></trkpt><trkpt lat="44.47465561267953" lon="10.416387887698216"><ele>442.0</ele><time>2026-04-19T09:49:44Z</time></trkpt><trkpt lat="44.474635217271384" lon="10.41647157924684"><ele>442.00000000000006</ele><time>2026-04-19T09:49:45Z</time></trkpt><trkpt lat="44.47460616305453" lon="10.416620780408998"><ele>442.0</ele><time>2026-04-19T09:49:47Z</time></trkpt><trkpt lat="44.47460476976432" lon="10.41673114003434"><ele>440.6666666666667</ele><time>2026-04-19T09:49:53Z</time></trkpt><trkpt lat="44.474620976473055" lon="10.416819494516023"><ele>439.33333333333337</ele><time>2026-04-19T09:50:08Z</time></trkpt><trkpt lat="44.47463666386987" lon="10.416694442704404"><ele>438.0</ele><time>2026-04-19T09:50:33Z</time></trkpt><trkpt lat="44.47463111545661" lon="10.41653579595858"><ele>436.66666666666663</ele><time>2026-04-19T09:50:35Z</time></trkpt><trkpt lat="44.47462777453373" lon="10.416436029904489"><ele>435.3333333333333</ele><time>2026-04-19T09:50:36Z</time></trkpt><trkpt lat="44.474621711505634" lon="10.41633060939608"><ele>434.0</ele><time>2026-04-19T09:50:37Z</time></trkpt><trkpt lat="44.474613659244945" lon="10.41620514903239"><ele>433.5</ele><time>2026-04-19T09:50:38Z</time></trkpt><trkpt lat="44.47467643313175" lon="10.416092771505117"><ele>433.0</ele><time>2026-04-19T09:50:40Z</time></trkpt><trkpt lat="44.47478154916973" lon="10.416014944155451"><ele>432.5</ele><time>2026-04-19T09:50:42Z</time></trkpt><trkpt lat="44.47489389533" lon="10.415967725902759"><ele>432.0</ele><time>2026-04-19T09:50:43Z</time></trkpt><trkpt lat="44.475025599817734" lon="10.41590912021011"><ele>432.0</ele><time>2026-04-19T09:50:44Z</time></trkpt><trkpt lat="44.475157932751216" lon="10.415814116312433"><ele>432.00000000000006</ele><time>2026-04-19T09:50:45Z</time></trkpt><trkpt lat="44.47526667372366" lon="10.415750249712268"><ele>432.00000000000006</ele><time>2026-04-19T09:50:46Z</time></trkpt><trkpt lat="44.47534680919933" lon="10.415725267410261"><ele>432.0</ele><time>2026-04-19T09:50:47Z</time></trkpt><trkpt lat="44.47541556100024" lon="10.415634604988222"><ele>432.0</ele><time>2026-04-19T09:50:49Z</time></trkpt><trkpt lat="44.47539195816601" lon="10.415539310393319"><ele>433.40000000000003</ele><time>2026-04-19T09:50:50Z</time></trkpt><trkpt lat="44.47536227637931" lon="10.41541883513778"><ele>434.80000000000007</ele><time>2026-04-19T09:50:51Z</time></trkpt><trkpt lat="44.47538048460657" lon="10.415287032982103"><ele>436.2</ele><time>2026-04-19T09:50:53Z</time></trkpt><trkpt lat="44.47551121426337" lon="10.415224678579328"><ele>437.6</ele><time>2026-04-19T09:50:55Z</time></trkpt><trkpt lat="44.47561307182966" lon="10.415196103552224"><ele>439.0</ele><time>2026-04-19T09:50:56Z</time></trkpt><trkpt lat="44.475666880834346" lon="10.41512535705757"><ele>439.0</ele><time>2026-04-19T09:51:04Z</time></trkpt><trkpt lat="44.47578954848241" lon="10.415023968881483"><ele>439.0</ele><time>2026-04-19T09:51:06Z</time></trkpt><trkpt lat="44.47586494631789" lon="10.414937739313832"><ele>439.0</ele><time>2026-04-19T09:51:07Z</time></trkpt><trkpt lat="44.47590827441184" lon="10.414794802120632"><ele>439.0</ele><time>2026-04-19T09:51:08Z</time></trkpt><trkpt lat="44.475993591894905" lon="10.414693013310039"><ele>439.00000000000006</ele><time>2026-04-19T09:51:09Z</time></trkpt><trkpt lat="44.47605721466734" lon="10.414640202390403"><ele>439.0</ele><time>2026-04-19T09:51:10Z</time></trkpt><trkpt lat="44.47612491153345" lon="10.414724971922379"><ele>439.0</ele><time>2026-04-19T09:51:12Z</time></trkpt><trkpt lat="44.476212953937996" lon="10.414832957695335"><ele>439.0</ele><time>2026-04-19T09:51:13Z</time></trkpt><trkpt lat="44.47626499479245" lon="10.414956589955537"><ele>439.00000000000006</ele><time>2026-04-19T09:51:14Z</time></trkpt><trkpt lat="44.476266721896614" lon="10.41504736770977"><ele>439.0</ele><time>2026-04-19T09:51:15Z</time></trkpt><trkpt lat="44.47632636052808" lon="10.415164579760853"><ele>439.4</ele><time>2026-04-19T09:51:17Z</time></trkpt><trkpt lat="44.476389013754094" lon="10.415175866985168"><ele>439.79999999999995</ele><time>2026-04-19T09:51:18Z</time></trkpt><trkpt lat="44.47650787174384" lon="10.415109816618862"><ele>440.20000000000005</ele><time>2026-04-19T09:51:19Z</time></trkpt><trkpt lat="44.47660719668057" lon="10.415048588854564"><ele>440.6</ele><time>2026-04-19T09:51:20Z</time></trkpt><trkpt lat="44.47665948323811" lon="10.414966267138219"><ele>441.0</ele><time>2026-04-19T09:51:21Z</time></trkpt><trkpt lat="44.4766925184947" lon="10.41486289427491"><ele>441.0</ele><time>2026-04-19T09:51:22Z</time></trkpt><trkpt lat="44.47673857207676" lon="10.414790905264278"><ele>441.0</ele><time>2026-04-19T09:51:23Z</time></trkpt><trkpt lat="44.47679189627348" lon="10.414693179293645"><ele>441.0</ele><time>2026-04-19T09:51:24Z</time></trkpt><trkpt lat="44.47686422360003" lon="10.414643238943357"><ele>441.0</ele><time>2026-04-19T09:51:25Z</time></trkpt><trkpt lat="44.47695150062685" lon="10.41460851904406"><ele>441.0</ele><time>2026-04-19T09:51:26Z</time></trkpt><trkpt lat="44.47708997767016" lon="10.414555150269798"><ele>448.66666666666663</ele><time>2026-04-19T09:51:27Z</time></trkpt><trkpt lat="44.477260532445996" lon="10.41451698669075"><ele>456.3333333333333</ele><time>2026-04-19T09:51:28Z</time></trkpt><trkpt lat="44.47742558260467" lon="10.41452559140256"><ele>464.0</ele><time>2026-04-19T09:51:29Z</time></trkpt><trkpt lat="44.47757336923287" lon="10.414555711663786"><ele>463.99999999999994</ele><time>2026-04-19T09:51:30Z</time></trkpt><trkpt lat="44.477680768985" lon="10.414607293306819"><ele>464.0</ele><time>2026-04-19T09:51:31Z</time></trkpt><trkpt lat="44.477757749475515" lon="10.414620688772098"><ele>464.0</ele><time>2026-04-19T09:51:32Z</time></trkpt><trkpt lat="44.47781871853373" lon="10.41453598934166"><ele>464.0</ele><time>2026-04-19T09:51:35Z</time></trkpt><trkpt lat="44.47785947872286" lon="10.414422221661065"><ele>463.99999999999994</ele><time>2026-04-19T09:51:39Z</time></trkpt><trkpt lat="44.47789851879905" lon="10.414332672879079"><ele>464.0</ele><time>2026-04-19T09:51:40Z</time></trkpt><trkpt lat="44.47796000647348" lon="10.414219999731234"><ele>458.6</ele><time>2026-04-19T09:51:41Z</time></trkpt><trkpt lat="44.478007824455396" lon="10.4141121032033"><ele>453.2</ele><time>2026-04-19T09:51:42Z</time></trkpt><trkpt lat="44.47805598673812" lon="10.414022639772366"><ele>447.80000000000007</ele><time>2026-04-19T09:51:43Z</time></trkpt><trkpt lat="44.47819600438777" lon="10.41409777468065"><ele>442.40000000000003</ele><time>2026-04-19T09:51:45Z</time></trkpt><trkpt lat="44.47822966300462" lon="10.41425058602717"><ele>437.0</ele><time>2026-04-19T09:51:46Z</time></trkpt><trkpt lat="44.47825792781263" lon="10.41439735186588"><ele>437.0</ele><time>2026-04-19T09:51:47Z</time></trkpt><trkpt lat="44.478292530003436" lon="10.414546227343163"><ele>437.00000000000006</ele><time>2026-04-19T09:51:48Z</time></trkpt><trkpt lat="44.478324581839075" lon="10.414674860469043"><ele>437.00000000000006</ele><time>2026-04-19T09:51:49Z</time></trkpt><trkpt lat="44.478365043010946" lon="10.414808899281049"><ele>437.0</ele><time>2026-04-19T09:51:50Z</time></trkpt><trkpt lat="44.478405767765636" lon="10.414922245370484"><ele>437.0</ele><time>2026-04-19T09:51:51Z</time></trkpt><trkpt lat="44.47845298004491" lon="10.414997239818796"><ele>435.99999999999994</ele><time>2026-04-19T09:51:52Z</time></trkpt><trkpt lat="44.47853112095377" lon="10.415024913983101"><ele>435.0</ele><time>2026-04-19T09:51:53Z</time></trkpt><trkpt lat="44.4786147447964" lon="10.414990230174299"><ele>434.0</ele><time>2026-04-19T09:51:54Z</time></trkpt><trkpt lat="44.47867960088244" lon="10.414927584725664"><ele>433.0</ele><time>2026-04-19T09:51:55Z</time></trkpt><trkpt lat="44.47872982473036" lon="10.414866777452122"><ele>431.99999999999994</ele><time>2026-04-19T09:51:56Z</time></trkpt><trkpt lat="44.47876579238161" lon="10.414789733015429"><ele>431.0</ele><time>2026-04-19T09:51:57Z</time></trkpt><trkpt lat="44.47877656853782" lon="10.414611241893807"><ele>430.3333333333333</ele><time>2026-04-19T09:51:59Z</time></trkpt><trkpt lat="44.47876922474317" lon="10.414506913778743"><ele>429.66666666666663</ele><time>2026-04-19T09:52:00Z</time></trkpt><trkpt lat="44.47876015706528" lon="10.414411514079836"><ele>429.0</ele><time>2026-04-19T09:52:01Z</time></trkpt><trkpt lat="44.47875560736387" lon="10.414312422021291"><ele>428.33333333333337</ele><time>2026-04-19T09:52:02Z</time></trkpt><trkpt lat="44.47871260870503" lon="10.414170140251924"><ele>427.6666666666667</ele><time>2026-04-19T09:52:04Z</time></trkpt><trkpt lat="44.47867527020219" lon="10.41407563779212"><ele>427.0</ele><time>2026-04-19T09:52:05Z</time></trkpt><trkpt lat="44.47862398999949" lon="10.413951884250055"><ele>428.6666666666667</ele><time>2026-04-19T09:52:07Z</time></trkpt><trkpt lat="44.478592843242005" lon="10.41385368841534"><ele>430.33333333333337</ele><time>2026-04-19T09:52:10Z</time></trkpt><trkpt lat="44.478574157169525" lon="10.41372180688469"><ele>432.0</ele><time>2026-04-19T09:52:14Z</time></trkpt><trkpt lat="44.478588092076464" lon="10.413587636129176"><ele>433.66666666666663</ele><time>2026-04-19T09:52:16Z</time></trkpt><trkpt lat="44.47865709283866" lon="10.413530916670634"><ele>435.3333333333333</ele><time>2026-04-19T09:52:18Z</time></trkpt><trkpt lat="44.47870427071949" lon="10.413631509406045"><ele>437.0</ele><time>2026-04-19T09:52:20Z</time></trkpt><trkpt lat="44.47876721631796" lon="10.413708926943977"><ele>435.3333333333333</ele><time>2026-04-19T09:52:22Z</time></trkpt><trkpt lat="44.47883207954922" lon="10.413766068897921"><ele>433.66666666666663</ele><time>2026-04-19T09:52:23Z</time></trkpt><trkpt lat="44.478899821979546" lon="10.413805292304195"><ele>432.0</ele><time>2026-04-19T09:52:24Z</time></trkpt><trkpt lat="44.47897487694255" lon="10.413853718864367"><ele>430.33333333333337</ele><time>2026-04-19T09:52:25Z</time></trkpt><trkpt lat="44.47906119022037" lon="10.413872238325672"><ele>428.6666666666667</ele><time>2026-04-19T09:52:26Z</time></trkpt><trkpt lat="44.479136903054425" lon="10.413870746014299"><ele>427.0</ele><time>2026-04-19T09:52:27Z</time></trkpt><trkpt lat="44.479247497091166" lon="10.413854011567087"><ele>426.75</ele><time>2026-04-19T09:52:28Z</time></trkpt><trkpt lat="44.47936052701216" lon="10.413785959107722"><ele>426.5</ele><time>2026-04-19T09:52:29Z</time></trkpt><trkpt lat="44.479480017979334" lon="10.413729488005643"><ele>426.25</ele><time>2026-04-19T09:52:30Z</time></trkpt><trkpt lat="44.47960706839896" lon="10.413704941951679"><ele>426.0</ele><time>2026-04-19T09:52:31Z</time></trkpt><trkpt lat="44.47973578199032" lon="10.413662731963631"><ele>426.6</ele><time>2026-04-19T09:52:32Z</time></trkpt><trkpt lat="44.4798739523618" lon="10.4136058169725"><ele>427.20000000000005</ele><time>2026-04-19T09:52:33Z</time></trkpt><trkpt lat="44.47999550593436" lon="10.41355034214428"><ele>427.79999999999995</ele><time>2026-04-19T09:52:34Z</time></trkpt><trkpt lat="44.480090418522806" lon="10.413504130905293"><ele>428.4</ele><time>2026-04-19T09:52:35Z</time></trkpt><trkpt lat="44.480157554836964" lon="10.41348560516011"><ele>429.0</ele><time>2026-04-19T09:52:36Z</time></trkpt><trkpt lat="44.48025583452349" lon="10.413508519004127"><ele>429.0</ele><time>2026-04-19T09:52:38Z</time></trkpt><trkpt lat="44.480332320235604" lon="10.41351156716303"><ele>429.0</ele><time>2026-04-19T09:52:39Z</time></trkpt><trkpt lat="44.48040854007392" lon="10.413494333265234"><ele>429.0</ele><time>2026-04-19T09:52:40Z</time></trkpt><trkpt lat="44.48051004375936" lon="10.413438158207299"><ele>429.0</ele><time>2026-04-19T09:52:41Z</time></trkpt><trkpt lat="44.480591970489286" lon="10.413457575537482"><ele>429.0</ele><time>2026-04-19T09:52:42Z</time></trkpt><trkpt lat="44.48067951853862" lon="10.413481407948463"><ele>429.0</ele><time>2026-04-19T09:52:43Z</time></trkpt><trkpt lat="44.48076075007478" lon="10.413504088091644"><ele>427.2</ele><time>2026-04-19T09:52:44Z</time></trkpt><trkpt lat="44.480845862193064" lon="10.413509490134532"><ele>425.4</ele><time>2026-04-19T09:52:45Z</time></trkpt><trkpt lat="44.48091082585905" lon="10.413445596386435"><ele>423.6</ele><time>2026-04-19T09:52:46Z</time></trkpt><trkpt lat="44.48094609189685" lon="10.413315244131201"><ele>421.8</ele><time>2026-04-19T09:52:47Z</time></trkpt><trkpt lat="44.48094525538677" lon="10.413160575567971"><ele>420.0</ele><time>2026-04-19T09:52:48Z</time></trkpt><trkpt lat="44.48098381930005" lon="10.413030907748965"><ele>420.8</ele><time>2026-04-19T09:52:49Z</time></trkpt><trkpt lat="44.48103679019101" lon="10.412914097334445"><ele>421.6</ele><time>2026-04-19T09:52:50Z</time></trkpt><trkpt lat="44.481113687372954" lon="10.412859869345047"><ele>422.4</ele><time>2026-04-19T09:52:51Z</time></trkpt><trkpt lat="44.481207791518294" lon="10.412811711377636"><ele>423.2</ele><time>2026-04-19T09:52:52Z</time></trkpt><trkpt lat="44.48129929949372" lon="10.412751677416875"><ele>424.0</ele><time>2026-04-19T09:52:53Z</time></trkpt><trkpt lat="44.481381474198585" lon="10.412683532121049"><ele>423.00000000000006</ele><time>2026-04-19T09:52:54Z</time></trkpt><trkpt lat="44.481466083288275" lon="10.412618545519209"><ele>422.0</ele><time>2026-04-19T09:52:55Z</time></trkpt><trkpt lat="44.48154833367321" lon="10.4125541657529"><ele>421.0</ele><time>2026-04-19T09:52:56Z</time></trkpt><trkpt lat="44.4816117633297" lon="10.412497686039487"><ele>420.0</ele><time>2026-04-19T09:52:57Z</time></trkpt><trkpt lat="44.48164843439825" lon="10.412365126141912"><ele>419.00000000000006</ele><time>2026-04-19T09:52:59Z</time></trkpt><trkpt lat="44.48165332421469" lon="10.412250330179774"><ele>418.0</ele><time>2026-04-19T09:53:01Z</time></trkpt><trkpt lat="44.48164580596967" lon="10.412152576153945"><ele>418.00000000000006</ele><time>2026-04-19T09:53:03Z</time></trkpt><trkpt lat="44.48163683279059" lon="10.412053325239135"><ele>418.0</ele><time>2026-04-19T09:53:05Z</time></trkpt><trkpt lat="44.48167913133615" lon="10.411915724511958"><ele>418.0</ele><time>2026-04-19T09:53:07Z</time></trkpt><trkpt lat="44.481735844841445" lon="10.411811665352456"><ele>418.0</ele><time>2026-04-19T09:53:09Z</time></trkpt><trkpt lat="44.4817999749456" lon="10.411739190966955"><ele>418.00000000000006</ele><time>2026-04-19T09:53:11Z</time></trkpt><trkpt lat="44.48184533047084" lon="10.411675548868065"><ele>418.0</ele><time>2026-04-19T09:53:12Z</time></trkpt><trkpt lat="44.48191123024115" lon="10.411623332239895"><ele>418.00000000000006</ele><time>2026-04-19T09:53:13Z</time></trkpt><trkpt lat="44.4819904444375" lon="10.411583552175635"><ele>418.0</ele><time>2026-04-19T09:53:14Z</time></trkpt><trkpt lat="44.482063747869184" lon="10.411544381217517"><ele>418.0</ele><time>2026-04-19T09:53:15Z</time></trkpt><trkpt lat="44.48213456642037" lon="10.41152774383139"><ele>418.0</ele><time>2026-04-19T09:53:16Z</time></trkpt><trkpt lat="44.482209053890095" lon="10.411552340393325"><ele>418.00000000000006</ele><time>2026-04-19T09:53:17Z</time></trkpt><trkpt lat="44.48229418792017" lon="10.411639185304772"><ele>418.0</ele><time>2026-04-19T09:53:18Z</time></trkpt><trkpt lat="44.48240504600787" lon="10.411784901656633"><ele>416.2</ele><time>2026-04-19T09:53:19Z</time></trkpt><trkpt lat="44.48248219476504" lon="10.411846543524733"><ele>414.4</ele><time>2026-04-19T09:53:20Z</time></trkpt><trkpt lat="44.48256564422396" lon="10.411756288045341"><ele>412.59999999999997</ele><time>2026-04-19T09:53:22Z</time></trkpt><trkpt lat="44.48262829264097" lon="10.411702850234194"><ele>410.79999999999995</ele><time>2026-04-19T09:53:25Z</time></trkpt><trkpt lat="44.482697287414936" lon="10.411719411767228"><ele>409.0</ele><time>2026-04-19T09:53:28Z</time></trkpt><trkpt lat="44.48282008201367" lon="10.411753453825852"><ele>407.75</ele><time>2026-04-19T09:53:32Z</time></trkpt><trkpt lat="44.48293847818831" lon="10.41177068016026"><ele>406.5</ele><time>2026-04-19T09:54:08Z</time></trkpt><trkpt lat="44.482968069755024" lon="10.4118801992686"><ele>405.25</ele><time>2026-04-19T09:54:10Z</time></trkpt><trkpt lat="44.4830618577823" lon="10.412088975990983"><ele>404.0</ele><time>2026-04-19T09:54:12Z</time></trkpt><trkpt lat="44.4831467676083" lon="10.412227657555052"><ele>403.16666666666663</ele><time>2026-04-19T09:54:13Z</time></trkpt><trkpt lat="44.48322642966552" lon="10.412337569518805"><ele>402.3333333333333</ele><time>2026-04-19T09:54:14Z</time></trkpt><trkpt lat="44.48328558994856" lon="10.412428446597437"><ele>401.5</ele><time>2026-04-19T09:54:15Z</time></trkpt><trkpt lat="44.48334416162611" lon="10.412506314027903"><ele>400.66666666666663</ele><time>2026-04-19T09:54:16Z</time></trkpt><trkpt lat="44.48340261438854" lon="10.412544907815116"><ele>399.8333333333333</ele><time>2026-04-19T09:54:17Z</time></trkpt><trkpt lat="44.483488330503114" lon="10.412547711031355"><ele>399.0</ele><time>2026-04-19T09:54:18Z</time></trkpt><trkpt lat="44.48357089465255" lon="10.4125261084969"><ele>399.0</ele><time>2026-04-19T09:54:19Z</time></trkpt><trkpt lat="44.48367069576106" lon="10.412517224604365"><ele>399.0</ele><time>2026-04-19T09:54:20Z</time></trkpt><trkpt lat="44.48376448165484" lon="10.412500677549824"><ele>399.0</ele><time>2026-04-19T09:54:21Z</time></trkpt><trkpt lat="44.48384872880171" lon="10.412469926524532"><ele>399.0</ele><time>2026-04-19T09:54:22Z</time></trkpt><trkpt lat="44.483917618775045" lon="10.412424210021005"><ele>399.0</ele><time>2026-04-19T09:54:23Z</time></trkpt><trkpt lat="44.48397873841672" lon="10.412368177314649"><ele>399.0</ele><time>2026-04-19T09:54:24Z</time></trkpt><trkpt lat="44.484053571512895" lon="10.41228343792831"><ele>399.0</ele><time>2026-04-19T09:54:26Z</time></trkpt><trkpt lat="44.48410645923453" lon="10.412200763088967"><ele>399.0</ele><time>2026-04-19T09:54:28Z</time></trkpt><trkpt lat="44.48415863959551" lon="10.412140067187565"><ele>399.0</ele><time>2026-04-19T09:54:29Z</time></trkpt><trkpt lat="44.48422153084882" lon="10.412043293140187"><ele>399.0</ele><time>2026-04-19T09:54:30Z</time></trkpt><trkpt lat="44.48429358105109" lon="10.411926085429789"><ele>399.0</ele><time>2026-04-19T09:54:31Z</time></trkpt><trkpt lat="44.4843713706683" lon="10.411816930129026"><ele>399.0</ele><time>2026-04-19T09:54:32Z</time></trkpt><trkpt lat="44.48445980258867" lon="10.411717968560712"><ele>399.0</ele><time>2026-04-19T09:54:33Z</time></trkpt><trkpt lat="44.48456485930198" lon="10.411621894641694"><ele>399.0</ele><time>2026-04-19T09:54:34Z</time></trkpt><trkpt lat="44.48468146376296" lon="10.411540886322738"><ele>399.0</ele><time>2026-04-19T09:54:35Z</time></trkpt><trkpt lat="44.48476794180858" lon="10.411518335272385"><ele>398.6</ele><time>2026-04-19T09:54:36Z</time></trkpt><trkpt lat="44.48484597738236" lon="10.411555652516295"><ele>398.2</ele><time>2026-04-19T09:54:37Z</time></trkpt><trkpt lat="44.48491180387665" lon="10.4116617995924"><ele>397.8</ele><time>2026-04-19T09:54:38Z</time></trkpt><trkpt lat="44.485006544358434" lon="10.411745213279556"><ele>397.40000000000003</ele><time>2026-04-19T09:54:39Z</time></trkpt><trkpt lat="44.485079760969654" lon="10.411796758698923"><ele>397.0</ele><time>2026-04-19T09:54:40Z</time></trkpt><trkpt lat="44.48513353398206" lon="10.411877304467826"><ele>397.00000000000006</ele><time>2026-04-19T09:54:41Z</time></trkpt><trkpt lat="44.48516899277859" lon="10.41196906888751"><ele>397.0</ele><time>2026-04-19T09:54:42Z</time></trkpt><trkpt lat="44.48518777225726" lon="10.412071077081306"><ele>397.0</ele><time>2026-04-19T09:54:43Z</time></trkpt><trkpt lat="44.485220954569115" lon="10.412166342559475"><ele>397.0</ele><time>2026-04-19T09:54:44Z</time></trkpt><trkpt lat="44.485330641721674" lon="10.41226103418209"><ele>397.00000000000006</ele><time>2026-04-19T09:54:46Z</time></trkpt><trkpt lat="44.485420867356794" lon="10.412278441488588"><ele>397.0</ele><time>2026-04-19T09:54:47Z</time></trkpt><trkpt lat="44.48554192464712" lon="10.412317267208339"><ele>396.6</ele><time>2026-04-19T09:54:48Z</time></trkpt><trkpt lat="44.48566732649923" lon="10.4123875204709"><ele>396.20000000000005</ele><time>2026-04-19T09:54:49Z</time></trkpt><trkpt lat="44.48576686600439" lon="10.412461120242021"><ele>395.8</ele><time>2026-04-19T09:54:50Z</time></trkpt><trkpt lat="44.485844713900995" lon="10.412551005027323"><ele>395.4</ele><time>2026-04-19T09:54:51Z</time></trkpt><trkpt lat="44.48591355814515" lon="10.412648203257849"><ele>395.0</ele><time>2026-04-19T09:54:52Z</time></trkpt><trkpt lat="44.48597747797863" lon="10.41277543371585"><ele>395.0</ele><time>2026-04-19T09:54:53Z</time></trkpt><trkpt lat="44.48605264810917" lon="10.412897094060387"><ele>395.0</ele><time>2026-04-19T09:54:54Z</time></trkpt><trkpt lat="44.48613643676029" lon="10.412983744421794"><ele>395.0</ele><time>2026-04-19T09:54:55Z</time></trkpt><trkpt lat="44.48621912003241" lon="10.413016226426507"><ele>395.0</ele><time>2026-04-19T09:54:56Z</time></trkpt><trkpt lat="44.48630862668277" lon="10.413016425723482"><ele>395.0</ele><time>2026-04-19T09:54:57Z</time></trkpt><trkpt lat="44.48641560551686" lon="10.412999546994163"><ele>395.2</ele><time>2026-04-19T09:54:58Z</time></trkpt><trkpt lat="44.486521511653535" lon="10.41298524727679"><ele>395.4</ele><time>2026-04-19T09:54:59Z</time></trkpt><trkpt lat="44.48660970342104" lon="10.413007628966215"><ele>395.6</ele><time>2026-04-19T09:55:00Z</time></trkpt><trkpt lat="44.48668320566874" lon="10.413038302805017"><ele>395.8</ele><time>2026-04-19T09:55:01Z</time></trkpt><trkpt lat="44.48677299799931" lon="10.413054415593212"><ele>396.0</ele><time>2026-04-19T09:55:03Z</time></trkpt><trkpt lat="44.486878046711816" lon="10.413085281422381"><ele>395.33333333333337</ele><time>2026-04-19T09:55:07Z</time></trkpt><trkpt lat="44.486960706578294" lon="10.413106805864201"><ele>394.6666666666667</ele><time>2026-04-19T09:55:09Z</time></trkpt><trkpt lat="44.487233164985405" lon="10.412957738681275"><ele>394.0</ele><time>2026-04-19T09:55:10Z</time></trkpt><trkpt lat="44.48730687961192" lon="10.412997401622876"><ele>394.0</ele><time>2026-04-19T09:55:11Z</time></trkpt><trkpt lat="44.4874083096855" lon="10.413062069861368"><ele>394.0</ele><time>2026-04-19T09:55:12Z</time></trkpt><trkpt lat="44.487529808103716" lon="10.413159549747261"><ele>394.0</ele><time>2026-04-19T09:55:13Z</time></trkpt><trkpt lat="44.487619644805555" lon="10.413255678780002"><ele>394.0</ele><time>2026-04-19T09:55:14Z</time></trkpt><trkpt lat="44.48768990329765" lon="10.413359147043987"><ele>394.0</ele><time>2026-04-19T09:55:15Z</time></trkpt><trkpt lat="44.48771069752094" lon="10.413495826864759"><ele>394.0</ele><time>2026-04-19T09:55:17Z</time></trkpt><trkpt lat="44.48777994930294" lon="10.413614449374146"><ele>394.0</ele><time>2026-04-19T09:55:19Z</time></trkpt><trkpt lat="44.487869262029974" lon="10.413661996014383"><ele>394.0</ele><time>2026-04-19T09:55:32Z</time></trkpt><trkpt lat="44.48793510982146" lon="10.413764817886648"><ele>394.0</ele><time>2026-04-19T09:55:34Z</time></trkpt><trkpt lat="44.48800339263212" lon="10.41387770734054"><ele>392.79999999999995</ele><time>2026-04-19T09:55:36Z</time></trkpt><trkpt lat="44.48808361185214" lon="10.41393903837035"><ele>391.59999999999997</ele><time>2026-04-19T09:55:37Z</time></trkpt><trkpt lat="44.48821320996496" lon="10.414002833346723"><ele>390.4</ele><time>2026-04-19T09:55:38Z</time></trkpt><trkpt lat="44.48832590920186" lon="10.414047058674518"><ele>389.2</ele><time>2026-04-19T09:55:39Z</time></trkpt><trkpt lat="44.48839155495177" lon="10.414097489402542"><ele>388.0</ele><time>2026-04-19T09:55:40Z</time></trkpt><trkpt lat="44.48848534105143" lon="10.414189120853369"><ele>388.00000000000006</ele><time>2026-04-19T09:55:42Z</time></trkpt><trkpt lat="44.48856832695168" lon="10.414258358677726"><ele>388.0</ele><time>2026-04-19T09:55:43Z</time></trkpt><trkpt lat="44.488656564626645" lon="10.414340117566516"><ele>388.0</ele><time>2026-04-19T09:55:44Z</time></trkpt><trkpt lat="44.48872396462153" lon="10.414412184759023"><ele>388.0</ele><time>2026-04-19T09:55:45Z</time></trkpt><trkpt lat="44.488785572637155" lon="10.414484233166322"><ele>388.00000000000006</ele><time>2026-04-19T09:55:46Z</time></trkpt><trkpt lat="44.488834136281014" lon="10.414552532485407"><ele>388.0</ele><time>2026-04-19T09:55:47Z</time></trkpt><trkpt lat="44.48888171135194" lon="10.414639615916315"><ele>387.5</ele><time>2026-04-19T09:55:48Z</time></trkpt><trkpt lat="44.48894578331808" lon="10.414755062737518"><ele>387.0</ele><time>2026-04-19T09:55:49Z</time></trkpt><trkpt lat="44.48900943616128" lon="10.41489347416657"><ele>386.5</ele><time>2026-04-19T09:55:50Z</time></trkpt><trkpt lat="44.48908438750624" lon="10.415110050300312"><ele>386.0</ele><time>2026-04-19T09:55:51Z</time></trkpt><trkpt lat="44.48914921388521" lon="10.41528688539573"><ele>386.0</ele><time>2026-04-19T09:55:52Z</time></trkpt><trkpt lat="44.4891992709957" lon="10.415412486637061"><ele>386.0</ele><time>2026-04-19T09:55:53Z</time></trkpt><trkpt lat="44.489238593204135" lon="10.41549165790733"><ele>386.0</ele><time>2026-04-19T09:55:54Z</time></trkpt><trkpt lat="44.48930578527039" lon="10.415578657650386"><ele>386.0</ele><time>2026-04-19T09:55:56Z</time></trkpt><trkpt lat="44.48939744158306" lon="10.415597687511543"><ele>386.0</ele><time>2026-04-19T09:55:59Z</time></trkpt><trkpt lat="44.489498994664565" lon="10.415641348954738"><ele>386.0</ele><time>2026-04-19T09:56:01Z</time></trkpt><trkpt lat="44.48956311058031" lon="10.415718739496032"><ele>386.0</ele><time>2026-04-19T09:56:02Z</time></trkpt><trkpt lat="44.48962873547447" lon="10.415865167627052"><ele>386.0</ele><time>2026-04-19T09:56:03Z</time></trkpt><trkpt lat="44.48970856224086" lon="10.416072853587119"><ele>386.0</ele><time>2026-04-19T09:56:04Z</time></trkpt><trkpt lat="44.489821072158136" lon="10.416287147747546"><ele>385.8</ele><time>2026-04-19T09:56:05Z</time></trkpt><trkpt lat="44.48992138387453" lon="10.41644516785251"><ele>385.6</ele><time>2026-04-19T09:56:06Z</time></trkpt><trkpt lat="44.48999308651246" lon="10.41654259090723"><ele>385.4</ele><time>2026-04-19T09:56:07Z</time></trkpt><trkpt lat="44.49004578725073" lon="10.416607076753538"><ele>385.2</ele><time>2026-04-19T09:56:08Z</time></trkpt><trkpt lat="44.49006845702274" lon="10.41669844842737"><ele>385.0</ele><time>2026-04-19T09:56:10Z</time></trkpt><trkpt lat="44.49010635279396" lon="10.416782106859557"><ele>385.0</ele><time>2026-04-19T09:56:12Z</time></trkpt><trkpt lat="44.4901403081954" lon="10.416864505139218"><ele>385.0</ele><time>2026-04-19T09:56:13Z</time></trkpt><trkpt lat="44.490207276631814" lon="10.417010845636613"><ele>385.0</ele><time>2026-04-19T09:56:14Z</time></trkpt><trkpt lat="44.49032359632475" lon="10.417163523266392"><ele>385.0</ele><time>2026-04-19T09:56:15Z</time></trkpt><trkpt lat="44.49043316749354" lon="10.417307378484264"><ele>383.5</ele><time>2026-04-19T09:56:16Z</time></trkpt><trkpt lat="44.49049124301111" lon="10.417421803033934"><ele>382.0</ele><time>2026-04-19T09:56:17Z</time></trkpt><trkpt lat="44.490535998057226" lon="10.41756672791274"><ele>380.5</ele><time>2026-04-19T09:56:18Z</time></trkpt><trkpt lat="44.49059851773835" lon="10.417744994567146"><ele>379.0</ele><time>2026-04-19T09:56:19Z</time></trkpt><trkpt lat="44.49065202942515" lon="10.41790961817499"><ele>378.75</ele><time>2026-04-19T09:56:20Z</time></trkpt><trkpt lat="44.4907042933788" lon="10.418103292711589"><ele>378.5</ele><time>2026-04-19T09:56:21Z</time></trkpt><trkpt lat="44.49074613352182" lon="10.418286217358608"><ele>378.25</ele><time>2026-04-19T09:56:22Z</time></trkpt><trkpt lat="44.49078106106767" lon="10.418441844606432"><ele>378.0</ele><time>2026-04-19T09:56:23Z</time></trkpt><trkpt lat="44.49081273047362" lon="10.41858177810315"><ele>378.0</ele><time>2026-04-19T09:56:24Z</time></trkpt><trkpt lat="44.49083249020141" lon="10.418717947477834"><ele>378.0</ele><time>2026-04-19T09:56:25Z</time></trkpt><trkpt lat="44.49083315709423" lon="10.418838332748944"><ele>378.0</ele><time>2026-04-19T09:56:26Z</time></trkpt><trkpt lat="44.490832924006284" lon="10.418934922241215"><ele>378.0</ele><time>2026-04-19T09:56:27Z</time></trkpt><trkpt lat="44.490893035874116" lon="10.419040730375606"><ele>378.0</ele><time>2026-04-19T09:56:29Z</time></trkpt><trkpt lat="44.4909392845391" lon="10.41910189423057"><ele>378.0</ele><time>2026-04-19T09:56:31Z</time></trkpt><trkpt lat="44.49097318798357" lon="10.419184918841829"><ele>377.75</ele><time>2026-04-19T09:56:33Z</time></trkpt><trkpt lat="44.49101882202564" lon="10.419330473219992"><ele>377.5</ele><time>2026-04-19T09:56:34Z</time></trkpt><trkpt lat="44.49108381423913" lon="10.419533521919373"><ele>377.25</ele><time>2026-04-19T09:56:35Z</time></trkpt><trkpt lat="44.4911512391166" lon="10.419718617867726"><ele>377.0</ele><time>2026-04-19T09:56:36Z</time></trkpt><trkpt lat="44.49122001658304" lon="10.419847730015576"><ele>377.0</ele><time>2026-04-19T09:56:37Z</time></trkpt><trkpt lat="44.491292135811506" lon="10.419953270071224"><ele>377.0</ele><time>2026-04-19T09:56:38Z</time></trkpt><trkpt lat="44.49136842454521" lon="10.42003932121549"><ele>377.0</ele><time>2026-04-19T09:56:39Z</time></trkpt><trkpt lat="44.4914457559318" lon="10.42011091148083"><ele>377.0</ele><time>2026-04-19T09:56:40Z</time></trkpt><trkpt lat="44.49152515743681" lon="10.420171547403772"><ele>377.0</ele><time>2026-04-19T09:56:41Z</time></trkpt><trkpt lat="44.491593285301974" lon="10.420232852251143"><ele>377.0</ele><time>2026-04-19T09:56:42Z</time></trkpt><trkpt lat="44.49165218034752" lon="10.420301328452943"><ele>377.0</ele><time>2026-04-19T09:56:43Z</time></trkpt><trkpt lat="44.49169592253312" lon="10.420368691049882"><ele>377.0</ele><time>2026-04-19T09:56:44Z</time></trkpt><trkpt lat="44.49173936597896" lon="10.420448726817177"><ele>377.0</ele><time>2026-04-19T09:56:45Z</time></trkpt><trkpt lat="44.49178568994944" lon="10.420548694462074"><ele>377.0</ele><time>2026-04-19T09:56:46Z</time></trkpt><trkpt lat="44.49185199037189" lon="10.420636206003222"><ele>377.0</ele><time>2026-04-19T09:56:47Z</time></trkpt><trkpt lat="44.49193256940956" lon="10.42071555518442"><ele>377.6</ele><time>2026-04-19T09:56:48Z</time></trkpt><trkpt lat="44.4920291203632" lon="10.420771064509589"><ele>378.20000000000005</ele><time>2026-04-19T09:56:49Z</time></trkpt><trkpt lat="44.49212368460635" lon="10.420832410672801"><ele>378.8</ele><time>2026-04-19T09:56:50Z</time></trkpt><trkpt lat="44.492222226881914" lon="10.420889408318573"><ele>379.4</ele><time>2026-04-19T09:56:51Z</time></trkpt><trkpt lat="44.492316244658376" lon="10.420909286716316"><ele>380.0</ele><time>2026-04-19T09:56:52Z</time></trkpt><trkpt lat="44.49240647433363" lon="10.420941948721287"><ele>378.6666666666667</ele><time>2026-04-19T09:56:53Z</time></trkpt><trkpt lat="44.492503961985" lon="10.420971171678973"><ele>377.33333333333337</ele><time>2026-04-19T09:56:54Z</time></trkpt><trkpt lat="44.49259733670436" lon="10.421001099339458"><ele>376.0</ele><time>2026-04-19T09:56:55Z</time></trkpt><trkpt lat="44.49268396127607" lon="10.421033722126195"><ele>374.6666666666667</ele><time>2026-04-19T09:56:56Z</time></trkpt><trkpt lat="44.49276526792996" lon="10.421059422411163"><ele>373.3333333333333</ele><time>2026-04-19T09:56:57Z</time></trkpt><trkpt lat="44.49284330795555" lon="10.421077099938383"><ele>372.0</ele><time>2026-04-19T09:56:58Z</time></trkpt><trkpt lat="44.49292052876638" lon="10.421094854559843"><ele>372.0</ele><time>2026-04-19T09:56:59Z</time></trkpt><trkpt lat="44.49298986859037" lon="10.421099791133482"><ele>372.0</ele><time>2026-04-19T09:57:00Z</time></trkpt><trkpt lat="44.49305386594714" lon="10.421109268919576"><ele>372.0</ele><time>2026-04-19T09:57:01Z</time></trkpt><trkpt lat="44.4931738980387" lon="10.421152226947084"><ele>372.0</ele><time>2026-04-19T09:57:03Z</time></trkpt><trkpt lat="44.4932624761652" lon="10.421178350056202"><ele>372.0</ele><time>2026-04-19T09:57:06Z</time></trkpt><trkpt lat="44.49341565409274" lon="10.421209426262317"><ele>372.0</ele><time>2026-04-19T09:57:08Z</time></trkpt><trkpt lat="44.49350227424225" lon="10.421217980433862"><ele>372.0</ele><time>2026-04-19T09:57:09Z</time></trkpt><trkpt lat="44.493587308598535" lon="10.421212999730129"><ele>372.0</ele><time>2026-04-19T09:57:10Z</time></trkpt><trkpt lat="44.49369299191694" lon="10.421199431089024"><ele>372.0</ele><time>2026-04-19T09:57:11Z</time></trkpt><trkpt lat="44.49381652923472" lon="10.42117405742664"><ele>372.0</ele><time>2026-04-19T09:57:12Z</time></trkpt><trkpt lat="44.49396665732556" lon="10.421127466752475"><ele>372.0</ele><time>2026-04-19T09:57:13Z</time></trkpt><trkpt lat="44.494114988047514" lon="10.421070869583994"><ele>372.0</ele><time>2026-04-19T09:57:14Z</time></trkpt><trkpt lat="44.494243852443525" lon="10.421036652675424"><ele>372.0</ele><time>2026-04-19T09:57:15Z</time></trkpt><trkpt lat="44.49436214170596" lon="10.421037215430394"><ele>372.0</ele><time>2026-04-19T09:57:16Z</time></trkpt><trkpt lat="44.49447651731426" lon="10.421046707574328"><ele>372.0</ele><time>2026-04-19T09:57:17Z</time></trkpt><trkpt lat="44.494585733555155" lon="10.42106111981857"><ele>372.0</ele><time>2026-04-19T09:57:18Z</time></trkpt><trkpt lat="44.49468778581427" lon="10.421081482099446"><ele>372.0</ele><time>2026-04-19T09:57:19Z</time></trkpt><trkpt lat="44.49481066625732" lon="10.421102077122962"><ele>372.0</ele><time>2026-04-19T09:57:20Z</time></trkpt><trkpt lat="44.49494025698894" lon="10.421113456146296"><ele>371.5</ele><time>2026-04-19T09:57:21Z</time></trkpt><trkpt lat="44.49508351919562" lon="10.421126333712118"><ele>371.0</ele><time>2026-04-19T09:57:22Z</time></trkpt><trkpt lat="44.49523701901446" lon="10.421100450296013"><ele>370.5</ele><time>2026-04-19T09:57:23Z</time></trkpt><trkpt lat="44.49538366174464" lon="10.421077335349102"><ele>370.0</ele><time>2026-04-19T09:57:24Z</time></trkpt><trkpt lat="44.49551500536608" lon="10.421038807999473"><ele>369.0</ele><time>2026-04-19T09:57:25Z</time></trkpt><trkpt lat="44.49564024832269" lon="10.420994874312074"><ele>368.0</ele><time>2026-04-19T09:57:26Z</time></trkpt><trkpt lat="44.49577447466402" lon="10.42093570071722"><ele>367.0</ele><time>2026-04-19T09:57:27Z</time></trkpt><trkpt lat="44.49592058328285" lon="10.420836949856497"><ele>366.0</ele><time>2026-04-19T09:57:28Z</time></trkpt><trkpt lat="44.49603873489798" lon="10.42076129133065"><ele>366.0</ele><time>2026-04-19T09:57:29Z</time></trkpt><trkpt lat="44.49614558381111" lon="10.420679770823362"><ele>366.0</ele><time>2026-04-19T09:57:30Z</time></trkpt><trkpt lat="44.496215646204355" lon="10.4205941201975"><ele>366.0</ele><time>2026-04-19T09:57:31Z</time></trkpt><trkpt lat="44.49627474756472" lon="10.420479230654829"><ele>366.0</ele><time>2026-04-19T09:57:32Z</time></trkpt><trkpt lat="44.4963317229595" lon="10.420327049757123"><ele>366.0</ele><time>2026-04-19T09:57:33Z</time></trkpt><trkpt lat="44.49640691629565" lon="10.420165823680172"><ele>366.0</ele><time>2026-04-19T09:57:34Z</time></trkpt><trkpt lat="44.496479891798145" lon="10.42000951332941"><ele>366.0</ele><time>2026-04-19T09:57:35Z</time></trkpt><trkpt lat="44.49652287060374" lon="10.419854829917835"><ele>366.0</ele><time>2026-04-19T09:57:36Z</time></trkpt><trkpt lat="44.49654017952887" lon="10.419715833024629"><ele>366.0</ele><time>2026-04-19T09:57:37Z</time></trkpt><trkpt lat="44.496554994469" lon="10.419580785602488"><ele>366.25</ele><time>2026-04-19T09:57:38Z</time></trkpt><trkpt lat="44.4965750692682" lon="10.419439950439445"><ele>366.5</ele><time>2026-04-19T09:57:39Z</time></trkpt><trkpt lat="44.49661020712945" lon="10.419292741783043"><ele>366.75</ele><time>2026-04-19T09:57:40Z</time></trkpt><trkpt lat="44.49666572256269" lon="10.419149306953896"><ele>367.0</ele><time>2026-04-19T09:57:41Z</time></trkpt><trkpt lat="44.49673666928881" lon="10.419011678710062"><ele>367.0</ele><time>2026-04-19T09:57:42Z</time></trkpt><trkpt lat="44.49679259422825" lon="10.418859896008005"><ele>367.0</ele><time>2026-04-19T09:57:43Z</time></trkpt><trkpt lat="44.496830189317066" lon="10.418699344946463"><ele>367.0</ele><time>2026-04-19T09:57:44Z</time></trkpt><trkpt lat="44.49687060875628" lon="10.41850544804746"><ele>367.0</ele><time>2026-04-19T09:57:45Z</time></trkpt><trkpt lat="44.49692560393977" lon="10.418301715715398"><ele>367.0</ele><time>2026-04-19T09:57:46Z</time></trkpt><trkpt lat="44.49699732510035" lon="10.418154378577011"><ele>367.0</ele><time>2026-04-19T09:57:47Z</time></trkpt><trkpt lat="44.49708497990428" lon="10.4180341969315"><ele>367.0</ele><time>2026-04-19T09:57:48Z</time></trkpt><trkpt lat="44.49717319315467" lon="10.417892988441189"><ele>367.0</ele><time>2026-04-19T09:57:49Z</time></trkpt><trkpt lat="44.49725180761011" lon="10.417715280061552"><ele>365.6</ele><time>2026-04-19T09:57:50Z</time></trkpt><trkpt lat="44.49732158340091" lon="10.417560759089017"><ele>364.20000000000005</ele><time>2026-04-19T09:57:51Z</time></trkpt><trkpt lat="44.497390510308925" lon="10.417456591616947"><ele>362.8</ele><time>2026-04-19T09:57:52Z</time></trkpt><trkpt lat="44.49746542217596" lon="10.417382314889784"><ele>361.4</ele><time>2026-04-19T09:57:53Z</time></trkpt><trkpt lat="44.49753701456106" lon="10.417289523940237"><ele>360.0</ele><time>2026-04-19T09:57:54Z</time></trkpt><trkpt lat="44.49758609356538" lon="10.417171343903512"><ele>360.75</ele><time>2026-04-19T09:57:55Z</time></trkpt><trkpt lat="44.49762404161445" lon="10.416992781998188"><ele>361.5</ele><time>2026-04-19T09:57:56Z</time></trkpt><trkpt lat="44.49767379771052" lon="10.41681585296397"><ele>362.25</ele><time>2026-04-19T09:57:57Z</time></trkpt><trkpt lat="44.497752532545796" lon="10.416664879880043"><ele>363.0</ele><time>2026-04-19T09:57:58Z</time></trkpt><trkpt lat="44.49786429003887" lon="10.41649631592236"><ele>362.75</ele><time>2026-04-19T09:57:59Z</time></trkpt><trkpt lat="44.49796419223533" lon="10.416335020661485"><ele>362.5</ele><time>2026-04-19T09:58:00Z</time></trkpt><trkpt lat="44.498054808903724" lon="10.416186086371539"><ele>362.25</ele><time>2026-04-19T09:58:01Z</time></trkpt><trkpt lat="44.49812854959804" lon="10.416071211899105"><ele>362.0</ele><time>2026-04-19T09:58:02Z</time></trkpt><trkpt lat="44.4981980218713" lon="10.41595538677872"><ele>361.75</ele><time>2026-04-19T09:58:03Z</time></trkpt><trkpt lat="44.49827670567446" lon="10.415842809541639"><ele>361.5</ele><time>2026-04-19T09:58:04Z</time></trkpt><trkpt lat="44.4983767062549" lon="10.415693328930665"><ele>361.25</ele><time>2026-04-19T09:58:05Z</time></trkpt><trkpt lat="44.49849481586145" lon="10.415538801964814"><ele>361.0</ele><time>2026-04-19T09:58:06Z</time></trkpt><trkpt lat="44.498580028197594" lon="10.415357048047653"><ele>361.0</ele><time>2026-04-19T09:58:07Z</time></trkpt><trkpt lat="44.498649077339664" lon="10.415192500270757"><ele>361.0</ele><time>2026-04-19T09:58:08Z</time></trkpt><trkpt lat="44.498703940833174" lon="10.415024473182935"><ele>361.0</ele><time>2026-04-19T09:58:09Z</time></trkpt><trkpt lat="44.49875587217504" lon="10.414852336981202"><ele>361.0</ele><time>2026-04-19T09:58:10Z</time></trkpt><trkpt lat="44.4988129366644" lon="10.414705047712665"><ele>360.20000000000005</ele><time>2026-04-19T09:58:11Z</time></trkpt><trkpt lat="44.49888018293153" lon="10.414572879663751"><ele>359.40000000000003</ele><time>2026-04-19T09:58:12Z</time></trkpt><trkpt lat="44.49895962702957" lon="10.414469797948776"><ele>358.6</ele><time>2026-04-19T09:58:13Z</time></trkpt><trkpt lat="44.49905243722813" lon="10.414404145441164"><ele>357.8</ele><time>2026-04-19T09:58:14Z</time></trkpt><trkpt lat="44.49915818392792" lon="10.414372166031924"><ele>357.0</ele><time>2026-04-19T09:58:15Z</time></trkpt><trkpt lat="44.49926695828653" lon="10.41436587806533"><ele>357.0</ele><time>2026-04-19T09:58:16Z</time></trkpt><trkpt lat="44.49941605291536" lon="10.414373064809014"><ele>357.0</ele><time>2026-04-19T09:58:17Z</time></trkpt><trkpt lat="44.49956440638823" lon="10.414406488279381"><ele>357.0</ele><time>2026-04-19T09:58:18Z</time></trkpt><trkpt lat="44.49968643746823" lon="10.414445261160449"><ele>357.0</ele><time>2026-04-19T09:58:19Z</time></trkpt><trkpt lat="44.49980527770773" lon="10.414466882848567"><ele>356.8</ele><time>2026-04-19T09:58:20Z</time></trkpt><trkpt lat="44.49992405784539" lon="10.414463273484822"><ele>356.6</ele><time>2026-04-19T09:58:21Z</time></trkpt><trkpt lat="44.5000373014682" lon="10.414424107194241"><ele>356.40000000000003</ele><time>2026-04-19T09:58:22Z</time></trkpt><trkpt lat="44.50011849401991" lon="10.414358280580656"><ele>356.20000000000005</ele><time>2026-04-19T09:58:23Z</time></trkpt><trkpt lat="44.50019611345728" lon="10.41425988843945"><ele>356.0</ele><time>2026-04-19T09:58:24Z</time></trkpt><trkpt lat="44.50026393556708" lon="10.414138094612246"><ele>356.0</ele><time>2026-04-19T09:58:25Z</time></trkpt><trkpt lat="44.50030943399922" lon="10.41404588260317"><ele>356.0</ele><time>2026-04-19T09:58:26Z</time></trkpt><trkpt lat="44.50036671339332" lon="10.413984507761215"><ele>356.0</ele><time>2026-04-19T09:58:27Z</time></trkpt><trkpt lat="44.50044658934058" lon="10.413936219251484"><ele>356.0</ele><time>2026-04-19T09:58:28Z</time></trkpt><trkpt lat="44.5005287948077" lon="10.413894192422735"><ele>356.0</ele><time>2026-04-19T09:58:29Z</time></trkpt><trkpt lat="44.50058910790658" lon="10.413923620002699"><ele>356.0</ele><time>2026-04-19T09:58:30Z</time></trkpt><trkpt lat="44.50066204305628" lon="10.414037145153639"><ele>355.6</ele><time>2026-04-19T09:58:32Z</time></trkpt><trkpt lat="44.50071498811325" lon="10.414120316077112"><ele>355.20000000000005</ele><time>2026-04-19T09:58:34Z</time></trkpt><trkpt lat="44.500793719732904" lon="10.414201584332137"><ele>354.79999999999995</ele><time>2026-04-19T09:58:36Z</time></trkpt><trkpt lat="44.50092328360477" lon="10.414264840471601"><ele>354.4</ele><time>2026-04-19T09:58:38Z</time></trkpt><trkpt lat="44.5010100679577" lon="10.414295612167885"><ele>354.0</ele><time>2026-04-19T09:58:39Z</time></trkpt><trkpt lat="44.50109075411014" lon="10.414337849105655"><ele>354.0</ele><time>2026-04-19T09:58:40Z</time></trkpt><trkpt lat="44.50118026088454" lon="10.414423813547222"><ele>354.0</ele><time>2026-04-19T09:58:41Z</time></trkpt><trkpt lat="44.501306698348365" lon="10.414542955866112"><ele>354.0</ele><time>2026-04-19T09:58:42Z</time></trkpt><trkpt lat="44.50143527592144" lon="10.41467138434906"><ele>354.0</ele><time>2026-04-19T09:58:43Z</time></trkpt><trkpt lat="44.50153457108653" lon="10.41478178519807"><ele>354.6666666666667</ele><time>2026-04-19T09:58:44Z</time></trkpt><trkpt lat="44.501601014840624" lon="10.414885463601255"><ele>355.3333333333333</ele><time>2026-04-19T09:58:45Z</time></trkpt><trkpt lat="44.50164907319926" lon="10.41499210945978"><ele>356.0</ele><time>2026-04-19T09:58:46Z</time></trkpt><trkpt lat="44.501659610347055" lon="10.415092658834865"><ele>356.66666666666663</ele><time>2026-04-19T09:58:47Z</time></trkpt><trkpt lat="44.501692039953426" lon="10.415168940665927"><ele>357.3333333333333</ele><time>2026-04-19T09:58:50Z</time></trkpt><trkpt lat="44.50176438846376" lon="10.415223947857651"><ele>358.0</ele><time>2026-04-19T09:59:04Z</time></trkpt><trkpt lat="44.501830626450726" lon="10.41524991156768"><ele>358.0</ele><time>2026-04-19T09:59:05Z</time></trkpt><trkpt lat="44.50190295448938" lon="10.415260285763104"><ele>358.0</ele><time>2026-04-19T09:59:06Z</time></trkpt><trkpt lat="44.50197612232583" lon="10.415270242277627"><ele>358.0</ele><time>2026-04-19T09:59:07Z</time></trkpt><trkpt lat="44.50207577025655" lon="10.415266659535114"><ele>358.0</ele><time>2026-04-19T09:59:08Z</time></trkpt><trkpt lat="44.50218139986112" lon="10.415250218078556"><ele>358.0</ele><time>2026-04-19T09:59:09Z</time></trkpt><trkpt lat="44.50229909599943" lon="10.415247660247463"><ele>358.25</ele><time>2026-04-19T09:59:10Z</time></trkpt><trkpt lat="44.50241582224669" lon="10.41527800636683"><ele>358.5</ele><time>2026-04-19T09:59:11Z</time></trkpt><trkpt lat="44.50256598839304" lon="10.415314081593923"><ele>358.75</ele><time>2026-04-19T09:59:12Z</time></trkpt><trkpt lat="44.50268341766098" lon="10.41536652932751"><ele>359.0</ele><time>2026-04-19T09:59:13Z</time></trkpt><trkpt lat="44.50275723044563" lon="10.415403531235356"><ele>359.0</ele><time>2026-04-19T09:59:14Z</time></trkpt><trkpt lat="44.50283141100633" lon="10.415432744179249"><ele>359.0</ele><time>2026-04-19T09:59:17Z</time></trkpt><trkpt lat="44.502902804926265" lon="10.415482121493001"><ele>359.0</ele><time>2026-04-19T09:59:20Z</time></trkpt><trkpt lat="44.50297355595203" lon="10.415533148165483"><ele>359.0</ele><time>2026-04-19T09:59:23Z</time></trkpt><trkpt lat="44.50305982932731" lon="10.415570498291787"><ele>359.0</ele><time>2026-04-19T09:59:26Z</time></trkpt><trkpt lat="44.50314088038223" lon="10.41555579307233"><ele>359.0</ele><time>2026-04-19T09:59:30Z</time></trkpt><trkpt lat="44.503201037595346" lon="10.415581941700557"><ele>359.33333333333337</ele><time>2026-04-19T09:59:32Z</time></trkpt><trkpt lat="44.50326569420392" lon="10.415605409521914"><ele>359.6666666666667</ele><time>2026-04-19T09:59:34Z</time></trkpt><trkpt lat="44.50333034614976" lon="10.415660760858097"><ele>360.0</ele><time>2026-04-19T09:59:36Z</time></trkpt><trkpt lat="44.50338442363964" lon="10.41575610408572"><ele>360.3333333333333</ele><time>2026-04-19T09:59:38Z</time></trkpt><trkpt lat="44.503467627580164" lon="10.415806021819398"><ele>360.66666666666663</ele><time>2026-04-19T09:59:41Z</time></trkpt><trkpt lat="44.503592896626806" lon="10.415811248503216"><ele>361.0</ele><time>2026-04-19T09:59:43Z</time></trkpt><trkpt lat="44.50369456721459" lon="10.415816088508596"><ele>361.5</ele><time>2026-04-19T09:59:44Z</time></trkpt><trkpt lat="44.5037645084756" lon="10.41583532665813"><ele>362.0</ele><time>2026-04-19T09:59:45Z</time></trkpt><trkpt lat="44.50382404561228" lon="10.415897900208202"><ele>362.5</ele><time>2026-04-19T09:59:46Z</time></trkpt><trkpt lat="44.50387508680233" lon="10.41601344177615"><ele>363.0</ele><time>2026-04-19T09:59:47Z</time></trkpt><trkpt lat="44.50389210670979" lon="10.416135783416376"><ele>363.5</ele><time>2026-04-19T09:59:48Z</time></trkpt><trkpt lat="44.50389730420511" lon="10.416262270571911"><ele>364.0</ele><time>2026-04-19T09:59:49Z</time></trkpt><trkpt lat="44.50392221717854" lon="10.416428699854894"><ele>364.0</ele><time>2026-04-19T09:59:50Z</time></trkpt><trkpt lat="44.50395865266557" lon="10.416611438002256"><ele>364.0</ele><time>2026-04-19T09:59:51Z</time></trkpt><trkpt lat="44.504027912064025" lon="10.416718173526982"><ele>364.0</ele><time>2026-04-19T09:59:52Z</time></trkpt><trkpt lat="44.50410882103868" lon="10.416840617588756"><ele>364.0</ele><time>2026-04-19T09:59:53Z</time></trkpt><trkpt lat="44.50422570994815" lon="10.416964669359055"><ele>364.0</ele><time>2026-04-19T09:59:54Z</time></trkpt><trkpt lat="44.50431474273549" lon="10.417111347688909"><ele>364.0</ele><time>2026-04-19T09:59:55Z</time></trkpt><trkpt lat="44.504541433209674" lon="10.41719693125277"><ele>364.0</ele><time>2026-04-19T09:59:56Z</time></trkpt><trkpt lat="44.50464570875623" lon="10.41727000419029"><ele>364.2</ele><time>2026-04-19T09:59:57Z</time></trkpt><trkpt lat="44.50467856876658" lon="10.41744364279216"><ele>364.4</ele><time>2026-04-19T09:59:59Z</time></trkpt><trkpt lat="44.504641709745826" lon="10.417585530318904"><ele>364.6</ele><time>2026-04-19T10:00:00Z</time></trkpt><trkpt lat="44.504617870715855" lon="10.41773485793519"><ele>364.8</ele><time>2026-04-19T10:00:01Z</time></trkpt><trkpt lat="44.5046842239974" lon="10.41782123479542"><ele>365.0</ele><time>2026-04-19T10:00:03Z</time></trkpt><trkpt lat="44.50475545489308" lon="10.41779973423713"><ele>365.0</ele><time>2026-04-19T10:00:04Z</time></trkpt><trkpt lat="44.50487228019047" lon="10.417734987628776"><ele>365.0</ele><time>2026-04-19T10:00:05Z</time></trkpt><trkpt lat="44.50499518335125" lon="10.41769061744338"><ele>365.0</ele><time>2026-04-19T10:00:06Z</time></trkpt><trkpt lat="44.505121779252526" lon="10.417654945692314"><ele>365.0</ele><time>2026-04-19T10:00:07Z</time></trkpt><trkpt lat="44.505235346937624" lon="10.417626826019031"><ele>365.0</ele><time>2026-04-19T10:00:08Z</time></trkpt><trkpt lat="44.505335409993876" lon="10.417609451843015"><ele>365.0</ele><time>2026-04-19T10:00:09Z</time></trkpt><trkpt lat="44.50543498213527" lon="10.417611980412495"><ele>365.0</ele><time>2026-04-19T10:00:10Z</time></trkpt><trkpt lat="44.50553581602287" lon="10.417644065908714"><ele>365.0</ele><time>2026-04-19T10:00:11Z</time></trkpt><trkpt lat="44.50562840455475" lon="10.417716545896976"><ele>365.0</ele><time>2026-04-19T10:00:12Z</time></trkpt><trkpt lat="44.505709488783495" lon="10.417798595310492"><ele>367.4</ele><time>2026-04-19T10:00:13Z</time></trkpt><trkpt lat="44.50580024606459" lon="10.417859884937995"><ele>369.8</ele><time>2026-04-19T10:00:14Z</time></trkpt><trkpt lat="44.5059018798404" lon="10.417901396594063"><ele>372.20000000000005</ele><time>2026-04-19T10:00:15Z</time></trkpt><trkpt lat="44.50600771273718" lon="10.417930776347655"><ele>374.6</ele><time>2026-04-19T10:00:16Z</time></trkpt><trkpt lat="44.50610425276078" lon="10.41797347141577"><ele>377.0</ele><time>2026-04-19T10:00:17Z</time></trkpt><trkpt lat="44.5061934435832" lon="10.418006760017859"><ele>379.1666666666667</ele><time>2026-04-19T10:00:18Z</time></trkpt><trkpt lat="44.50627136916585" lon="10.418014060678342"><ele>381.33333333333337</ele><time>2026-04-19T10:00:19Z</time></trkpt><trkpt lat="44.506347106081286" lon="10.417994947851135"><ele>383.5</ele><time>2026-04-19T10:00:20Z</time></trkpt><trkpt lat="44.50643898961506" lon="10.417987382598563"><ele>385.6666666666667</ele><time>2026-04-19T10:00:21Z</time></trkpt><trkpt lat="44.50652101848464" lon="10.418006619320742"><ele>387.8333333333333</ele><time>2026-04-19T10:00:22Z</time></trkpt><trkpt lat="44.50659646151054" lon="10.418025167027096"><ele>390.0</ele><time>2026-04-19T10:00:23Z</time></trkpt><trkpt lat="44.506677866234604" lon="10.418021656717071"><ele>390.0</ele><time>2026-04-19T10:00:24Z</time></trkpt><trkpt lat="44.506755558007924" lon="10.418037368795677"><ele>390.0</ele><time>2026-04-19T10:00:25Z</time></trkpt><trkpt lat="44.5068143691425" lon="10.418097296291853"><ele>390.0</ele><time>2026-04-19T10:00:26Z</time></trkpt><trkpt lat="44.506843567063555" lon="10.418198041992765"><ele>390.0</ele><time>2026-04-19T10:00:27Z</time></trkpt><trkpt lat="44.50686580873127" lon="10.418323609409672"><ele>390.0</ele><time>2026-04-19T10:00:28Z</time></trkpt><trkpt lat="44.50687657123954" lon="10.418423611349706"><ele>390.0</ele><time>2026-04-19T10:00:29Z</time></trkpt><trkpt lat="44.50691805492341" lon="10.418494574141492"><ele>390.0</ele><time>2026-04-19T10:00:30Z</time></trkpt><trkpt lat="44.50700993830866" lon="10.418540496517359"><ele>390.0</ele><time>2026-04-19T10:00:32Z</time></trkpt><trkpt lat="44.507092373165875" lon="10.418540111682928"><ele>390.0</ele><time>2026-04-19T10:00:34Z</time></trkpt><trkpt lat="44.50716639986692" lon="10.418552529431464"><ele>390.0</ele><time>2026-04-19T10:00:36Z</time></trkpt><trkpt lat="44.50723099290442" lon="10.418552845646618"><ele>390.0</ele><time>2026-04-19T10:00:38Z</time></trkpt><trkpt lat="44.50733420872147" lon="10.41848431967404"><ele>390.0</ele><time>2026-04-19T10:00:40Z</time></trkpt><trkpt lat="44.507425933748685" lon="10.418468081618814"><ele>391.1666666666667</ele><time>2026-04-19T10:00:42Z</time></trkpt><trkpt lat="44.50749479665252" lon="10.418526253933713"><ele>392.33333333333337</ele><time>2026-04-19T10:00:44Z</time></trkpt><trkpt lat="44.50755361853766" lon="10.418601483210544"><ele>393.5</ele><time>2026-04-19T10:00:46Z</time></trkpt><trkpt lat="44.50761852545095" lon="10.418661556741771"><ele>394.6666666666667</ele><time>2026-04-19T10:00:48Z</time></trkpt><trkpt lat="44.50770296123474" lon="10.418715503769727"><ele>395.83333333333337</ele><time>2026-04-19T10:00:50Z</time></trkpt><trkpt lat="44.50776989739033" lon="10.418746806981641"><ele>397.0</ele><time>2026-04-19T10:00:52Z</time></trkpt><trkpt lat="44.50785476952288" lon="10.418760430359105"><ele>396.6666666666667</ele><time>2026-04-19T10:00:55Z</time></trkpt><trkpt lat="44.507917649596536" lon="10.418755126986644"><ele>396.33333333333337</ele><time>2026-04-19T10:00:57Z</time></trkpt><trkpt lat="44.5079845796278" lon="10.41874854255771"><ele>396.0</ele><time>2026-04-19T10:00:59Z</time></trkpt><trkpt lat="44.50806167105541" lon="10.418750037834153"><ele>395.66666666666663</ele><time>2026-04-19T10:01:01Z</time></trkpt><trkpt lat="44.50814448145637" lon="10.418787787045648"><ele>395.3333333333333</ele><time>2026-04-19T10:01:03Z</time></trkpt><trkpt lat="44.50823993863454" lon="10.418869647880733"><ele>395.0</ele><time>2026-04-19T10:01:05Z</time></trkpt><trkpt lat="44.508341784925925" lon="10.418945846764526"><ele>394.99999999999994</ele><time>2026-04-19T10:01:07Z</time></trkpt><trkpt lat="44.508397718400026" lon="10.418987544652735"><ele>395.0</ele><time>2026-04-19T10:01:08Z</time></trkpt><trkpt lat="44.508454825670455" lon="10.419028658023935"><ele>395.0</ele><time>2026-04-19T10:01:09Z</time></trkpt><trkpt lat="44.50852133422495" lon="10.419066539302744"><ele>395.0</ele><time>2026-04-19T10:01:10Z</time></trkpt><trkpt lat="44.50859780846924" lon="10.419109728010724"><ele>394.99999999999994</ele><time>2026-04-19T10:01:11Z</time></trkpt><trkpt lat="44.508674359263864" lon="10.419164849627808"><ele>395.0</ele><time>2026-04-19T10:01:12Z</time></trkpt><trkpt lat="44.50874995907498" lon="10.419228284022621"><ele>396.6</ele><time>2026-04-19T10:01:13Z</time></trkpt><trkpt lat="44.50882952441083" lon="10.41929866409258"><ele>398.2</ele><time>2026-04-19T10:01:14Z</time></trkpt><trkpt lat="44.50892122879109" lon="10.419343181046063"><ele>399.79999999999995</ele><time>2026-04-19T10:01:15Z</time></trkpt><trkpt lat="44.509007108693574" lon="10.419372304579174"><ele>401.4</ele><time>2026-04-19T10:01:16Z</time></trkpt><trkpt lat="44.509070298794434" lon="10.41943703366753"><ele>403.0</ele><time>2026-04-19T10:01:17Z</time></trkpt><trkpt lat="44.50911210818539" lon="10.41956276390328"><ele>400.59999999999997</ele><time>2026-04-19T10:01:18Z</time></trkpt><trkpt lat="44.50916742476107" lon="10.419705216718532"><ele>398.2</ele><time>2026-04-19T10:01:19Z</time></trkpt><trkpt lat="44.50921452397982" lon="10.419837813342093"><ele>395.8</ele><time>2026-04-19T10:01:20Z</time></trkpt><trkpt lat="44.509253327529066" lon="10.4199676075365"><ele>393.4</ele><time>2026-04-19T10:01:21Z</time></trkpt><trkpt lat="44.50928249911716" lon="10.420056860609247"><ele>391.0</ele><time>2026-04-19T10:01:22Z</time></trkpt><trkpt lat="44.50933955652225" lon="10.42016528692173"><ele>391.00000000000006</ele><time>2026-04-19T10:01:24Z</time></trkpt><trkpt lat="44.50940764997009" lon="10.42021147855265"><ele>391.0</ele><time>2026-04-19T10:01:25Z</time></trkpt><trkpt lat="44.50947506997612" lon="10.420260269467086"><ele>391.0</ele><time>2026-04-19T10:01:26Z</time></trkpt><trkpt lat="44.509551695474876" lon="10.420329531911312"><ele>391.0</ele><time>2026-04-19T10:01:27Z</time></trkpt><trkpt lat="44.509618159861354" lon="10.420391012101621"><ele>391.00000000000006</ele><time>2026-04-19T10:01:28Z</time></trkpt><trkpt lat="44.5096723354101" lon="10.42047811963367"><ele>391.0</ele><time>2026-04-19T10:01:29Z</time></trkpt><trkpt lat="44.509730209658244" lon="10.42057874250102"><ele>389.4</ele><time>2026-04-19T10:01:31Z</time></trkpt><trkpt lat="44.50981116469342" lon="10.420666092492597"><ele>387.8</ele><time>2026-04-19T10:01:33Z</time></trkpt><trkpt lat="44.50991568548284" lon="10.420696564068027"><ele>386.2</ele><time>2026-04-19T10:01:35Z</time></trkpt><trkpt lat="44.509967364043355" lon="10.420784234346053"><ele>384.59999999999997</ele><time>2026-04-19T10:01:37Z</time></trkpt><trkpt lat="44.50991019302815" lon="10.420932605740827"><ele>383.0</ele><time>2026-04-19T10:01:39Z</time></trkpt><trkpt lat="44.509851320706424" lon="10.42102031143278"><ele>383.0</ele><time>2026-04-19T10:01:40Z</time></trkpt><trkpt lat="44.509777595208696" lon="10.421119905934194"><ele>383.0</ele><time>2026-04-19T10:01:41Z</time></trkpt><trkpt lat="44.509728092193534" lon="10.421198131439036"><ele>383.0</ele><time>2026-04-19T10:01:42Z</time></trkpt><trkpt lat="44.50972864643924" lon="10.421293756300898"><ele>383.0</ele><time>2026-04-19T10:01:43Z</time></trkpt><trkpt lat="44.50976939075031" lon="10.421436976515766"><ele>383.0</ele><time>2026-04-19T10:01:44Z</time></trkpt><trkpt lat="44.50980649925413" lon="10.421609708226805"><ele>381.4</ele><time>2026-04-19T10:01:45Z</time></trkpt><trkpt lat="44.50983245974004" lon="10.42175936567254"><ele>379.79999999999995</ele><time>2026-04-19T10:01:46Z</time></trkpt><trkpt lat="44.50985896778138" lon="10.421880557763416"><ele>378.2</ele><time>2026-04-19T10:01:47Z</time></trkpt><trkpt lat="44.50988551173644" lon="10.421998852429294"><ele>376.6</ele><time>2026-04-19T10:01:48Z</time></trkpt><trkpt lat="44.50989181466063" lon="10.42209312515072"><ele>375.0</ele><time>2026-04-19T10:01:49Z</time></trkpt><trkpt lat="44.50979176532895" lon="10.422236853006986"><ele>373.8</ele><time>2026-04-19T10:01:51Z</time></trkpt><trkpt lat="44.509733091621236" lon="10.42234448115057"><ele>372.6</ele><time>2026-04-19T10:01:52Z</time></trkpt><trkpt lat="44.509722649547356" lon="10.422459770857492"><ele>371.4</ele><time>2026-04-19T10:01:53Z</time></trkpt><trkpt lat="44.509740911494134" lon="10.422594891466213"><ele>370.2</ele><time>2026-04-19T10:01:54Z</time></trkpt><trkpt lat="44.50978100920205" lon="10.422752295373257"><ele>369.0</ele><time>2026-04-19T10:01:55Z</time></trkpt><trkpt lat="44.509837567755504" lon="10.42288546689446"><ele>368.75</ele><time>2026-04-19T10:01:56Z</time></trkpt><trkpt lat="44.50990514340622" lon="10.423004802410317"><ele>368.5</ele><time>2026-04-19T10:01:57Z</time></trkpt><trkpt lat="44.50998839642646" lon="10.42313823602054"><ele>368.25</ele><time>2026-04-19T10:01:58Z</time></trkpt><trkpt lat="44.51007592544558" lon="10.423292909897587"><ele>368.0</ele><time>2026-04-19T10:01:59Z</time></trkpt><trkpt lat="44.510167335806166" lon="10.423461071461624"><ele>368.0</ele><time>2026-04-19T10:02:00Z</time></trkpt><trkpt lat="44.510209728428634" lon="10.42360245625536"><ele>368.0</ele><time>2026-04-19T10:02:01Z</time></trkpt><trkpt lat="44.51027576271042" lon="10.423740557161464"><ele>368.0</ele><time>2026-04-19T10:02:02Z</time></trkpt><trkpt lat="44.51032683363725" lon="10.423872117921045"><ele>368.0</ele><time>2026-04-19T10:02:03Z</time></trkpt><trkpt lat="44.51036095113349" lon="10.42397791791793"><ele>368.0</ele><time>2026-04-19T10:02:04Z</time></trkpt><trkpt lat="44.51037061783466" lon="10.424070493569257"><ele>368.0</ele><time>2026-04-19T10:02:05Z</time></trkpt><trkpt lat="44.510369453499486" lon="10.424179648930698"><ele>368.0</ele><time>2026-04-19T10:02:06Z</time></trkpt><trkpt lat="44.510360629470775" lon="10.424305932079745"><ele>368.0</ele><time>2026-04-19T10:02:08Z</time></trkpt><trkpt lat="44.5104189585008" lon="10.424415886458474"><ele>368.0</ele><time>2026-04-19T10:02:12Z</time></trkpt><trkpt lat="44.51051548897242" lon="10.424575319958484"><ele>368.0</ele><time>2026-04-19T10:02:14Z</time></trkpt><trkpt lat="44.51057424990685" lon="10.424665358287397"><ele>368.4</ele><time>2026-04-19T10:02:15Z</time></trkpt><trkpt lat="44.51056170732009" lon="10.424777099690278"><ele>368.79999999999995</ele><time>2026-04-19T10:02:17Z</time></trkpt><trkpt lat="44.5105627851822" lon="10.424870402729779"><ele>369.2</ele><time>2026-04-19T10:02:18Z</time></trkpt><trkpt lat="44.51059781490621" lon="10.425031291903647"><ele>369.6</ele><time>2026-04-19T10:02:19Z</time></trkpt><trkpt lat="44.510680053961934" lon="10.425242302104795"><ele>370.0</ele><time>2026-04-19T10:02:20Z</time></trkpt><trkpt lat="44.51074451233153" lon="10.425381594655581"><ele>370.0</ele><time>2026-04-19T10:02:21Z</time></trkpt><trkpt lat="44.5108002468868" lon="10.425466675074679"><ele>370.0</ele><time>2026-04-19T10:02:22Z</time></trkpt><trkpt lat="44.51086895591098" lon="10.425472278921593"><ele>370.0</ele><time>2026-04-19T10:02:24Z</time></trkpt><trkpt lat="44.51094798109521" lon="10.425518999047368"><ele>370.0</ele><time>2026-04-19T10:02:26Z</time></trkpt><trkpt lat="44.511048183489564" lon="10.425567753720706"><ele>370.0</ele><time>2026-04-19T10:02:28Z</time></trkpt><trkpt lat="44.511135730796745" lon="10.425584653236928"><ele>370.0</ele><time>2026-04-19T10:02:30Z</time></trkpt><trkpt lat="44.511207581571405" lon="10.425578513595875"><ele>370.0</ele><time>2026-04-19T10:02:32Z</time></trkpt><trkpt lat="44.51134755742356" lon="10.425578117288715"><ele>370.0</ele><time>2026-04-19T10:02:34Z</time></trkpt><trkpt lat="44.511552018601975" lon="10.425610690938152"><ele>370.0</ele><time>2026-04-19T10:02:36Z</time></trkpt><trkpt lat="44.51167993251804" lon="10.425658778866362"><ele>370.0</ele><time>2026-04-19T10:02:37Z</time></trkpt><trkpt lat="44.511791048621944" lon="10.42568337550089"><ele>370.0</ele><time>2026-04-19T10:02:38Z</time></trkpt><trkpt lat="44.511866762316245" lon="10.425740809270486"><ele>370.0</ele><time>2026-04-19T10:02:39Z</time></trkpt><trkpt lat="44.5119424033614" lon="10.425847455099834"><ele>370.0</ele><time>2026-04-19T10:02:40Z</time></trkpt><trkpt lat="44.51205780334584" lon="10.425997168227946"><ele>370.66666666666663</ele><time>2026-04-19T10:02:41Z</time></trkpt><trkpt lat="44.512199957979405" lon="10.426126654739676"><ele>371.3333333333333</ele><time>2026-04-19T10:02:42Z</time></trkpt><trkpt lat="44.512319606778924" lon="10.426257680528991"><ele>372.0</ele><time>2026-04-19T10:02:43Z</time></trkpt><trkpt lat="44.51241656735444" lon="10.426377370152572"><ele>372.0</ele><time>2026-04-19T10:02:44Z</time></trkpt><trkpt lat="44.51249992081166" lon="10.426489165595605"><ele>372.0</ele><time>2026-04-19T10:02:45Z</time></trkpt><trkpt lat="44.51260371770261" lon="10.426595268351686"><ele>372.0</ele><time>2026-04-19T10:02:46Z</time></trkpt><trkpt lat="44.51272372218899" lon="10.426700098852923"><ele>372.0</ele><time>2026-04-19T10:02:47Z</time></trkpt><trkpt lat="44.51283679736384" lon="10.426792368444412"><ele>372.6</ele><time>2026-04-19T10:02:48Z</time></trkpt><trkpt lat="44.51293441399282" lon="10.426871153101082"><ele>373.20000000000005</ele><time>2026-04-19T10:02:49Z</time></trkpt><trkpt lat="44.51302504034212" lon="10.426950159692026"><ele>373.8</ele><time>2026-04-19T10:02:50Z</time></trkpt><trkpt lat="44.51309779944526" lon="10.427039225039406"><ele>374.4</ele><time>2026-04-19T10:02:51Z</time></trkpt><trkpt lat="44.51312976343145" lon="10.427131948031818"><ele>375.0</ele><time>2026-04-19T10:02:52Z</time></trkpt><trkpt lat="44.5131176097128" lon="10.427226117597918"><ele>375.0</ele><time>2026-04-19T10:02:53Z</time></trkpt><trkpt lat="44.51307628525051" lon="10.42730820055196"><ele>375.0</ele><time>2026-04-19T10:02:54Z</time></trkpt><trkpt lat="44.51301419888942" lon="10.427413257135784"><ele>375.0</ele><time>2026-04-19T10:02:55Z</time></trkpt><trkpt lat="44.51297237751439" lon="10.427539021031082"><ele>375.0</ele><time>2026-04-19T10:02:56Z</time></trkpt><trkpt lat="44.51298151917681" lon="10.427633788782492"><ele>375.0</ele><time>2026-04-19T10:02:57Z</time></trkpt><trkpt lat="44.51307112730948" lon="10.427775943690762"><ele>375.0</ele><time>2026-04-19T10:02:59Z</time></trkpt><trkpt lat="44.51307205960237" lon="10.427871627508113"><ele>375.0</ele><time>2026-04-19T10:03:02Z</time></trkpt><trkpt lat="44.51307602505519" lon="10.427985101388098"><ele>375.0</ele><time>2026-04-19T10:03:05Z</time></trkpt><trkpt lat="44.51308629493287" lon="10.428156712803021"><ele>375.0</ele><time>2026-04-19T10:03:06Z</time></trkpt><trkpt lat="44.51308276718982" lon="10.428277554375965"><ele>375.0</ele><time>2026-04-19T10:03:07Z</time></trkpt><trkpt lat="44.51309168461565" lon="10.428392842266643"><ele>375.0</ele><time>2026-04-19T10:03:08Z</time></trkpt><trkpt lat="44.51315904917691" lon="10.428543894448055"><ele>375.0</ele><time>2026-04-19T10:03:09Z</time></trkpt><trkpt lat="44.51325690247444" lon="10.4286856140506"><ele>375.0</ele><time>2026-04-19T10:03:10Z</time></trkpt><trkpt lat="44.51336130746115" lon="10.428794623427622"><ele>375.0</ele><time>2026-04-19T10:03:11Z</time></trkpt><trkpt lat="44.51348138316883" lon="10.42890070942212"><ele>375.0</ele><time>2026-04-19T10:03:12Z</time></trkpt><trkpt lat="44.513605952119455" lon="10.429037551266875"><ele>374.8</ele><time>2026-04-19T10:03:13Z</time></trkpt><trkpt lat="44.513669585935865" lon="10.429164982371834"><ele>374.6</ele><time>2026-04-19T10:03:14Z</time></trkpt><trkpt lat="44.5137295216257" lon="10.429283682917573"><ele>374.4</ele><time>2026-04-19T10:03:15Z</time></trkpt><trkpt lat="44.513849396477404" lon="10.42930902365568"><ele>374.2</ele><time>2026-04-19T10:03:18Z</time></trkpt><trkpt lat="44.513949304021985" lon="10.429358078267537"><ele>374.0</ele><time>2026-04-19T10:03:19Z</time></trkpt><trkpt lat="44.51401552024514" lon="10.429401577149672"><ele>374.0</ele><time>2026-04-19T10:03:20Z</time></trkpt><trkpt lat="44.51412485078309" lon="10.42948646805947"><ele>374.0</ele><time>2026-04-19T10:03:22Z</time></trkpt><trkpt lat="44.51421734135699" lon="10.429564622959177"><ele>374.0</ele><time>2026-04-19T10:03:24Z</time></trkpt><trkpt lat="44.51427825398054" lon="10.429618967101431"><ele>374.0</ele><time>2026-04-19T10:03:25Z</time></trkpt><trkpt lat="44.51435731811355" lon="10.429707699717914"><ele>374.0</ele><time>2026-04-19T10:03:27Z</time></trkpt><trkpt lat="44.514431907917256" lon="10.429765611155307"><ele>374.83333333333337</ele><time>2026-04-19T10:03:29Z</time></trkpt><trkpt lat="44.51451658804736" lon="10.42982780755406"><ele>375.6666666666667</ele><time>2026-04-19T10:03:31Z</time></trkpt><trkpt lat="44.51457340464176" lon="10.429871753965712"><ele>376.5</ele><time>2026-04-19T10:03:32Z</time></trkpt><trkpt lat="44.514629228556586" lon="10.429930157733901"><ele>377.3333333333333</ele><time>2026-04-19T10:03:33Z</time></trkpt><trkpt lat="44.51471759854193" lon="10.429984735191827"><ele>378.16666666666663</ele><time>2026-04-19T10:03:35Z</time></trkpt><trkpt lat="44.514814700705884" lon="10.42997877625582"><ele>379.0</ele><time>2026-04-19T10:03:37Z</time></trkpt><trkpt lat="44.51491770777017" lon="10.430051259436283"><ele>379.0</ele><time>2026-04-19T10:03:39Z</time></trkpt><trkpt lat="44.5149991110722" lon="10.430155141505345"><ele>379.0</ele><time>2026-04-19T10:03:40Z</time></trkpt><trkpt lat="44.51513353639421" lon="10.430243970732894"><ele>379.0</ele><time>2026-04-19T10:03:41Z</time></trkpt><trkpt lat="44.51530417582003" lon="10.430319559778438"><ele>379.0</ele><time>2026-04-19T10:03:42Z</time></trkpt><trkpt lat="44.515437225182225" lon="10.430389696039073"><ele>379.4</ele><time>2026-04-19T10:03:43Z</time></trkpt><trkpt lat="44.51552046459226" lon="10.43047647735909"><ele>379.79999999999995</ele><time>2026-04-19T10:03:44Z</time></trkpt><trkpt lat="44.51562249479486" lon="10.43055942978815"><ele>380.20000000000005</ele><time>2026-04-19T10:03:45Z</time></trkpt><trkpt lat="44.51571093561171" lon="10.430622355324866"><ele>380.6</ele><time>2026-04-19T10:03:46Z</time></trkpt><trkpt lat="44.515775928614076" lon="10.430659458206332"><ele>381.0</ele><time>2026-04-19T10:03:47Z</time></trkpt><trkpt lat="44.515847491740445" lon="10.430598269276267"><ele>381.0</ele><time>2026-04-19T10:03:48Z</time></trkpt><trkpt lat="44.51590175891192" lon="10.430546739924505"><ele>381.0</ele><time>2026-04-19T10:03:49Z</time></trkpt><trkpt lat="44.516004607295784" lon="10.43050202539313"><ele>381.0</ele><time>2026-04-19T10:03:51Z</time></trkpt><trkpt lat="44.51609500971656" lon="10.430559492473689"><ele>381.0</ele><time>2026-04-19T10:03:53Z</time></trkpt><trkpt lat="44.516164973336345" lon="10.430548428556877"><ele>381.0</ele><time>2026-04-19T10:03:54Z</time></trkpt><trkpt lat="44.516257130933624" lon="10.430496371815934"><ele>381.0</ele><time>2026-04-19T10:03:55Z</time></trkpt><trkpt lat="44.51634416698977" lon="10.430443900841365"><ele>381.20000000000005</ele><time>2026-04-19T10:03:56Z</time></trkpt><trkpt lat="44.51644457497368" lon="10.430437053981885"><ele>381.40000000000003</ele><time>2026-04-19T10:03:57Z</time></trkpt><trkpt lat="44.51655109510756" lon="10.43047267944175"><ele>381.6</ele><time>2026-04-19T10:03:58Z</time></trkpt><trkpt lat="44.51664062136217" lon="10.430536114449104"><ele>381.8</ele><time>2026-04-19T10:03:59Z</time></trkpt><trkpt lat="44.516730099957684" lon="10.430638818772064"><ele>382.0</ele><time>2026-04-19T10:04:00Z</time></trkpt><trkpt lat="44.51681424485257" lon="10.430732797042788"><ele>382.0</ele><time>2026-04-19T10:04:01Z</time></trkpt><trkpt lat="44.51689361202964" lon="10.430790549885128"><ele>382.0</ele><time>2026-04-19T10:04:02Z</time></trkpt><trkpt lat="44.51695926853225" lon="10.43080298937985"><ele>382.0</ele><time>2026-04-19T10:04:03Z</time></trkpt><trkpt lat="44.517035353171096" lon="10.430776301967862"><ele>382.0</ele><time>2026-04-19T10:04:04Z</time></trkpt><trkpt lat="44.51713475512762" lon="10.430674752148517"><ele>382.0</ele><time>2026-04-19T10:04:05Z</time></trkpt><trkpt lat="44.51724905407155" lon="10.43060577383851"><ele>382.16666666666663</ele><time>2026-04-19T10:04:06Z</time></trkpt><trkpt lat="44.51732993879788" lon="10.430636169165954"><ele>382.3333333333333</ele><time>2026-04-19T10:04:07Z</time></trkpt><trkpt lat="44.51736597725129" lon="10.430790106937884"><ele>382.5</ele><time>2026-04-19T10:04:09Z</time></trkpt><trkpt lat="44.51737544355931" lon="10.430894666636144"><ele>382.6666666666667</ele><time>2026-04-19T10:04:11Z</time></trkpt><trkpt lat="44.5174579298505" lon="10.430874311923361"><ele>382.83333333333337</ele><time>2026-04-19T10:04:14Z</time></trkpt><trkpt lat="44.517519095480516" lon="10.430847422136168"><ele>383.0</ele><time>2026-04-19T10:04:15Z</time></trkpt><trkpt lat="44.517640380320245" lon="10.430856762434836"><ele>383.0</ele><time>2026-04-19T10:04:17Z</time></trkpt><trkpt lat="44.51770531094406" lon="10.430876262313546"><ele>383.0</ele><time>2026-04-19T10:04:18Z</time></trkpt><trkpt lat="44.517887533043734" lon="10.431010532229115"><ele>383.0</ele><time>2026-04-19T10:04:19Z</time></trkpt><trkpt lat="44.51802893855208" lon="10.431035226693604"><ele>383.0</ele><time>2026-04-19T10:04:21Z</time></trkpt><trkpt lat="44.518107284927716" lon="10.4309965431951"><ele>382.83333333333337</ele><time>2026-04-19T10:04:22Z</time></trkpt><trkpt lat="44.51815927770611" lon="10.430916107839835"><ele>382.6666666666667</ele><time>2026-04-19T10:04:23Z</time></trkpt><trkpt lat="44.51819039842422" lon="10.430801659358204"><ele>382.5</ele><time>2026-04-19T10:04:24Z</time></trkpt><trkpt lat="44.51827423014121" lon="10.43077394217357"><ele>382.3333333333333</ele><time>2026-04-19T10:04:26Z</time></trkpt><trkpt lat="44.51835778148986" lon="10.430817196837065"><ele>382.16666666666663</ele><time>2026-04-19T10:04:27Z</time></trkpt><trkpt lat="44.51843495204236" lon="10.43080912298772"><ele>382.0</ele><time>2026-04-19T10:04:28Z</time></trkpt><trkpt lat="44.51853261288609" lon="10.430815930742355"><ele>382.0</ele><time>2026-04-19T10:04:29Z</time></trkpt><trkpt lat="44.518600414050155" lon="10.430816489866027"><ele>382.0</ele><time>2026-04-19T10:04:30Z</time></trkpt><trkpt lat="44.5186992721055" lon="10.430806564328535"><ele>382.0</ele><time>2026-04-19T10:04:32Z</time></trkpt><trkpt lat="44.51871115973442" lon="10.430894035820657"><ele>382.0</ele><time>2026-04-19T10:04:37Z</time></trkpt><trkpt lat="44.518805694711695" lon="10.430970076772743"><ele>382.0</ele><time>2026-04-19T10:04:39Z</time></trkpt><trkpt lat="44.51897960591721" lon="10.431270254208794"><ele>382.0</ele><time>2026-04-19T10:04:41Z</time></trkpt><trkpt lat="44.519072922178346" lon="10.431188180931617"><ele>382.0</ele><time>2026-04-19T10:04:43Z</time></trkpt><trkpt lat="44.519136393150035" lon="10.43114449437343"><ele>382.0</ele><time>2026-04-19T10:04:44Z</time></trkpt><trkpt lat="44.51919270623871" lon="10.431185972033495"><ele>382.0</ele><time>2026-04-19T10:04:47Z</time></trkpt><trkpt lat="44.5192642789458" lon="10.431185449183005"><ele>382.0</ele><time>2026-04-19T10:04:49Z</time></trkpt><trkpt lat="44.51932974779569" lon="10.431235282101978"><ele>382.0</ele><time>2026-04-19T10:04:51Z</time></trkpt><trkpt lat="44.51935913274405" lon="10.431379699048863"><ele>382.25</ele><time>2026-04-19T10:04:53Z</time></trkpt><trkpt lat="44.51937760052882" lon="10.431510342875173"><ele>382.5</ele><time>2026-04-19T10:04:54Z</time></trkpt><trkpt lat="44.5194055029826" lon="10.431656268424037"><ele>382.75</ele><time>2026-04-19T10:04:55Z</time></trkpt><trkpt lat="44.51943206830144" lon="10.431923209937215"><ele>383.0</ele><time>2026-04-19T10:04:56Z</time></trkpt><trkpt lat="44.51944943219071" lon="10.432127873703338"><ele>384.25</ele><time>2026-04-19T10:04:57Z</time></trkpt><trkpt lat="44.51947412113612" lon="10.43231847065856"><ele>385.5</ele><time>2026-04-19T10:04:58Z</time></trkpt><trkpt lat="44.519468663916776" lon="10.432462012043912"><ele>386.75</ele><time>2026-04-19T10:04:59Z</time></trkpt><trkpt lat="44.519480762166474" lon="10.43264033527856"><ele>388.0</ele><time>2026-04-19T10:05:00Z</time></trkpt><trkpt lat="44.51950772118745" lon="10.432775532097114"><ele>387.59999999999997</ele><time>2026-04-19T10:05:01Z</time></trkpt><trkpt lat="44.519567216942114" lon="10.432906350136692"><ele>387.2</ele><time>2026-04-19T10:05:02Z</time></trkpt><trkpt lat="44.5196355827644" lon="10.433001932741373"><ele>386.8</ele><time>2026-04-19T10:05:03Z</time></trkpt><trkpt lat="44.5197245866222" lon="10.43305248438715"><ele>386.4</ele><time>2026-04-19T10:05:04Z</time></trkpt><trkpt lat="44.519835560737256" lon="10.433098611302137"><ele>386.0</ele><time>2026-04-19T10:05:05Z</time></trkpt><trkpt lat="44.51996507072001" lon="10.43312294443475"><ele>386.0</ele><time>2026-04-19T10:05:06Z</time></trkpt><trkpt lat="44.52008892795105" lon="10.433148997005569"><ele>386.0</ele><time>2026-04-19T10:05:07Z</time></trkpt><trkpt lat="44.520269402786106" lon="10.433173159838724"><ele>386.0</ele><time>2026-04-19T10:05:08Z</time></trkpt><trkpt lat="44.520478669469746" lon="10.433198519190553"><ele>385.3333333333333</ele><time>2026-04-19T10:05:09Z</time></trkpt><trkpt lat="44.52070983111879" lon="10.433233143680487"><ele>384.66666666666663</ele><time>2026-04-19T10:05:10Z</time></trkpt><trkpt lat="44.52087417031885" lon="10.433247536523748"><ele>384.0</ele><time>2026-04-19T10:05:11Z</time></trkpt><trkpt lat="44.52099046939524" lon="10.433271447258466"><ele>384.0</ele><time>2026-04-19T10:05:12Z</time></trkpt><trkpt lat="44.52109533453199" lon="10.43326840190216"><ele>384.0</ele><time>2026-04-19T10:05:13Z</time></trkpt><trkpt lat="44.52118417357834" lon="10.433254104520083"><ele>384.0</ele><time>2026-04-19T10:05:14Z</time></trkpt><trkpt lat="44.52129122569575" lon="10.433256811313187"><ele>384.0</ele><time>2026-04-19T10:05:15Z</time></trkpt><trkpt lat="44.52139107693857" lon="10.43326661287378"><ele>384.0</ele><time>2026-04-19T10:05:16Z</time></trkpt><trkpt lat="44.52151263784237" lon="10.433267327259292"><ele>384.6</ele><time>2026-04-19T10:05:17Z</time></trkpt><trkpt lat="44.521627251866406" lon="10.433257836307028"><ele>385.2</ele><time>2026-04-19T10:05:18Z</time></trkpt><trkpt lat="44.5217509820865" lon="10.433253670076175"><ele>385.8</ele><time>2026-04-19T10:05:19Z</time></trkpt><trkpt lat="44.52185546955203" lon="10.433239247819136"><ele>386.40000000000003</ele><time>2026-04-19T10:05:20Z</time></trkpt><trkpt lat="44.521934454268674" lon="10.433239399915598"><ele>387.0</ele><time>2026-04-19T10:05:21Z</time></trkpt><trkpt lat="44.52199099154778" lon="10.433336372824408"><ele>387.0</ele><time>2026-04-19T10:05:24Z</time></trkpt><trkpt lat="44.5220552525753" lon="10.433427229974885"><ele>387.0</ele><time>2026-04-19T10:05:26Z</time></trkpt><trkpt lat="44.522103834717505" lon="10.433511208201905"><ele>387.0</ele><time>2026-04-19T10:05:27Z</time></trkpt><trkpt lat="44.52214909227041" lon="10.433582201033673"><ele>387.0</ele><time>2026-04-19T10:05:28Z</time></trkpt><trkpt lat="44.522193003080346" lon="10.433651001236422"><ele>387.0</ele><time>2026-04-19T10:05:29Z</time></trkpt><trkpt lat="44.52223980676629" lon="10.433718685361145"><ele>387.0</ele><time>2026-04-19T10:05:30Z</time></trkpt><trkpt lat="44.52231296512959" lon="10.433833914762138"><ele>387.5</ele><time>2026-04-19T10:05:32Z</time></trkpt><trkpt lat="44.52237635405552" lon="10.433960100524224"><ele>388.0</ele><time>2026-04-19T10:05:34Z</time></trkpt><trkpt lat="44.52240301943095" lon="10.434059115766878"><ele>388.5</ele><time>2026-04-19T10:05:35Z</time></trkpt><trkpt lat="44.522440360895985" lon="10.434152367405378"><ele>389.0</ele><time>2026-04-19T10:05:36Z</time></trkpt><trkpt lat="44.52249061753546" lon="10.43423398236201"><ele>389.5</ele><time>2026-04-19T10:05:37Z</time></trkpt><trkpt lat="44.52254804554199" lon="10.434295135316667"><ele>390.0</ele><time>2026-04-19T10:05:38Z</time></trkpt><trkpt lat="44.52261965535456" lon="10.43433843346664"><ele>390.0</ele><time>2026-04-19T10:05:39Z</time></trkpt><trkpt lat="44.52270152422427" lon="10.434370312176396"><ele>390.0</ele><time>2026-04-19T10:05:40Z</time></trkpt><trkpt lat="44.522793524183136" lon="10.434385278631586"><ele>390.0</ele><time>2026-04-19T10:05:41Z</time></trkpt><trkpt lat="44.522891383551176" lon="10.434395548569649"><ele>390.0</ele><time>2026-04-19T10:05:42Z</time></trkpt><trkpt lat="44.52297240496492" lon="10.43442995408246"><ele>390.0</ele><time>2026-04-19T10:05:43Z</time></trkpt><trkpt lat="44.52303432027599" lon="10.434479039183705"><ele>390.0</ele><time>2026-04-19T10:05:44Z</time></trkpt><trkpt lat="44.523093469341596" lon="10.434518743206505"><ele>389.8</ele><time>2026-04-19T10:05:45Z</time></trkpt><trkpt lat="44.523156090280104" lon="10.434547003469968"><ele>389.6</ele><time>2026-04-19T10:05:46Z</time></trkpt><trkpt lat="44.52326656990248" lon="10.434616524063882"><ele>389.4</ele><time>2026-04-19T10:05:48Z</time></trkpt><trkpt lat="44.523370411075916" lon="10.434710034861103"><ele>389.2</ele><time>2026-04-19T10:05:49Z</time></trkpt><trkpt lat="44.52346336072729" lon="10.434830051704342"><ele>389.0</ele><time>2026-04-19T10:05:50Z</time></trkpt><trkpt lat="44.52356179366421" lon="10.434937900648748"><ele>389.0</ele><time>2026-04-19T10:05:51Z</time></trkpt><trkpt lat="44.523661171150756" lon="10.435031570457454"><ele>389.0</ele><time>2026-04-19T10:05:52Z</time></trkpt><trkpt lat="44.52374117071539" lon="10.435115949795717"><ele>389.0</ele><time>2026-04-19T10:05:53Z</time></trkpt><trkpt lat="44.52380872542078" lon="10.435193445394614"><ele>389.0</ele><time>2026-04-19T10:05:54Z</time></trkpt><trkpt lat="44.52386678340278" lon="10.43525210259043"><ele>389.0</ele><time>2026-04-19T10:05:55Z</time></trkpt><trkpt lat="44.52395116797959" lon="10.43529624840247"><ele>390.2</ele><time>2026-04-19T10:05:57Z</time></trkpt><trkpt lat="44.52403312253124" lon="10.435352070219924"><ele>391.4</ele><time>2026-04-19T10:06:00Z</time></trkpt><trkpt lat="44.52410357024077" lon="10.435401845067219"><ele>392.6</ele><time>2026-04-19T10:06:02Z</time></trkpt><trkpt lat="44.524186357253264" lon="10.43547505341974"><ele>393.8</ele><time>2026-04-19T10:06:04Z</time></trkpt><trkpt lat="44.52430602327006" lon="10.435547130554749"><ele>395.0</ele><time>2026-04-19T10:06:06Z</time></trkpt><trkpt lat="44.524441127815884" lon="10.435705541514533"><ele>395.3333333333333</ele><time>2026-04-19T10:06:08Z</time></trkpt><trkpt lat="44.524582895476044" lon="10.435782877114097"><ele>395.66666666666663</ele><time>2026-04-19T10:06:09Z</time></trkpt><trkpt lat="44.52475427106432" lon="10.435873955112957"><ele>396.0</ele><time>2026-04-19T10:06:10Z</time></trkpt><trkpt lat="44.524878396072964" lon="10.435932865080419"><ele>396.0</ele><time>2026-04-19T10:06:11Z</time></trkpt><trkpt lat="44.524972023480586" lon="10.435942669951684"><ele>396.0</ele><time>2026-04-19T10:06:12Z</time></trkpt><trkpt lat="44.52508122028682" lon="10.43591883151081"><ele>396.0</ele><time>2026-04-19T10:06:13Z</time></trkpt><trkpt lat="44.52516623093584" lon="10.435923969047757"><ele>396.0</ele><time>2026-04-19T10:06:14Z</time></trkpt><trkpt lat="44.5252263936908" lon="10.435991562234994"><ele>396.0</ele><time>2026-04-19T10:06:15Z</time></trkpt><trkpt lat="44.52531045019517" lon="10.436089626736829"><ele>396.33333333333337</ele><time>2026-04-19T10:06:16Z</time></trkpt><trkpt lat="44.525399134532854" lon="10.436219321052802"><ele>396.6666666666667</ele><time>2026-04-19T10:06:17Z</time></trkpt><trkpt lat="44.525533272321276" lon="10.436371656752296"><ele>397.0</ele><time>2026-04-19T10:06:18Z</time></trkpt><trkpt lat="44.52566900899027" lon="10.43647305276406"><ele>397.0</ele><time>2026-04-19T10:06:19Z</time></trkpt><trkpt lat="44.52578095128975" lon="10.436553861226573"><ele>397.0</ele><time>2026-04-19T10:06:20Z</time></trkpt><trkpt lat="44.52585346757848" lon="10.436634354504218"><ele>397.0</ele><time>2026-04-19T10:06:21Z</time></trkpt><trkpt lat="44.52591066535078" lon="10.436719245558523"><ele>397.0</ele><time>2026-04-19T10:06:22Z</time></trkpt><trkpt lat="44.52597120646716" lon="10.436783512851784"><ele>397.0</ele><time>2026-04-19T10:06:23Z</time></trkpt><trkpt lat="44.52608208751406" lon="10.436810199827352"><ele>397.0</ele><time>2026-04-19T10:06:25Z</time></trkpt><trkpt lat="44.52614828454093" lon="10.436866697856193"><ele>397.0</ele><time>2026-04-19T10:06:28Z</time></trkpt><trkpt lat="44.52620923138011" lon="10.436914205924765"><ele>397.0</ele><time>2026-04-19T10:06:31Z</time></trkpt><trkpt lat="44.526282062487525" lon="10.436953636610893"><ele>397.0</ele><time>2026-04-19T10:06:34Z</time></trkpt><trkpt lat="44.52645653143449" lon="10.437099729230663"><ele>397.0</ele><time>2026-04-19T10:06:36Z</time></trkpt><trkpt lat="44.526506127838765" lon="10.43729635181963"><ele>397.75</ele><time>2026-04-19T10:06:37Z</time></trkpt><trkpt lat="44.526561698847146" lon="10.437563435872363"><ele>398.5</ele><time>2026-04-19T10:06:38Z</time></trkpt><trkpt lat="44.52659749703468" lon="10.437752733664311"><ele>399.25</ele><time>2026-04-19T10:06:39Z</time></trkpt><trkpt lat="44.52663659019756" lon="10.437883026362728"><ele>400.0</ele><time>2026-04-19T10:06:40Z</time></trkpt><trkpt lat="44.526698043798504" lon="10.437982521897283"><ele>400.2</ele><time>2026-04-19T10:06:41Z</time></trkpt><trkpt lat="44.52675986090896" lon="10.438035282020724"><ele>400.4</ele><time>2026-04-19T10:06:42Z</time></trkpt><trkpt lat="44.52683746560277" lon="10.438043923777087"><ele>400.6</ele><time>2026-04-19T10:06:43Z</time></trkpt><trkpt lat="44.52693843452305" lon="10.438023729041648"><ele>400.8</ele><time>2026-04-19T10:06:44Z</time></trkpt><trkpt lat="44.52707954388975" lon="10.438020784100582"><ele>401.0</ele><time>2026-04-19T10:06:45Z</time></trkpt><trkpt lat="44.52722083509344" lon="10.438009999107123"><ele>401.0</ele><time>2026-04-19T10:06:46Z</time></trkpt><trkpt lat="44.527285682163146" lon="10.438008384167192"><ele>401.0</ele><time>2026-04-19T10:06:47Z</time></trkpt><trkpt lat="44.52730889262649" lon="10.43827166644332"><ele>401.0</ele><time>2026-04-19T10:06:49Z</time></trkpt><trkpt lat="44.52734842436399" lon="10.438476405012414"><ele>401.0</ele><time>2026-04-19T10:06:50Z</time></trkpt><trkpt lat="44.52739325384105" lon="10.438609084298182"><ele>401.0</ele><time>2026-04-19T10:06:51Z</time></trkpt><trkpt lat="44.527434798719014" lon="10.438699883953095"><ele>401.0</ele><time>2026-04-19T10:06:52Z</time></trkpt><trkpt lat="44.52752311491847" lon="10.438754924676507"><ele>401.0</ele><time>2026-04-19T10:06:54Z</time></trkpt><trkpt lat="44.52767522864186" lon="10.438822965719417"><ele>401.0</ele><time>2026-04-19T10:06:56Z</time></trkpt><trkpt lat="44.527795669647716" lon="10.438883283686472"><ele>400.8</ele><time>2026-04-19T10:06:57Z</time></trkpt><trkpt lat="44.527898934047336" lon="10.438982837517452"><ele>400.6</ele><time>2026-04-19T10:06:58Z</time></trkpt><trkpt lat="44.52794096862365" lon="10.439059353426913"><ele>400.4</ele><time>2026-04-19T10:06:59Z</time></trkpt><trkpt lat="44.52788697926066" lon="10.439204706719579"><ele>400.2</ele><time>2026-04-19T10:07:01Z</time></trkpt><trkpt lat="44.527831683559704" lon="10.439310893455852"><ele>400.0</ele><time>2026-04-19T10:07:02Z</time></trkpt><trkpt lat="44.5278068316643" lon="10.439423910879057"><ele>400.0</ele><time>2026-04-19T10:07:03Z</time></trkpt><trkpt lat="44.52779932110839" lon="10.439528789992131"><ele>400.0</ele><time>2026-04-19T10:07:04Z</time></trkpt><trkpt lat="44.52776496679821" lon="10.439615197955444"><ele>400.0</ele><time>2026-04-19T10:07:05Z</time></trkpt><trkpt lat="44.527684795780374" lon="10.439682428991931"><ele>400.0</ele><time>2026-04-19T10:07:06Z</time></trkpt><trkpt lat="44.527580185798264" lon="10.439766089731563"><ele>400.0</ele><time>2026-04-19T10:07:07Z</time></trkpt><trkpt lat="44.52747248476382" lon="10.43987609368656"><ele>400.0</ele><time>2026-04-19T10:07:08Z</time></trkpt><trkpt lat="44.52736616395787" lon="10.439995781087445"><ele>400.0</ele><time>2026-04-19T10:07:09Z</time></trkpt><trkpt lat="44.52725997815683" lon="10.440115524210919"><ele>400.0</ele><time>2026-04-19T10:07:10Z</time></trkpt><trkpt lat="44.52715983723773" lon="10.440230586265786"><ele>400.0</ele><time>2026-04-19T10:07:11Z</time></trkpt><trkpt lat="44.527059170864504" lon="10.440344358938479"><ele>400.8</ele><time>2026-04-19T10:07:12Z</time></trkpt><trkpt lat="44.52696331580365" lon="10.440452943443999"><ele>401.6</ele><time>2026-04-19T10:07:13Z</time></trkpt><trkpt lat="44.526885763491094" lon="10.440548622097117"><ele>402.4</ele><time>2026-04-19T10:07:14Z</time></trkpt><trkpt lat="44.526825904295166" lon="10.440641390752074"><ele>403.2</ele><time>2026-04-19T10:07:15Z</time></trkpt><trkpt lat="44.52683263629448" lon="10.440777356505581"><ele>404.0</ele><time>2026-04-19T10:07:17Z</time></trkpt><trkpt lat="44.526895558666475" lon="10.440842072441072"><ele>404.0</ele><time>2026-04-19T10:07:18Z</time></trkpt><trkpt lat="44.527060139210604" lon="10.440935440862445"><ele>404.0</ele><time>2026-04-19T10:07:19Z</time></trkpt><trkpt lat="44.52720230636954" lon="10.441075077375425"><ele>404.0</ele><time>2026-04-19T10:07:20Z</time></trkpt><trkpt lat="44.52730360186917" lon="10.44119320236197"><ele>404.2</ele><time>2026-04-19T10:07:21Z</time></trkpt><trkpt lat="44.527362504607964" lon="10.441325529898977"><ele>404.4</ele><time>2026-04-19T10:07:22Z</time></trkpt><trkpt lat="44.52742835287865" lon="10.441472662666868"><ele>404.6</ele><time>2026-04-19T10:07:23Z</time></trkpt><trkpt lat="44.52747198417024" lon="10.441607131731285"><ele>404.8</ele><time>2026-04-19T10:07:24Z</time></trkpt><trkpt lat="44.52749820549084" lon="10.44175049900487"><ele>405.0</ele><time>2026-04-19T10:07:25Z</time></trkpt><trkpt lat="44.527534791887476" lon="10.441894030972144"><ele>405.0</ele><time>2026-04-19T10:07:26Z</time></trkpt><trkpt lat="44.527589336929566" lon="10.44201783005687"><ele>405.0</ele><time>2026-04-19T10:07:27Z</time></trkpt><trkpt lat="44.52766396796748" lon="10.442122313099242"><ele>405.0</ele><time>2026-04-19T10:07:28Z</time></trkpt><trkpt lat="44.52773897856416" lon="10.442211328774544"><ele>405.0</ele><time>2026-04-19T10:07:29Z</time></trkpt><trkpt lat="44.527803591139985" lon="10.442263622046319"><ele>405.0</ele><time>2026-04-19T10:07:30Z</time></trkpt><trkpt lat="44.52786706151273" lon="10.442292719097201"><ele>405.0</ele><time>2026-04-19T10:07:31Z</time></trkpt><trkpt lat="44.527953080904766" lon="10.442345409501073"><ele>405.25</ele><time>2026-04-19T10:07:32Z</time></trkpt><trkpt lat="44.52805779110947" lon="10.442440403269309"><ele>405.5</ele><time>2026-04-19T10:07:33Z</time></trkpt><trkpt lat="44.528141397242" lon="10.44255705402017"><ele>405.75</ele><time>2026-04-19T10:07:34Z</time></trkpt><trkpt lat="44.52820525606787" lon="10.442703027813998"><ele>406.0</ele><time>2026-04-19T10:07:35Z</time></trkpt><trkpt lat="44.528238027347584" lon="10.44283732304122"><ele>406.0</ele><time>2026-04-19T10:07:36Z</time></trkpt><trkpt lat="44.52824557802615" lon="10.442977472448868"><ele>406.0</ele><time>2026-04-19T10:07:37Z</time></trkpt><trkpt lat="44.528238330258695" lon="10.443114025769077"><ele>406.0</ele><time>2026-04-19T10:07:38Z</time></trkpt><trkpt lat="44.52823954376967" lon="10.443241446142483"><ele>406.0</ele><time>2026-04-19T10:07:39Z</time></trkpt><trkpt lat="44.52823342737588" lon="10.443390224536548"><ele>406.0</ele><time>2026-04-19T10:07:40Z</time></trkpt><trkpt lat="44.5282209040222" lon="10.443589391671548"><ele>407.25</ele><time>2026-04-19T10:07:41Z</time></trkpt><trkpt lat="44.52822464926264" lon="10.443855051463574"><ele>408.5</ele><time>2026-04-19T10:07:42Z</time></trkpt><trkpt lat="44.52822227318354" lon="10.4440489771606"><ele>409.75</ele><time>2026-04-19T10:07:43Z</time></trkpt><trkpt lat="44.52820207001462" lon="10.444188651912182"><ele>411.0</ele><time>2026-04-19T10:07:44Z</time></trkpt><trkpt lat="44.528276941286286" lon="10.444240763249773"><ele>411.0</ele><time>2026-04-19T10:07:46Z</time></trkpt><trkpt lat="44.528377157776184" lon="10.444252813164342"><ele>411.0</ele><time>2026-04-19T10:07:47Z</time></trkpt><trkpt lat="44.52850469070388" lon="10.444196010257615"><ele>411.0</ele><time>2026-04-19T10:07:48Z</time></trkpt><trkpt lat="44.52865081129047" lon="10.444156365027686"><ele>411.0</ele><time>2026-04-19T10:07:49Z</time></trkpt><trkpt lat="44.52876064175398" lon="10.44420580693918"><ele>411.75</ele><time>2026-04-19T10:07:50Z</time></trkpt><trkpt lat="44.52889553866552" lon="10.444275462566189"><ele>412.5</ele><time>2026-04-19T10:07:51Z</time></trkpt><trkpt lat="44.52900358620152" lon="10.44436433081518"><ele>413.25</ele><time>2026-04-19T10:07:52Z</time></trkpt><trkpt lat="44.529079204446326" lon="10.44449122618892"><ele>414.0</ele><time>2026-04-19T10:07:53Z</time></trkpt><trkpt lat="44.52913786886999" lon="10.444666737031637"><ele>414.0</ele><time>2026-04-19T10:07:54Z</time></trkpt><trkpt lat="44.529144009455614" lon="10.444789678513967"><ele>414.0</ele><time>2026-04-19T10:07:55Z</time></trkpt><trkpt lat="44.52905990426596" lon="10.445019029154853"><ele>414.0</ele><time>2026-04-19T10:07:56Z</time></trkpt><trkpt lat="44.52901644576431" lon="10.445210260131967"><ele>414.0</ele><time>2026-04-19T10:07:57Z</time></trkpt><trkpt lat="44.5289786135708" lon="10.445387867325817"><ele>414.6</ele><time>2026-04-19T10:07:58Z</time></trkpt><trkpt lat="44.52896059190328" lon="10.445551911681251"><ele>415.2</ele><time>2026-04-19T10:07:59Z</time></trkpt><trkpt lat="44.528950923500354" lon="10.445680051711232"><ele>415.8</ele><time>2026-04-19T10:08:00Z</time></trkpt><trkpt lat="44.528944745904006" lon="10.445828910021442"><ele>416.40000000000003</ele><time>2026-04-19T10:08:01Z</time></trkpt><trkpt lat="44.52895687999688" lon="10.445964575423924"><ele>417.0</ele><time>2026-04-19T10:08:02Z</time></trkpt><trkpt lat="44.52899045341542" lon="10.44607207792419"><ele>417.0</ele><time>2026-04-19T10:08:03Z</time></trkpt><trkpt lat="44.5290419913133" lon="10.446153738156838"><ele>417.0</ele><time>2026-04-19T10:08:04Z</time></trkpt><trkpt lat="44.529092813317774" lon="10.446243728323719"><ele>417.0</ele><time>2026-04-19T10:08:06Z</time></trkpt><trkpt lat="44.52911695639686" lon="10.446357803539696"><ele>417.0</ele><time>2026-04-19T10:08:09Z</time></trkpt><trkpt lat="44.52910273260735" lon="10.44644942841395"><ele>417.0</ele><time>2026-04-19T10:08:12Z</time></trkpt><trkpt lat="44.52923872580804" lon="10.446709017053031"><ele>417.25</ele><time>2026-04-19T10:08:13Z</time></trkpt><trkpt lat="44.52928087976871" lon="10.446837248534427"><ele>417.5</ele><time>2026-04-19T10:08:15Z</time></trkpt><trkpt lat="44.52927389469634" lon="10.44693781989759"><ele>417.75</ele><time>2026-04-19T10:08:19Z</time></trkpt><trkpt lat="44.529247781100665" lon="10.447128080730737"><ele>418.0</ele><time>2026-04-19T10:08:21Z</time></trkpt><trkpt lat="44.52924814651266" lon="10.447367545913554"><ele>418.0</ele><time>2026-04-19T10:08:22Z</time></trkpt><trkpt lat="44.52922754280416" lon="10.44760992328947"><ele>418.0</ele><time>2026-04-19T10:08:23Z</time></trkpt><trkpt lat="44.52920517178288" lon="10.447730195413472"><ele>418.0</ele><time>2026-04-19T10:08:24Z</time></trkpt><trkpt lat="44.52923620957844" lon="10.447877103384421"><ele>418.0</ele><time>2026-04-19T10:08:25Z</time></trkpt><trkpt lat="44.52930316115054" lon="10.44797514210285"><ele>418.6666666666667</ele><time>2026-04-19T10:08:26Z</time></trkpt><trkpt lat="44.5293722463329" lon="10.448067579625057"><ele>419.33333333333337</ele><time>2026-04-19T10:08:27Z</time></trkpt><trkpt lat="44.52943097476821" lon="10.448163304786307"><ele>420.0</ele><time>2026-04-19T10:08:28Z</time></trkpt><trkpt lat="44.52945367203712" lon="10.448280466471573"><ele>420.66666666666663</ele><time>2026-04-19T10:08:30Z</time></trkpt><trkpt lat="44.5294349410417" lon="10.44838592641515"><ele>421.3333333333333</ele><time>2026-04-19T10:08:32Z</time></trkpt><trkpt lat="44.529463799987234" lon="10.448508242001575"><ele>422.0</ele><time>2026-04-19T10:08:34Z</time></trkpt><trkpt lat="44.52950507158156" lon="10.448625286534428"><ele>422.0</ele><time>2026-04-19T10:08:35Z</time></trkpt><trkpt lat="44.529428423776196" lon="10.448782404741845"><ele>422.0</ele><time>2026-04-19T10:08:37Z</time></trkpt><trkpt lat="44.529352999450694" lon="10.448918524924421"><ele>422.0</ele><time>2026-04-19T10:08:38Z</time></trkpt><trkpt lat="44.52927008864617" lon="10.449140704170329"><ele>422.0</ele><time>2026-04-19T10:08:39Z</time></trkpt><trkpt lat="44.52919684158149" lon="10.44931736449614"><ele>422.20000000000005</ele><time>2026-04-19T10:08:40Z</time></trkpt><trkpt lat="44.52916247806252" lon="10.449440408314711"><ele>422.4</ele><time>2026-04-19T10:08:41Z</time></trkpt><trkpt lat="44.52916038226772" lon="10.449534562328374"><ele>422.6</ele><time>2026-04-19T10:08:42Z</time></trkpt><trkpt lat="44.52925296554627" lon="10.449706179989896"><ele>422.79999999999995</ele><time>2026-04-19T10:08:44Z</time></trkpt><trkpt lat="44.52928032506972" lon="10.449825077697716"><ele>423.0</ele><time>2026-04-19T10:08:46Z</time></trkpt><trkpt lat="44.52921143414218" lon="10.449984590965542"><ele>423.0</ele><time>2026-04-19T10:08:49Z</time></trkpt><trkpt lat="44.52913589072444" lon="10.450138794744184"><ele>423.0</ele><time>2026-04-19T10:08:51Z</time></trkpt><trkpt lat="44.52930076005653" lon="10.45025403158552"><ele>423.0</ele><time>2026-04-19T10:08:53Z</time></trkpt><trkpt lat="44.529367834515725" lon="10.450316936850626"><ele>423.0</ele><time>2026-04-19T10:08:54Z</time></trkpt><trkpt lat="44.52930416159856" lon="10.450558618030012"><ele>423.25</ele><time>2026-04-19T10:08:55Z</time></trkpt><trkpt lat="44.52927256178814" lon="10.450714840851905"><ele>423.5</ele><time>2026-04-19T10:08:56Z</time></trkpt><trkpt lat="44.52931760941208" lon="10.4508733565771"><ele>423.75</ele><time>2026-04-19T10:08:57Z</time></trkpt><trkpt lat="44.529378618989625" lon="10.451001290783658"><ele>424.0</ele><time>2026-04-19T10:08:58Z</time></trkpt><trkpt lat="44.529428321338045" lon="10.451214340515952"><ele>424.0</ele><time>2026-04-19T10:08:59Z</time></trkpt><trkpt lat="44.52942487870199" lon="10.451410733001001"><ele>424.0</ele><time>2026-04-19T10:09:00Z</time></trkpt><trkpt lat="44.52939332301475" lon="10.45160325668208"><ele>424.0</ele><time>2026-04-19T10:09:01Z</time></trkpt><trkpt lat="44.529343573507575" lon="10.451818943893008"><ele>424.0</ele><time>2026-04-19T10:09:02Z</time></trkpt><trkpt lat="44.52927545522244" lon="10.452068391168222"><ele>424.4</ele><time>2026-04-19T10:09:03Z</time></trkpt><trkpt lat="44.52925551880826" lon="10.45227718428721"><ele>424.79999999999995</ele><time>2026-04-19T10:09:04Z</time></trkpt><trkpt lat="44.52924428571101" lon="10.4523927536557"><ele>425.20000000000005</ele><time>2026-04-19T10:09:05Z</time></trkpt><trkpt lat="44.52922109345331" lon="10.452520374838606"><ele>425.6</ele><time>2026-04-19T10:09:06Z</time></trkpt><trkpt lat="44.52921375896833" lon="10.452608314182477"><ele>426.0</ele><time>2026-04-19T10:09:07Z</time></trkpt><trkpt lat="44.52922838395827" lon="10.452717331741308"><ele>426.0</ele><time>2026-04-19T10:09:08Z</time></trkpt><trkpt lat="44.529231837646606" lon="10.452828778006435"><ele>426.0</ele><time>2026-04-19T10:09:09Z</time></trkpt><trkpt lat="44.52925737297999" lon="10.452958239526152"><ele>426.0</ele><time>2026-04-19T10:09:10Z</time></trkpt><trkpt lat="44.5292665279395" lon="10.453152837508735"><ele>426.0</ele><time>2026-04-19T10:09:11Z</time></trkpt><trkpt lat="44.52927209211662" lon="10.453342135065585"><ele>426.0</ele><time>2026-04-19T10:09:12Z</time></trkpt><trkpt lat="44.529266508248895" lon="10.45353116412509"><ele>426.0</ele><time>2026-04-19T10:09:13Z</time></trkpt><trkpt lat="44.52928346259753" lon="10.453717019247206"><ele>426.0</ele><time>2026-04-19T10:09:14Z</time></trkpt><trkpt lat="44.52931631720778" lon="10.453889259545958"><ele>426.0</ele><time>2026-04-19T10:09:15Z</time></trkpt><trkpt lat="44.52936952284193" lon="10.454036823177002"><ele>426.0</ele><time>2026-04-19T10:09:16Z</time></trkpt><trkpt lat="44.52942678651213" lon="10.45416458980527"><ele>426.8</ele><time>2026-04-19T10:09:17Z</time></trkpt><trkpt lat="44.529506231509274" lon="10.454312400550666"><ele>427.6</ele><time>2026-04-19T10:09:18Z</time></trkpt><trkpt lat="44.529581882767474" lon="10.454447569041012"><ele>428.4</ele><time>2026-04-19T10:09:19Z</time></trkpt><trkpt lat="44.529650213668106" lon="10.454536636150996"><ele>429.2</ele><time>2026-04-19T10:09:20Z</time></trkpt><trkpt lat="44.529716240743305" lon="10.454607698132595"><ele>430.0</ele><time>2026-04-19T10:09:21Z</time></trkpt><trkpt lat="44.52978255497885" lon="10.454652900592794"><ele>430.25</ele><time>2026-04-19T10:09:22Z</time></trkpt><trkpt lat="44.52987503909244" lon="10.454685973370538"><ele>430.5</ele><time>2026-04-19T10:09:23Z</time></trkpt><trkpt lat="44.52996327915644" lon="10.454732066088749"><ele>430.75</ele><time>2026-04-19T10:09:24Z</time></trkpt><trkpt lat="44.53008761377866" lon="10.454794840052333"><ele>431.0</ele><time>2026-04-19T10:09:25Z</time></trkpt><trkpt lat="44.53021847882928" lon="10.454859546053049"><ele>431.0</ele><time>2026-04-19T10:09:26Z</time></trkpt><trkpt lat="44.53033608325419" lon="10.454921216923275"><ele>431.0</ele><time>2026-04-19T10:09:27Z</time></trkpt><trkpt lat="44.53039966085155" lon="10.45498942340268"><ele>431.0</ele><time>2026-04-19T10:09:28Z</time></trkpt><trkpt lat="44.530448260771" lon="10.455115082513036"><ele>431.0</ele><time>2026-04-19T10:09:29Z</time></trkpt><trkpt lat="44.530495885074274" lon="10.4552743992202"><ele>431.0</ele><time>2026-04-19T10:09:30Z</time></trkpt><trkpt lat="44.530545200547074" lon="10.455419982817373"><ele>433.25</ele><time>2026-04-19T10:09:31Z</time></trkpt><trkpt lat="44.53057060213802" lon="10.455545681246283"><ele>435.5</ele><time>2026-04-19T10:09:32Z</time></trkpt><trkpt lat="44.53056731813877" lon="10.45567233638025"><ele>437.75</ele><time>2026-04-19T10:09:33Z</time></trkpt><trkpt lat="44.53055098672848" lon="10.455843166909284"><ele>440.0</ele><time>2026-04-19T10:09:34Z</time></trkpt><trkpt lat="44.53055416216359" lon="10.456058246576386"><ele>440.25</ele><time>2026-04-19T10:09:35Z</time></trkpt><trkpt lat="44.53059795812638" lon="10.456302225151015"><ele>440.5</ele><time>2026-04-19T10:09:36Z</time></trkpt><trkpt lat="44.53063796886574" lon="10.456484933979281"><ele>440.75</ele><time>2026-04-19T10:09:37Z</time></trkpt><trkpt lat="44.5306510682768" lon="10.456628107833543"><ele>441.0</ele><time>2026-04-19T10:09:38Z</time></trkpt><trkpt lat="44.53064372310522" lon="10.4567472323952"><ele>441.0</ele><time>2026-04-19T10:09:39Z</time></trkpt><trkpt lat="44.53063760111441" lon="10.456956268741566"><ele>441.0</ele><time>2026-04-19T10:09:41Z</time></trkpt><trkpt lat="44.53059643980343" lon="10.457116128656649"><ele>441.0</ele><time>2026-04-19T10:09:42Z</time></trkpt><trkpt lat="44.53051753119628" lon="10.457264130546783"><ele>441.0</ele><time>2026-04-19T10:09:43Z</time></trkpt><trkpt lat="44.53044224704864" lon="10.457363775581504"><ele>440.20000000000005</ele><time>2026-04-19T10:09:44Z</time></trkpt><trkpt lat="44.530412028377036" lon="10.457453109844796"><ele>439.40000000000003</ele><time>2026-04-19T10:09:45Z</time></trkpt><trkpt lat="44.53044403286662" lon="10.457554958569503"><ele>438.6</ele><time>2026-04-19T10:09:46Z</time></trkpt><trkpt lat="44.530475171615464" lon="10.457687933770632"><ele>437.8</ele><time>2026-04-19T10:09:47Z</time></trkpt><trkpt lat="44.53050166073244" lon="10.45785886932534"><ele>437.0</ele><time>2026-04-19T10:09:48Z</time></trkpt><trkpt lat="44.53051234169171" lon="10.458061873277142"><ele>436.5</ele><time>2026-04-19T10:09:49Z</time></trkpt><trkpt lat="44.530506024192995" lon="10.45827154781173"><ele>436.0</ele><time>2026-04-19T10:09:50Z</time></trkpt><trkpt lat="44.530492263515306" lon="10.45845088161433"><ele>435.5</ele><time>2026-04-19T10:09:51Z</time></trkpt><trkpt lat="44.53048247651821" lon="10.458641075127707"><ele>435.0</ele><time>2026-04-19T10:09:52Z</time></trkpt><trkpt lat="44.53047322417641" lon="10.458850381789128"><ele>435.0</ele><time>2026-04-19T10:09:53Z</time></trkpt><trkpt lat="44.53047817834811" lon="10.459028612654487"><ele>435.0</ele><time>2026-04-19T10:09:54Z</time></trkpt><trkpt lat="44.53049960914418" lon="10.459197996923336"><ele>435.0</ele><time>2026-04-19T10:09:55Z</time></trkpt><trkpt lat="44.530542722161236" lon="10.459331772707964"><ele>435.0</ele><time>2026-04-19T10:09:56Z</time></trkpt><trkpt lat="44.530640818936966" lon="10.45946752040214"><ele>434.66666666666663</ele><time>2026-04-19T10:09:57Z</time></trkpt><trkpt lat="44.530773747922574" lon="10.459643756775888"><ele>434.3333333333333</ele><time>2026-04-19T10:09:58Z</time></trkpt><trkpt lat="44.53084772667995" lon="10.459811636014152"><ele>434.0</ele><time>2026-04-19T10:09:59Z</time></trkpt><trkpt lat="44.530906266250916" lon="10.459970216081787"><ele>434.0</ele><time>2026-04-19T10:10:00Z</time></trkpt><trkpt lat="44.53098620683395" lon="10.460117660525757"><ele>434.0</ele><time>2026-04-19T10:10:01Z</time></trkpt><trkpt lat="44.53108365871129" lon="10.460265824767989"><ele>434.0</ele><time>2026-04-19T10:10:02Z</time></trkpt><trkpt lat="44.53122454739678" lon="10.460468370733395"><ele>436.5</ele><time>2026-04-19T10:10:03Z</time></trkpt><trkpt lat="44.53132524325755" lon="10.460644640587194"><ele>439.0</ele><time>2026-04-19T10:10:04Z</time></trkpt><trkpt lat="44.531380538360764" lon="10.460808344234858"><ele>441.5</ele><time>2026-04-19T10:10:05Z</time></trkpt><trkpt lat="44.531400047937865" lon="10.461015201216412"><ele>444.0</ele><time>2026-04-19T10:10:06Z</time></trkpt><trkpt lat="44.53139282498147" lon="10.461213915068647"><ele>444.5</ele><time>2026-04-19T10:10:07Z</time></trkpt><trkpt lat="44.531333239287065" lon="10.4613930588415"><ele>445.0</ele><time>2026-04-19T10:10:08Z</time></trkpt><trkpt lat="44.5312385922579" lon="10.461564383392748"><ele>445.5</ele><time>2026-04-19T10:10:09Z</time></trkpt><trkpt lat="44.53113580540827" lon="10.46171636942832"><ele>446.0</ele><time>2026-04-19T10:10:10Z</time></trkpt><trkpt lat="44.5310539031405" lon="10.461848717367475"><ele>444.25</ele><time>2026-04-19T10:10:11Z</time></trkpt><trkpt lat="44.53095572461092" lon="10.461975443929129"><ele>442.5</ele><time>2026-04-19T10:10:12Z</time></trkpt><trkpt lat="44.53085231212036" lon="10.46207701226125"><ele>440.75</ele><time>2026-04-19T10:10:13Z</time></trkpt><trkpt lat="44.530767526376536" lon="10.46217987489103"><ele>439.0</ele><time>2026-04-19T10:10:14Z</time></trkpt><trkpt lat="44.53068950500467" lon="10.46227592012924"><ele>439.0</ele><time>2026-04-19T10:10:15Z</time></trkpt><trkpt lat="44.530630813177005" lon="10.462421899292906"><ele>439.0</ele><time>2026-04-19T10:10:16Z</time></trkpt><trkpt lat="44.5305806734972" lon="10.462590446927365"><ele>439.0</ele><time>2026-04-19T10:10:17Z</time></trkpt><trkpt lat="44.5305553484728" lon="10.462758921037004"><ele>439.0</ele><time>2026-04-19T10:10:18Z</time></trkpt><trkpt lat="44.53055636469428" lon="10.462942078381891"><ele>439.5</ele><time>2026-04-19T10:10:19Z</time></trkpt><trkpt lat="44.53055949079273" lon="10.46313528433035"><ele>440.0</ele><time>2026-04-19T10:10:20Z</time></trkpt><trkpt lat="44.530557439163246" lon="10.463319688029973"><ele>440.5</ele><time>2026-04-19T10:10:21Z</time></trkpt><trkpt lat="44.530551929064906" lon="10.463496359490257"><ele>441.0</ele><time>2026-04-19T10:10:22Z</time></trkpt><trkpt lat="44.53054339487052" lon="10.463658384627267"><ele>441.4</ele><time>2026-04-19T10:10:23Z</time></trkpt><trkpt lat="44.53052906790293" lon="10.463819360901748"><ele>441.8</ele><time>2026-04-19T10:10:24Z</time></trkpt><trkpt lat="44.53051999489714" lon="10.463972249685085"><ele>442.19999999999993</ele><time>2026-04-19T10:10:25Z</time></trkpt><trkpt lat="44.53052289704933" lon="10.46409443224072"><ele>442.59999999999997</ele><time>2026-04-19T10:10:26Z</time></trkpt><trkpt lat="44.53056193045216" lon="10.464215439780698"><ele>443.0</ele><time>2026-04-19T10:10:27Z</time></trkpt><trkpt lat="44.53061893927918" lon="10.464337872290043"><ele>443.0</ele><time>2026-04-19T10:10:28Z</time></trkpt><trkpt lat="44.53068585713193" lon="10.464437679401504"><ele>442.99999999999994</ele><time>2026-04-19T10:10:29Z</time></trkpt><trkpt lat="44.53075663353071" lon="10.46453223018274"><ele>442.99999999999994</ele><time>2026-04-19T10:10:30Z</time></trkpt><trkpt lat="44.53082036043275" lon="10.464648769738961"><ele>443.0</ele><time>2026-04-19T10:10:31Z</time></trkpt><trkpt lat="44.53088572004456" lon="10.464768094315504"><ele>443.0</ele><time>2026-04-19T10:10:32Z</time></trkpt><trkpt lat="44.530939460040805" lon="10.464899136911402"><ele>443.0</ele><time>2026-04-19T10:10:33Z</time></trkpt><trkpt lat="44.53098904933718" lon="10.465036108961225"><ele>443.0</ele><time>2026-04-19T10:10:34Z</time></trkpt><trkpt lat="44.53103297175942" lon="10.465175803579323"><ele>443.0</ele><time>2026-04-19T10:10:35Z</time></trkpt><trkpt lat="44.53107415095414" lon="10.465338958100478"><ele>443.0</ele><time>2026-04-19T10:10:36Z</time></trkpt><trkpt lat="44.531100489761144" lon="10.465490538615416"><ele>443.0</ele><time>2026-04-19T10:10:37Z</time></trkpt><trkpt lat="44.531114996185735" lon="10.465626641045265"><ele>442.99999999999994</ele><time>2026-04-19T10:10:38Z</time></trkpt><trkpt lat="44.531120533163914" lon="10.465756680620553"><ele>442.99999999999994</ele><time>2026-04-19T10:10:39Z</time></trkpt><trkpt lat="44.531126083338044" lon="10.465873439545716"><ele>443.0</ele><time>2026-04-19T10:10:40Z</time></trkpt><trkpt lat="44.531127813284144" lon="10.465992849270014"><ele>443.0</ele><time>2026-04-19T10:10:41Z</time></trkpt><trkpt lat="44.53112895907438" lon="10.466122138360973"><ele>442.99999999999994</ele><time>2026-04-19T10:10:42Z</time></trkpt><trkpt lat="44.53112528982828" lon="10.466253291571018"><ele>443.0</ele><time>2026-04-19T10:10:43Z</time></trkpt><trkpt lat="44.53110549612995" lon="10.466379507531478"><ele>443.0</ele><time>2026-04-19T10:10:44Z</time></trkpt><trkpt lat="44.53108522426922" lon="10.466500636448423"><ele>443.0</ele><time>2026-04-19T10:10:45Z</time></trkpt><trkpt lat="44.53106077435896" lon="10.46661473553707"><ele>442.99999999999994</ele><time>2026-04-19T10:10:46Z</time></trkpt><trkpt lat="44.53103857741814" lon="10.466733058113611"><ele>443.0</ele><time>2026-04-19T10:10:47Z</time></trkpt><trkpt lat="44.53100811065391" lon="10.466845113291582"><ele>443.59999999999997</ele><time>2026-04-19T10:10:48Z</time></trkpt><trkpt lat="44.53098114032756" lon="10.466957628011455"><ele>444.19999999999993</ele><time>2026-04-19T10:10:49Z</time></trkpt><trkpt lat="44.5309526663176" lon="10.467079993956013"><ele>444.8</ele><time>2026-04-19T10:10:50Z</time></trkpt><trkpt lat="44.53091123006891" lon="10.467206339994718"><ele>445.4</ele><time>2026-04-19T10:10:51Z</time></trkpt><trkpt lat="44.53085861206089" lon="10.46733722087861"><ele>446.0</ele><time>2026-04-19T10:10:52Z</time></trkpt><trkpt lat="44.53082886881976" lon="10.467459636711798"><ele>446.20000000000005</ele><time>2026-04-19T10:10:53Z</time></trkpt><trkpt lat="44.530798890885" lon="10.467582917276689"><ele>446.40000000000003</ele><time>2026-04-19T10:10:54Z</time></trkpt><trkpt lat="44.53076081621197" lon="10.467710133450199"><ele>446.6</ele><time>2026-04-19T10:10:55Z</time></trkpt><trkpt lat="44.530722788718315" lon="10.467839356831478"><ele>446.8</ele><time>2026-04-19T10:10:56Z</time></trkpt><trkpt lat="44.530685266316496" lon="10.467983350098558"><ele>447.0</ele><time>2026-04-19T10:10:57Z</time></trkpt><trkpt lat="44.53064263831916" lon="10.46814132565607"><ele>447.0</ele><time>2026-04-19T10:10:58Z</time></trkpt><trkpt lat="44.53061067754495" lon="10.46827199489461"><ele>447.0</ele><time>2026-04-19T10:10:59Z</time></trkpt><trkpt lat="44.53059044516893" lon="10.468397677087664"><ele>447.0</ele><time>2026-04-19T10:11:00Z</time></trkpt><trkpt lat="44.53057826170791" lon="10.468511761444438"><ele>447.0</ele><time>2026-04-19T10:11:01Z</time></trkpt><trkpt lat="44.53058608242682" lon="10.468625555131146"><ele>447.0</ele><time>2026-04-19T10:11:02Z</time></trkpt><trkpt lat="44.530626199857146" lon="10.46873124478472"><ele>447.0</ele><time>2026-04-19T10:11:03Z</time></trkpt><trkpt lat="44.53066481486114" lon="10.46882680005225"><ele>447.5</ele><time>2026-04-19T10:11:04Z</time></trkpt><trkpt lat="44.53070577302078" lon="10.468902813771729"><ele>448.0</ele><time>2026-04-19T10:11:05Z</time></trkpt><trkpt lat="44.5307605721867" lon="10.469011256177858"><ele>448.5</ele><time>2026-04-19T10:11:07Z</time></trkpt><trkpt lat="44.53070670192973" lon="10.469069923871695"><ele>449.0</ele><time>2026-04-19T10:11:09Z</time></trkpt><trkpt lat="44.53069522161555" lon="10.46915915682813"><ele>449.5</ele><time>2026-04-19T10:11:11Z</time></trkpt><trkpt lat="44.53076515304491" lon="10.46924496931117"><ele>450.0</ele><time>2026-04-19T10:11:13Z</time></trkpt><trkpt lat="44.5308016715781" lon="10.469356853157347"><ele>450.0</ele><time>2026-04-19T10:11:15Z</time></trkpt><trkpt lat="44.530822087176716" lon="10.46946743575235"><ele>450.0</ele><time>2026-04-19T10:11:17Z</time></trkpt><trkpt lat="44.53086113497283" lon="10.469612509576065"><ele>450.0</ele><time>2026-04-19T10:11:19Z</time></trkpt><trkpt lat="44.53086350198262" lon="10.46974668250748"><ele>450.0</ele><time>2026-04-19T10:11:20Z</time></trkpt><trkpt lat="44.53087576444771" lon="10.469905925812387"><ele>450.0</ele><time>2026-04-19T10:11:21Z</time></trkpt><trkpt lat="44.53090758842613" lon="10.470013546989621"><ele>451.0</ele><time>2026-04-19T10:11:22Z</time></trkpt><trkpt lat="44.5309838582999" lon="10.470073957716695"><ele>452.0</ele><time>2026-04-19T10:11:23Z</time></trkpt><trkpt lat="44.53112495412737" lon="10.470176033544817"><ele>453.0</ele><time>2026-04-19T10:11:24Z</time></trkpt><trkpt lat="44.531210586116224" lon="10.470319608824742"><ele>454.0</ele><time>2026-04-19T10:11:25Z</time></trkpt><trkpt lat="44.53122399170743" lon="10.470461265637182"><ele>454.75</ele><time>2026-04-19T10:11:26Z</time></trkpt><trkpt lat="44.531215332861876" lon="10.470626415631772"><ele>455.5</ele><time>2026-04-19T10:11:27Z</time></trkpt><trkpt lat="44.53116875873819" lon="10.470775493993383"><ele>456.25</ele><time>2026-04-19T10:11:28Z</time></trkpt><trkpt lat="44.53108339714219" lon="10.470887873993812"><ele>457.0</ele><time>2026-04-19T10:11:29Z</time></trkpt><trkpt lat="44.530967465503544" lon="10.470976818276496"><ele>457.0</ele><time>2026-04-19T10:11:30Z</time></trkpt><trkpt lat="44.530843778740106" lon="10.471034233909"><ele>457.00000000000006</ele><time>2026-04-19T10:11:31Z</time></trkpt><trkpt lat="44.53073320144918" lon="10.47105521025522"><ele>457.00000000000006</ele><time>2026-04-19T10:11:32Z</time></trkpt><trkpt lat="44.5306544365558" lon="10.471102994106705"><ele>457.0</ele><time>2026-04-19T10:11:33Z</time></trkpt><trkpt lat="44.53061461176873" lon="10.47120915577474"><ele>457.0</ele><time>2026-04-19T10:11:34Z</time></trkpt><trkpt lat="44.53059750410274" lon="10.471358346989506"><ele>457.00000000000006</ele><time>2026-04-19T10:11:35Z</time></trkpt><trkpt lat="44.53060767939926" lon="10.471547152949801"><ele>457.0</ele><time>2026-04-19T10:11:36Z</time></trkpt><trkpt lat="44.53062064981567" lon="10.471688270936966"><ele>457.0</ele><time>2026-04-19T10:11:37Z</time></trkpt><trkpt lat="44.53064312103927" lon="10.471781329467396"><ele>457.0</ele><time>2026-04-19T10:11:39Z</time></trkpt><trkpt lat="44.53062035442034" lon="10.471868890362085"><ele>457.00000000000006</ele><time>2026-04-19T10:11:41Z</time></trkpt><trkpt lat="44.530575771951696" lon="10.471933728609095"><ele>457.0</ele><time>2026-04-19T10:11:43Z</time></trkpt><trkpt lat="44.530555210382595" lon="10.472023439863406"><ele>458.20000000000005</ele><time>2026-04-19T10:11:45Z</time></trkpt><trkpt lat="44.53057127123739" lon="10.472110658535069"><ele>459.40000000000003</ele><time>2026-04-19T10:11:46Z</time></trkpt><trkpt lat="44.53057617059604" lon="10.472209905832697"><ele>460.59999999999997</ele><time>2026-04-19T10:11:47Z</time></trkpt><trkpt lat="44.5305335233807" lon="10.47237746017315"><ele>461.79999999999995</ele><time>2026-04-19T10:11:48Z</time></trkpt><trkpt lat="44.53047257115246" lon="10.47259071985742"><ele>463.0</ele><time>2026-04-19T10:11:49Z</time></trkpt><trkpt lat="44.53038043841741" lon="10.472812493599491"><ele>461.75</ele><time>2026-04-19T10:11:50Z</time></trkpt><trkpt lat="44.530311484629024" lon="10.473018455523773"><ele>460.5</ele><time>2026-04-19T10:11:51Z</time></trkpt><trkpt lat="44.530299875534304" lon="10.473173445214458"><ele>459.25</ele><time>2026-04-19T10:11:52Z</time></trkpt><trkpt lat="44.530288943064676" lon="10.47332571115769"><ele>458.0</ele><time>2026-04-19T10:11:53Z</time></trkpt><trkpt lat="44.53026178380947" lon="10.47345916374011"><ele>458.0</ele><time>2026-04-19T10:11:54Z</time></trkpt><trkpt lat="44.53023545200107" lon="10.473549373327664"><ele>458.0</ele><time>2026-04-19T10:11:55Z</time></trkpt><trkpt lat="44.530202211654824" lon="10.473630765254374"><ele>458.0</ele><time>2026-04-19T10:11:56Z</time></trkpt><trkpt lat="44.530156486399335" lon="10.473701839927198"><ele>458.0</ele><time>2026-04-19T10:11:57Z</time></trkpt><trkpt lat="44.53009026907875" lon="10.473733116960835"><ele>458.0</ele><time>2026-04-19T10:11:58Z</time></trkpt><trkpt lat="44.53001977547258" lon="10.473747820077573"><ele>458.0</ele><time>2026-04-19T10:11:59Z</time></trkpt><trkpt lat="44.52994744387735" lon="10.473762650710512"><ele>458.0</ele><time>2026-04-19T10:12:00Z</time></trkpt><trkpt lat="44.529883211716864" lon="10.473807302304248"><ele>458.75</ele><time>2026-04-19T10:12:02Z</time></trkpt><trkpt lat="44.52979711753884" lon="10.47382211501632"><ele>459.5</ele><time>2026-04-19T10:12:04Z</time></trkpt><trkpt lat="44.529803478250045" lon="10.474033908143117"><ele>460.25</ele><time>2026-04-19T10:12:06Z</time></trkpt><trkpt lat="44.52984299268658" lon="10.474185004409838"><ele>461.0</ele><time>2026-04-19T10:12:07Z</time></trkpt><trkpt lat="44.529866536935025" lon="10.474396403324214"><ele>461.0</ele><time>2026-04-19T10:12:08Z</time></trkpt><trkpt lat="44.52986112330534" lon="10.474585594532648"><ele>461.0</ele><time>2026-04-19T10:12:09Z</time></trkpt><trkpt lat="44.52986539560615" lon="10.474715644791011"><ele>461.0</ele><time>2026-04-19T10:12:10Z</time></trkpt><trkpt lat="44.52982444609879" lon="10.474789962242431"><ele>461.0</ele><time>2026-04-19T10:12:11Z</time></trkpt><trkpt lat="44.52972219640554" lon="10.474839736328533"><ele>461.0</ele><time>2026-04-19T10:12:12Z</time></trkpt><trkpt lat="44.52961441957102" lon="10.474832511854391"><ele>462.5</ele><time>2026-04-19T10:12:13Z</time></trkpt><trkpt lat="44.529482575548556" lon="10.47477145047965"><ele>464.0</ele><time>2026-04-19T10:12:14Z</time></trkpt><trkpt lat="44.52936011788174" lon="10.474689555343861"><ele>465.5</ele><time>2026-04-19T10:12:15Z</time></trkpt><trkpt lat="44.52924931290093" lon="10.4747817036603"><ele>467.0</ele><time>2026-04-19T10:12:17Z</time></trkpt><trkpt lat="44.52919960144074" lon="10.474922271222855"><ele>467.0</ele><time>2026-04-19T10:12:18Z</time></trkpt><trkpt lat="44.529215660897165" lon="10.475038445247412"><ele>467.00000000000006</ele><time>2026-04-19T10:12:19Z</time></trkpt><trkpt lat="44.529231683474016" lon="10.475162497309105"><ele>467.00000000000006</ele><time>2026-04-19T10:12:20Z</time></trkpt><trkpt lat="44.52925337212141" lon="10.475316798560065"><ele>467.0</ele><time>2026-04-19T10:12:21Z</time></trkpt><trkpt lat="44.52926462592793" lon="10.475482625417612"><ele>467.0</ele><time>2026-04-19T10:12:22Z</time></trkpt><trkpt lat="44.529240571213315" lon="10.475607651521214"><ele>469.0</ele><time>2026-04-19T10:12:23Z</time></trkpt><trkpt lat="44.52917701061004" lon="10.475701468130547"><ele>471.0</ele><time>2026-04-19T10:12:24Z</time></trkpt><trkpt lat="44.529086480395364" lon="10.475826152511317"><ele>473.0</ele><time>2026-04-19T10:12:25Z</time></trkpt><trkpt lat="44.5289827339677" lon="10.475963164615907"><ele>475.0</ele><time>2026-04-19T10:12:26Z</time></trkpt><trkpt lat="44.52888234776071" lon="10.47607282853082"><ele>475.00000000000006</ele><time>2026-04-19T10:12:27Z</time></trkpt><trkpt lat="44.52881392741759" lon="10.47616489861519"><ele>475.0</ele><time>2026-04-19T10:12:28Z</time></trkpt><trkpt lat="44.52877336152379" lon="10.476235915481451"><ele>475.0</ele><time>2026-04-19T10:12:29Z</time></trkpt><trkpt lat="44.52869794350409" lon="10.476297176355624"><ele>475.0</ele><time>2026-04-19T10:12:30Z</time></trkpt><trkpt lat="44.52862353051825" lon="10.476290505995706"><ele>475.00000000000006</ele><time>2026-04-19T10:12:31Z</time></trkpt><trkpt lat="44.528559303658724" lon="10.476216785481151"><ele>475.0</ele><time>2026-04-19T10:12:32Z</time></trkpt><trkpt lat="44.52853181280654" lon="10.47609428904105"><ele>473.75</ele><time>2026-04-19T10:12:33Z</time></trkpt><trkpt lat="44.52846745569694" lon="10.476031873283144"><ele>472.5</ele><time>2026-04-19T10:12:34Z</time></trkpt><trkpt lat="44.52841149924161" lon="10.476156778828337"><ele>471.25</ele><time>2026-04-19T10:12:36Z</time></trkpt><trkpt lat="44.52838416992091" lon="10.476258762340954"><ele>470.0</ele><time>2026-04-19T10:12:37Z</time></trkpt><trkpt lat="44.52833809916929" lon="10.47653054889158"><ele>472.2</ele><time>2026-04-19T10:12:39Z</time></trkpt><trkpt lat="44.52830865405065" lon="10.476667047253931"><ele>474.4</ele><time>2026-04-19T10:12:40Z</time></trkpt><trkpt lat="44.52823368314048" lon="10.476803188935492"><ele>476.6</ele><time>2026-04-19T10:12:42Z</time></trkpt><trkpt lat="44.5281756843264" lon="10.476841329150849"><ele>478.8</ele><time>2026-04-19T10:12:43Z</time></trkpt><trkpt lat="44.5280926854491" lon="10.47685388161429"><ele>481.0</ele><time>2026-04-19T10:12:44Z</time></trkpt><trkpt lat="44.52797235491728" lon="10.476816466114865"><ele>479.75</ele><time>2026-04-19T10:12:45Z</time></trkpt><trkpt lat="44.527858518618" lon="10.47676407911703"><ele>478.5</ele><time>2026-04-19T10:12:46Z</time></trkpt><trkpt lat="44.527701283245655" lon="10.47670286824277"><ele>477.25</ele><time>2026-04-19T10:12:47Z</time></trkpt><trkpt lat="44.52758256586434" lon="10.47668001245616"><ele>476.0</ele><time>2026-04-19T10:12:48Z</time></trkpt><trkpt lat="44.527490424845894" lon="10.476688666911052"><ele>476.0</ele><time>2026-04-19T10:12:49Z</time></trkpt><trkpt lat="44.527397361753344" lon="10.476707851909"><ele>476.0</ele><time>2026-04-19T10:12:50Z</time></trkpt><trkpt lat="44.52731852758155" lon="10.476724016665463"><ele>476.0</ele><time>2026-04-19T10:12:51Z</time></trkpt><trkpt lat="44.52722912323405" lon="10.476770493583889"><ele>476.0</ele><time>2026-04-19T10:12:52Z</time></trkpt><trkpt lat="44.52713555236594" lon="10.476821741309458"><ele>476.0</ele><time>2026-04-19T10:12:53Z</time></trkpt><trkpt lat="44.527039673277585" lon="10.476810709308973"><ele>476.6</ele><time>2026-04-19T10:12:54Z</time></trkpt><trkpt lat="44.52696540054448" lon="10.476769126990337"><ele>477.20000000000005</ele><time>2026-04-19T10:12:55Z</time></trkpt><trkpt lat="44.52690899175419" lon="10.476663349977414"><ele>477.79999999999995</ele><time>2026-04-19T10:12:56Z</time></trkpt><trkpt lat="44.52682820792712" lon="10.476529462111676"><ele>478.4</ele><time>2026-04-19T10:12:57Z</time></trkpt><trkpt lat="44.52674990975098" lon="10.476370174360467"><ele>479.0</ele><time>2026-04-19T10:12:58Z</time></trkpt><trkpt lat="44.52666098104833" lon="10.476264487149303"><ele>479.0</ele><time>2026-04-19T10:12:59Z</time></trkpt><trkpt lat="44.52658285073015" lon="10.476233404261325"><ele>479.0</ele><time>2026-04-19T10:13:00Z</time></trkpt><trkpt lat="44.52649973803164" lon="10.476224814958508"><ele>479.0</ele><time>2026-04-19T10:13:01Z</time></trkpt><trkpt lat="44.5263773509881" lon="10.476251659399725"><ele>479.0</ele><time>2026-04-19T10:13:02Z</time></trkpt><trkpt lat="44.526279758888066" lon="10.476258647636307"><ele>479.0</ele><time>2026-04-19T10:13:03Z</time></trkpt><trkpt lat="44.526188383927895" lon="10.476283391637661"><ele>479.49999999999994</ele><time>2026-04-19T10:13:04Z</time></trkpt><trkpt lat="44.52609583891222" lon="10.476315919821483"><ele>480.0</ele><time>2026-04-19T10:13:05Z</time></trkpt><trkpt lat="44.52601837251008" lon="10.476344357167426"><ele>480.5</ele><time>2026-04-19T10:13:06Z</time></trkpt><trkpt lat="44.525954190401364" lon="10.476387265797447"><ele>481.0</ele><time>2026-04-19T10:13:07Z</time></trkpt><trkpt lat="44.52588544141026" lon="10.476446379650904"><ele>481.49999999999994</ele><time>2026-04-19T10:13:08Z</time></trkpt><trkpt lat="44.52582151668894" lon="10.476519807241193"><ele>482.0</ele><time>2026-04-19T10:13:09Z</time></trkpt><trkpt lat="44.525784941136806" lon="10.476638605959382"><ele>482.0</ele><time>2026-04-19T10:13:10Z</time></trkpt><trkpt lat="44.52574725094975" lon="10.476774227404333"><ele>482.00000000000006</ele><time>2026-04-19T10:13:11Z</time></trkpt><trkpt lat="44.52564936208486" lon="10.47687248974236"><ele>482.00000000000006</ele><time>2026-04-19T10:13:13Z</time></trkpt><trkpt lat="44.52558492549697" lon="10.476847690787913"><ele>482.0</ele><time>2026-04-19T10:13:14Z</time></trkpt><trkpt lat="44.525504255563966" lon="10.476762271313946"><ele>482.0</ele><time>2026-04-19T10:13:15Z</time></trkpt><trkpt lat="44.52542898086789" lon="10.476653882814055"><ele>481.6</ele><time>2026-04-19T10:13:16Z</time></trkpt><trkpt lat="44.52532526443086" lon="10.476559533082629"><ele>481.20000000000005</ele><time>2026-04-19T10:13:17Z</time></trkpt><trkpt lat="44.52522670884332" lon="10.476460056350495"><ele>480.8</ele><time>2026-04-19T10:13:18Z</time></trkpt><trkpt lat="44.525147380219636" lon="10.476382226109203"><ele>480.4</ele><time>2026-04-19T10:13:19Z</time></trkpt><trkpt lat="44.52508267782887" lon="10.476329354890222"><ele>480.0</ele><time>2026-04-19T10:13:20Z</time></trkpt><trkpt lat="44.52496581293891" lon="10.47638533086038"><ele>480.0</ele><time>2026-04-19T10:13:22Z</time></trkpt><trkpt lat="44.52491364958291" lon="10.4764770280148"><ele>480.0</ele><time>2026-04-19T10:13:23Z</time></trkpt><trkpt lat="44.524867608013984" lon="10.476617841868608"><ele>480.0</ele><time>2026-04-19T10:13:24Z</time></trkpt><trkpt lat="44.52478574254833" lon="10.476748578093405"><ele>480.0</ele><time>2026-04-19T10:13:25Z</time></trkpt><trkpt lat="44.52471895830283" lon="10.476871685716503"><ele>480.0</ele><time>2026-04-19T10:13:26Z</time></trkpt><trkpt lat="44.52465296296992" lon="10.476991562132076"><ele>482.6</ele><time>2026-04-19T10:13:27Z</time></trkpt><trkpt lat="44.524564265918805" lon="10.477116046198145"><ele>485.2</ele><time>2026-04-19T10:13:28Z</time></trkpt><trkpt lat="44.524463479129516" lon="10.477194207850294"><ele>487.79999999999995</ele><time>2026-04-19T10:13:29Z</time></trkpt><trkpt lat="44.52439836314436" lon="10.477249408694725"><ele>490.4</ele><time>2026-04-19T10:13:30Z</time></trkpt><trkpt lat="44.5242914785735" lon="10.477358746268463"><ele>493.0</ele><time>2026-04-19T10:13:32Z</time></trkpt><trkpt lat="44.52421538102791" lon="10.477366321909866"><ele>493.0</ele><time>2026-04-19T10:13:33Z</time></trkpt><trkpt lat="44.52416086555634" lon="10.477315982952605"><ele>492.99999999999994</ele><time>2026-04-19T10:13:34Z</time></trkpt><trkpt lat="44.524105267242284" lon="10.477221898222632"><ele>492.99999999999994</ele><time>2026-04-19T10:13:35Z</time></trkpt><trkpt lat="44.52404741505479" lon="10.477100743033409"><ele>493.0</ele><time>2026-04-19T10:13:36Z</time></trkpt><trkpt lat="44.523968519042626" lon="10.476980722084077"><ele>493.0</ele><time>2026-04-19T10:13:37Z</time></trkpt><trkpt lat="44.523875224856" lon="10.476901090749736"><ele>492.00000000000006</ele><time>2026-04-19T10:13:38Z</time></trkpt><trkpt lat="44.523781528140496" lon="10.476889499812215"><ele>491.0</ele><time>2026-04-19T10:13:39Z</time></trkpt><trkpt lat="44.52369667815558" lon="10.476929285695288"><ele>490.0</ele><time>2026-04-19T10:13:40Z</time></trkpt><trkpt lat="44.523620701878066" lon="10.476987997506047"><ele>489.0</ele><time>2026-04-19T10:13:41Z</time></trkpt><trkpt lat="44.52355980480997" lon="10.477073933844464"><ele>488.00000000000006</ele><time>2026-04-19T10:13:42Z</time></trkpt><trkpt lat="44.523534297426096" lon="10.477172174386881"><ele>487.0</ele><time>2026-04-19T10:13:43Z</time></trkpt><trkpt lat="44.52353143573101" lon="10.477272107160514"><ele>486.8</ele><time>2026-04-19T10:13:44Z</time></trkpt><trkpt lat="44.52352679205913" lon="10.47737119433173"><ele>486.6</ele><time>2026-04-19T10:13:45Z</time></trkpt><trkpt lat="44.52346867207267" lon="10.47753583512296"><ele>486.40000000000003</ele><time>2026-04-19T10:13:47Z</time></trkpt><trkpt lat="44.52341706626794" lon="10.477622913525758"><ele>486.20000000000005</ele><time>2026-04-19T10:13:48Z</time></trkpt><trkpt lat="44.52334670701867" lon="10.477689822558274"><ele>486.0</ele><time>2026-04-19T10:13:49Z</time></trkpt><trkpt lat="44.523271767077674" lon="10.477754951175418"><ele>486.0</ele><time>2026-04-19T10:13:50Z</time></trkpt><trkpt lat="44.523357810971625" lon="10.4778737294794"><ele>486.0</ele><time>2026-04-19T10:13:52Z</time></trkpt><trkpt lat="44.52343496910376" lon="10.477899048563687"><ele>486.0</ele><time>2026-04-19T10:13:53Z</time></trkpt><trkpt lat="44.52337280641054" lon="10.478026648467297"><ele>486.0</ele><time>2026-04-19T10:13:55Z</time></trkpt><trkpt lat="44.52327850579263" lon="10.4779714806705"><ele>486.0</ele><time>2026-04-19T10:13:56Z</time></trkpt><trkpt lat="44.52321556579681" lon="10.477961660444782"><ele>486.4</ele><time>2026-04-19T10:13:57Z</time></trkpt><trkpt lat="44.52315435219145" lon="10.478014685776218"><ele>486.8</ele><time>2026-04-19T10:13:58Z</time></trkpt><trkpt lat="44.5230843928387" lon="10.478046948512942"><ele>487.19999999999993</ele><time>2026-04-19T10:13:59Z</time></trkpt><trkpt lat="44.522978033855495" lon="10.478068481873525"><ele>487.59999999999997</ele><time>2026-04-19T10:14:00Z</time></trkpt><trkpt lat="44.52285383939542" lon="10.47808374636729"><ele>488.0</ele><time>2026-04-19T10:14:01Z</time></trkpt><trkpt lat="44.52272548016689" lon="10.478101949083328"><ele>488.0</ele><time>2026-04-19T10:14:02Z</time></trkpt><trkpt lat="44.522604625924274" lon="10.478130117770288"><ele>488.0</ele><time>2026-04-19T10:14:03Z</time></trkpt><trkpt lat="44.52248937248509" lon="10.478164472912715"><ele>488.0</ele><time>2026-04-19T10:14:04Z</time></trkpt><trkpt lat="44.522378687340385" lon="10.478206352798844"><ele>488.0</ele><time>2026-04-19T10:14:05Z</time></trkpt><trkpt lat="44.52227559924208" lon="10.478253648965197"><ele>487.99999999999994</ele><time>2026-04-19T10:14:06Z</time></trkpt><trkpt lat="44.52218759364117" lon="10.47828960452411"><ele>488.0</ele><time>2026-04-19T10:14:07Z</time></trkpt><trkpt lat="44.522110482463326" lon="10.478319487846694"><ele>488.0</ele><time>2026-04-19T10:14:08Z</time></trkpt><trkpt lat="44.5220349097909" lon="10.47834248901613"><ele>488.0</ele><time>2026-04-19T10:14:09Z</time></trkpt><trkpt lat="44.52195387462118" lon="10.478369385814341"><ele>487.99999999999994</ele><time>2026-04-19T10:14:10Z</time></trkpt><trkpt lat="44.52188450294703" lon="10.478409936098446"><ele>488.0</ele><time>2026-04-19T10:14:11Z</time></trkpt><trkpt lat="44.52183346345154" lon="10.478476497856597"><ele>488.4</ele><time>2026-04-19T10:14:12Z</time></trkpt><trkpt lat="44.52179223986065" lon="10.478576787193166"><ele>488.79999999999995</ele><time>2026-04-19T10:14:13Z</time></trkpt><trkpt lat="44.52177480889998" lon="10.478709977798005"><ele>489.2</ele><time>2026-04-19T10:14:14Z</time></trkpt><trkpt lat="44.521772996888934" lon="10.478842616631084"><ele>489.6</ele><time>2026-04-19T10:14:15Z</time></trkpt><trkpt lat="44.521750431888435" lon="10.47895027958345"><ele>490.0</ele><time>2026-04-19T10:14:16Z</time></trkpt><trkpt lat="44.52168513079874" lon="10.479058707197776"><ele>490.0</ele><time>2026-04-19T10:14:17Z</time></trkpt><trkpt lat="44.521631731445446" lon="10.479152431547934"><ele>490.0</ele><time>2026-04-19T10:14:18Z</time></trkpt><trkpt lat="44.52156471362494" lon="10.479278200541483"><ele>490.0</ele><time>2026-04-19T10:14:20Z</time></trkpt><trkpt lat="44.521457028281105" lon="10.479231714998397"><ele>490.0</ele><time>2026-04-19T10:14:22Z</time></trkpt><trkpt lat="44.52134301618609" lon="10.479204367157273"><ele>490.0</ele><time>2026-04-19T10:14:24Z</time></trkpt><trkpt lat="44.52125637397222" lon="10.479229317600259"><ele>493.75</ele><time>2026-04-19T10:14:25Z</time></trkpt><trkpt lat="44.521178559922895" lon="10.47923041157922"><ele>497.5</ele><time>2026-04-19T10:14:26Z</time></trkpt><trkpt lat="44.52098521778132" lon="10.479296647834861"><ele>501.25</ele><time>2026-04-19T10:14:27Z</time></trkpt><trkpt lat="44.52083581520569" lon="10.479360347034108"><ele>505.0</ele><time>2026-04-19T10:14:28Z</time></trkpt><trkpt lat="44.5206923460129" lon="10.479400070882859"><ele>505.0</ele><time>2026-04-19T10:14:29Z</time></trkpt><trkpt lat="44.520552129756666" lon="10.479460192035774"><ele>505.0</ele><time>2026-04-19T10:14:30Z</time></trkpt><trkpt lat="44.52043987205868" lon="10.479504361547518"><ele>505.0</ele><time>2026-04-19T10:14:31Z</time></trkpt><trkpt lat="44.520352652453994" lon="10.479572214244607"><ele>505.0</ele><time>2026-04-19T10:14:33Z</time></trkpt><trkpt lat="44.520324563906655" lon="10.479652244404008"><ele>505.0</ele><time>2026-04-19T10:14:34Z</time></trkpt><trkpt lat="44.52033346219138" lon="10.479757646398939"><ele>506.1666666666667</ele><time>2026-04-19T10:14:35Z</time></trkpt><trkpt lat="44.52031892365131" lon="10.479871690732882"><ele>507.33333333333337</ele><time>2026-04-19T10:14:36Z</time></trkpt><trkpt lat="44.520283696569166" lon="10.479984139456057"><ele>508.5</ele><time>2026-04-19T10:14:37Z</time></trkpt><trkpt lat="44.52025111840096" lon="10.480064827006117"><ele>509.66666666666663</ele><time>2026-04-19T10:14:38Z</time></trkpt><trkpt lat="44.52027303612455" lon="10.480159871824112"><ele>510.8333333333333</ele><time>2026-04-19T10:14:39Z</time></trkpt><trkpt lat="44.52032731158956" lon="10.480279371217168"><ele>512.0</ele><time>2026-04-19T10:14:40Z</time></trkpt><trkpt lat="44.52031068361303" lon="10.480409602508319"><ele>512.0</ele><time>2026-04-19T10:14:42Z</time></trkpt><trkpt lat="44.520215159427096" lon="10.480501827212237"><ele>512.0</ele><time>2026-04-19T10:14:44Z</time></trkpt><trkpt lat="44.52015899416704" lon="10.480429347796687"><ele>512.0</ele><time>2026-04-19T10:14:46Z</time></trkpt><trkpt lat="44.52008432927159" lon="10.480429509215103"><ele>512.0</ele><time>2026-04-19T10:14:49Z</time></trkpt><trkpt lat="44.519994010316864" lon="10.480454534942602"><ele>512.0</ele><time>2026-04-19T10:14:51Z</time></trkpt><trkpt lat="44.51974405621531" lon="10.480438268816956"><ele>511.99999999999994</ele><time>2026-04-19T10:14:53Z</time></trkpt><trkpt lat="44.51966554001312" lon="10.480422399238089"><ele>512.0</ele><time>2026-04-19T10:14:54Z</time></trkpt><trkpt lat="44.51962603997668" lon="10.48049211443429"><ele>512.0</ele><time>2026-04-19T10:14:55Z</time></trkpt><trkpt lat="44.51958611304433" lon="10.480561482681818"><ele>512.0</ele><time>2026-04-19T10:14:56Z</time></trkpt><trkpt lat="44.51952133893765" lon="10.480715056022854"><ele>511.99999999999994</ele><time>2026-04-19T10:14:58Z</time></trkpt><trkpt lat="44.519477116734045" lon="10.480825833381399"><ele>512.0</ele><time>2026-04-19T10:14:59Z</time></trkpt><trkpt lat="44.51940920776358" lon="10.481033178800883"><ele>510.5</ele><time>2026-04-19T10:15:00Z</time></trkpt><trkpt lat="44.51933951297676" lon="10.481173781613293"><ele>509.0</ele><time>2026-04-19T10:15:01Z</time></trkpt><trkpt lat="44.51924139695634" lon="10.481294787652784"><ele>507.5</ele><time>2026-04-19T10:15:02Z</time></trkpt><trkpt lat="44.519143309271975" lon="10.481400501853004"><ele>506.0</ele><time>2026-04-19T10:15:03Z</time></trkpt><trkpt lat="44.519062447240714" lon="10.481474052248725"><ele>506.0</ele><time>2026-04-19T10:15:04Z</time></trkpt><trkpt lat="44.51897864680762" lon="10.481503253176784"><ele>506.0</ele><time>2026-04-19T10:15:05Z</time></trkpt><trkpt lat="44.518889004126855" lon="10.481488088956409"><ele>506.0</ele><time>2026-04-19T10:15:06Z</time></trkpt><trkpt lat="44.51885945372805" lon="10.481376895141308"><ele>506.0</ele><time>2026-04-19T10:15:07Z</time></trkpt><trkpt lat="44.51880009481959" lon="10.48125106307828"><ele>506.0</ele><time>2026-04-19T10:15:09Z</time></trkpt><trkpt lat="44.51873727226413" lon="10.48133630580373"><ele>504.25</ele><time>2026-04-19T10:15:11Z</time></trkpt><trkpt lat="44.518720819177624" lon="10.481438863666185"><ele>502.5</ele><time>2026-04-19T10:15:12Z</time></trkpt><trkpt lat="44.51867738854434" lon="10.481518022710663"><ele>500.75</ele><time>2026-04-19T10:15:15Z</time></trkpt><trkpt lat="44.51845692274753" lon="10.48171560572194"><ele>499.0</ele><time>2026-04-19T10:15:17Z</time></trkpt><trkpt lat="44.51843903766574" lon="10.481814196782675"><ele>499.0</ele><time>2026-04-19T10:15:18Z</time></trkpt><trkpt lat="44.51846198344748" lon="10.481915875262441"><ele>499.0</ele><time>2026-04-19T10:15:19Z</time></trkpt><trkpt lat="44.51846250597625" lon="10.48203170714647"><ele>499.0</ele><time>2026-04-19T10:15:20Z</time></trkpt><trkpt lat="44.51842785225545" lon="10.482118516652125"><ele>499.0</ele><time>2026-04-19T10:15:21Z</time></trkpt><trkpt lat="44.51830528303679" lon="10.48213365788165"><ele>499.0</ele><time>2026-04-19T10:15:23Z</time></trkpt><trkpt lat="44.51818293205733" lon="10.482160511127192"><ele>501.25</ele><time>2026-04-19T10:15:24Z</time></trkpt><trkpt lat="44.51804431078297" lon="10.482196303853454"><ele>503.5</ele><time>2026-04-19T10:15:25Z</time></trkpt><trkpt lat="44.51792269239235" lon="10.482249358412085"><ele>505.75</ele><time>2026-04-19T10:15:26Z</time></trkpt><trkpt lat="44.51780009532207" lon="10.482302522690714"><ele>508.0</ele><time>2026-04-19T10:15:27Z</time></trkpt><trkpt lat="44.517675956968944" lon="10.482351702598612"><ele>508.0</ele><time>2026-04-19T10:15:28Z</time></trkpt><trkpt lat="44.51756087161522" lon="10.4823839606397"><ele>507.99999999999994</ele><time>2026-04-19T10:15:29Z</time></trkpt><trkpt lat="44.517462286251664" lon="10.482418051702135"><ele>507.99999999999994</ele><time>2026-04-19T10:15:30Z</time></trkpt><trkpt lat="44.51736806289484" lon="10.48246376605277"><ele>508.0</ele><time>2026-04-19T10:15:31Z</time></trkpt><trkpt lat="44.51731386824405" lon="10.48252963711109"><ele>508.0</ele><time>2026-04-19T10:15:32Z</time></trkpt><trkpt lat="44.51726541179862" lon="10.482611274398046"><ele>508.0</ele><time>2026-04-19T10:15:33Z</time></trkpt><trkpt lat="44.51721314337542" lon="10.482696753298306"><ele>507.99999999999994</ele><time>2026-04-19T10:15:34Z</time></trkpt><trkpt lat="44.517121976117394" lon="10.4827785409345"><ele>507.99999999999994</ele><time>2026-04-19T10:15:35Z</time></trkpt><trkpt lat="44.51703767285562" lon="10.482852561631939"><ele>508.0</ele><time>2026-04-19T10:15:36Z</time></trkpt><trkpt lat="44.51694435664176" lon="10.482961486809772"><ele>508.0</ele><time>2026-04-19T10:15:37Z</time></trkpt><trkpt lat="44.516858426598525" lon="10.483061082290305"><ele>508.33333333333337</ele><time>2026-04-19T10:15:38Z</time></trkpt><trkpt lat="44.51678921618768" lon="10.483148727098081"><ele>508.6666666666667</ele><time>2026-04-19T10:15:39Z</time></trkpt><trkpt lat="44.51669160143727" lon="10.483175255708051"><ele>509.0</ele><time>2026-04-19T10:15:41Z</time></trkpt><trkpt lat="44.516629967459686" lon="10.483137685460024"><ele>509.33333333333337</ele><time>2026-04-19T10:15:43Z</time></trkpt><trkpt lat="44.51654622802205" lon="10.48310317241666"><ele>509.6666666666667</ele><time>2026-04-19T10:15:46Z</time></trkpt><trkpt lat="44.51652858788728" lon="10.483197059923336"><ele>510.0</ele><time>2026-04-19T10:15:48Z</time></trkpt><trkpt lat="44.51651994140329" lon="10.48328597263647"><ele>510.0</ele><time>2026-04-19T10:15:50Z</time></trkpt><trkpt lat="44.51643919192021" lon="10.483632891354748"><ele>510.0</ele><time>2026-04-19T10:15:52Z</time></trkpt><trkpt lat="44.51649517152654" lon="10.483695413574948"><ele>510.0</ele><time>2026-04-19T10:15:54Z</time></trkpt><trkpt lat="44.5165606959209" lon="10.483728196314727"><ele>510.0</ele><time>2026-04-19T10:16:15Z</time></trkpt><trkpt lat="44.51664667413885" lon="10.483662155488231"><ele>510.0</ele><time>2026-04-19T10:16:17Z</time></trkpt><trkpt lat="44.516714199460196" lon="10.483641861331632"><ele>510.0</ele><time>2026-04-19T10:16:18Z</time></trkpt><trkpt lat="44.51678895525029" lon="10.48367433507876"><ele>510.0</ele><time>2026-04-19T10:16:19Z</time></trkpt><trkpt lat="44.516885321885034" lon="10.483599635279473"><ele>510.0</ele><time>2026-04-19T10:16:20Z</time></trkpt><trkpt lat="44.5170146996339" lon="10.48360492874742"><ele>510.0</ele><time>2026-04-19T10:16:21Z</time></trkpt><trkpt lat="44.51712449000495" lon="10.48359296989379"><ele>512.25</ele><time>2026-04-19T10:16:22Z</time></trkpt><trkpt lat="44.51724890279814" lon="10.483564712772505"><ele>514.5</ele><time>2026-04-19T10:16:23Z</time></trkpt><trkpt lat="44.51737752221288" lon="10.483558532940782"><ele>516.75</ele><time>2026-04-19T10:16:24Z</time></trkpt><trkpt lat="44.51751186704325" lon="10.483499105584322"><ele>519.0</ele><time>2026-04-19T10:16:25Z</time></trkpt><trkpt lat="44.51764097732361" lon="10.483462643591052"><ele>519.0</ele><time>2026-04-19T10:16:26Z</time></trkpt><trkpt lat="44.517717759075055" lon="10.483492376968055"><ele>519.0</ele><time>2026-04-19T10:16:27Z</time></trkpt><trkpt lat="44.51782467797861" lon="10.483519922555974"><ele>519.0</ele><time>2026-04-19T10:16:28Z</time></trkpt><trkpt lat="44.517932407358266" lon="10.483533079430698"><ele>519.0</ele><time>2026-04-19T10:16:29Z</time></trkpt><trkpt lat="44.51803078218487" lon="10.483602752164005"><ele>519.0</ele><time>2026-04-19T10:16:30Z</time></trkpt><trkpt lat="44.51809476990485" lon="10.48363393882349"><ele>524.4</ele><time>2026-04-19T10:16:31Z</time></trkpt><trkpt lat="44.51807706600402" lon="10.483814647666433"><ele>529.8</ele><time>2026-04-19T10:16:32Z</time></trkpt><trkpt lat="44.5181170157145" lon="10.48396906861873"><ele>535.2</ele><time>2026-04-19T10:16:34Z</time></trkpt><trkpt lat="44.518181171697286" lon="10.484033754693002"><ele>540.6</ele><time>2026-04-19T10:16:35Z</time></trkpt><trkpt lat="44.51825896849566" lon="10.484136125264476"><ele>546.0</ele><time>2026-04-19T10:16:36Z</time></trkpt><trkpt lat="44.51832289470044" lon="10.484240852478104"><ele>546.0</ele><time>2026-04-19T10:16:37Z</time></trkpt><trkpt lat="44.51836087680854" lon="10.484347560815523"><ele>546.0</ele><time>2026-04-19T10:16:38Z</time></trkpt><trkpt lat="44.51827867741786" lon="10.48440380224779"><ele>546.0</ele><time>2026-04-19T10:16:40Z</time></trkpt><trkpt lat="44.51811701579016" lon="10.484464382650538"><ele>546.0</ele><time>2026-04-19T10:16:42Z</time></trkpt><trkpt lat="44.5179495395421" lon="10.484433814489595"><ele>546.0</ele><time>2026-04-19T10:16:43Z</time></trkpt><trkpt lat="44.51782613099416" lon="10.484362773431313"><ele>546.0</ele><time>2026-04-19T10:16:44Z</time></trkpt><trkpt lat="44.51776347171944" lon="10.484463643186976"><ele>546.0</ele><time>2026-04-19T10:16:46Z</time></trkpt><trkpt lat="44.517951812097444" lon="10.484565043490676"><ele>546.0</ele><time>2026-04-19T10:16:48Z</time></trkpt><trkpt lat="44.518112459362484" lon="10.484611578196533"><ele>551.6666666666666</ele><time>2026-04-19T10:16:49Z</time></trkpt><trkpt lat="44.518247074996744" lon="10.48473330973993"><ele>557.3333333333333</ele><time>2026-04-19T10:16:50Z</time></trkpt><trkpt lat="44.51837494856585" lon="10.484856336862817"><ele>563.0</ele><time>2026-04-19T10:16:51Z</time></trkpt><trkpt lat="44.518512926423824" lon="10.48494225908947"><ele>563.0</ele><time>2026-04-19T10:16:52Z</time></trkpt><trkpt lat="44.5186570323012" lon="10.48494823535903"><ele>563.0</ele><time>2026-04-19T10:16:53Z</time></trkpt><trkpt lat="44.518776885980124" lon="10.484910835844303"><ele>563.0</ele><time>2026-04-19T10:16:54Z</time></trkpt><trkpt lat="44.51888879299842" lon="10.484878196070321"><ele>563.0</ele><time>2026-04-19T10:16:55Z</time></trkpt><trkpt lat="44.51897355992022" lon="10.484885030083923"><ele>564.0</ele><time>2026-04-19T10:16:56Z</time></trkpt><trkpt lat="44.519051316783425" lon="10.484842513565612"><ele>565.0</ele><time>2026-04-19T10:16:57Z</time></trkpt><trkpt lat="44.51913788742421" lon="10.484788627669008"><ele>566.0</ele><time>2026-04-19T10:16:58Z</time></trkpt><trkpt lat="44.51920713215828" lon="10.484811744297721"><ele>567.0</ele><time>2026-04-19T10:16:59Z</time></trkpt><trkpt lat="44.51930305684162" lon="10.48499567837888"><ele>568.0</ele><time>2026-04-19T10:17:01Z</time></trkpt><trkpt lat="44.51933694496205" lon="10.48507536208901"><ele>568.0</ele><time>2026-04-19T10:17:03Z</time></trkpt><trkpt lat="44.51941874143285" lon="10.485078894394396"><ele>568.0</ele><time>2026-04-19T10:17:06Z</time></trkpt><trkpt lat="44.51942475079681" lon="10.48517732193175"><ele>568.0</ele><time>2026-04-19T10:17:09Z</time></trkpt><trkpt lat="44.51974863356596" lon="10.485683221246001"><ele>568.3333333333334</ele><time>2026-04-19T10:17:10Z</time></trkpt><trkpt lat="44.51983857615422" lon="10.485905593203432"><ele>568.6666666666666</ele><time>2026-04-19T10:17:11Z</time></trkpt><trkpt lat="44.51987434226292" lon="10.486102351802955"><ele>569.0</ele><time>2026-04-19T10:17:12Z</time></trkpt><trkpt lat="44.519881226949884" lon="10.486292020116302"><ele>571.8</ele><time>2026-04-19T10:17:13Z</time></trkpt><trkpt lat="44.51988089495295" lon="10.48641355366663"><ele>574.5999999999999</ele><time>2026-04-19T10:17:14Z</time></trkpt><trkpt lat="44.51988382136398" lon="10.486529379478043"><ele>577.4</ele><time>2026-04-19T10:17:15Z</time></trkpt><trkpt lat="44.51991534300912" lon="10.48668825449253"><ele>580.1999999999999</ele><time>2026-04-19T10:17:16Z</time></trkpt><trkpt lat="44.51996682690546" lon="10.486821656086594"><ele>583.0</ele><time>2026-04-19T10:17:17Z</time></trkpt><trkpt lat="44.520039306896436" lon="10.486962168710951"><ele>587.6</ele><time>2026-04-19T10:17:18Z</time></trkpt><trkpt lat="44.520136890531774" lon="10.487122459556193"><ele>592.1999999999999</ele><time>2026-04-19T10:17:19Z</time></trkpt><trkpt lat="44.52018327611356" lon="10.487234746603454"><ele>596.8</ele><time>2026-04-19T10:17:20Z</time></trkpt><trkpt lat="44.52022063780788" lon="10.487356455131055"><ele>601.4</ele><time>2026-04-19T10:17:21Z</time></trkpt><trkpt lat="44.52017679356199" lon="10.487450620848751"><ele>606.0</ele><time>2026-04-19T10:17:22Z</time></trkpt><trkpt lat="44.52016761682419" lon="10.487562395884964"><ele>606.0</ele><time>2026-04-19T10:17:23Z</time></trkpt><trkpt lat="44.520187258758064" lon="10.487674836428235"><ele>606.0</ele><time>2026-04-19T10:17:24Z</time></trkpt><trkpt lat="44.52022834467967" lon="10.487823229124624"><ele>606.0</ele><time>2026-04-19T10:17:25Z</time></trkpt><trkpt lat="44.52029291294942" lon="10.487967283863362"><ele>606.0</ele><time>2026-04-19T10:17:26Z</time></trkpt><trkpt lat="44.52037731301234" lon="10.488096532079132"><ele>606.0</ele><time>2026-04-19T10:17:27Z</time></trkpt><trkpt lat="44.52044231278075" lon="10.488241139665936"><ele>604.8</ele><time>2026-04-19T10:17:28Z</time></trkpt><trkpt lat="44.5204632053618" lon="10.488328330723267"><ele>603.6</ele><time>2026-04-19T10:17:29Z</time></trkpt><trkpt lat="44.52047179804752" lon="10.48848214606572"><ele>602.4</ele><time>2026-04-19T10:17:30Z</time></trkpt><trkpt lat="44.5204742888218" lon="10.48857608308651"><ele>601.2</ele><time>2026-04-19T10:17:31Z</time></trkpt><trkpt lat="44.52053550608292" lon="10.488789972464216"><ele>600.0</ele><time>2026-04-19T10:17:33Z</time></trkpt><trkpt lat="44.52058463045754" lon="10.488967138256308"><ele>602.5</ele><time>2026-04-19T10:17:34Z</time></trkpt><trkpt lat="44.520636806537425" lon="10.489097036427879"><ele>605.0</ele><time>2026-04-19T10:17:35Z</time></trkpt><trkpt lat="44.520712588693115" lon="10.489168841631209"><ele>607.5</ele><time>2026-04-19T10:17:36Z</time></trkpt><trkpt lat="44.520782660385905" lon="10.489237936780798"><ele>610.0</ele><time>2026-04-19T10:17:37Z</time></trkpt><trkpt lat="44.52083366375071" lon="10.489317039599936"><ele>612.5</ele><time>2026-04-19T10:17:38Z</time></trkpt><trkpt lat="44.520881860999694" lon="10.489399504821176"><ele>615.0</ele><time>2026-04-19T10:17:39Z</time></trkpt><trkpt lat="44.52092978193921" lon="10.489479342348968"><ele>615.0</ele><time>2026-04-19T10:17:40Z</time></trkpt><trkpt lat="44.520979618744455" lon="10.48956514744875"><ele>615.0</ele><time>2026-04-19T10:17:42Z</time></trkpt><trkpt lat="44.52100755334765" lon="10.4896780002456"><ele>615.0</ele><time>2026-04-19T10:17:46Z</time></trkpt><trkpt lat="44.52104856528734" lon="10.489782848180985"><ele>615.0</ele><time>2026-04-19T10:17:50Z</time></trkpt><trkpt lat="44.52111508156532" lon="10.489883171471357"><ele>615.0</ele><time>2026-04-19T10:17:52Z</time></trkpt><trkpt lat="44.52116202248955" lon="10.489978622194846"><ele>615.0</ele><time>2026-04-19T10:17:54Z</time></trkpt><trkpt lat="44.521223602567" lon="10.490051127058523"><ele>616.3333333333334</ele><time>2026-04-19T10:17:57Z</time></trkpt><trkpt lat="44.52126672810823" lon="10.490162393497377"><ele>617.6666666666666</ele><time>2026-04-19T10:18:22Z</time></trkpt><trkpt lat="44.521320109624014" lon="10.490226382120742"><ele>619.0</ele><time>2026-04-19T10:20:31Z</time></trkpt><trkpt lat="44.52137745058064" lon="10.490357327499723"><ele>620.3333333333333</ele><time>2026-04-19T10:20:33Z</time></trkpt><trkpt lat="44.521413087638706" lon="10.49045070333426"><ele>621.6666666666666</ele><time>2026-04-19T10:20:34Z</time></trkpt><trkpt lat="44.52145182053984" lon="10.490524156652267"><ele>623.0</ele><time>2026-04-19T10:20:35Z</time></trkpt><trkpt lat="44.521512026750386" lon="10.490658705470224"><ele>624.1666666666666</ele><time>2026-04-19T10:20:37Z</time></trkpt><trkpt lat="44.52157293022629" lon="10.490711068564753"><ele>625.3333333333333</ele><time>2026-04-19T10:20:38Z</time></trkpt><trkpt lat="44.52160324660113" lon="10.490791554416651"><ele>626.5</ele><time>2026-04-19T10:20:39Z</time></trkpt><trkpt lat="44.52163941511659" lon="10.490908822212786"><ele>627.6666666666666</ele><time>2026-04-19T10:20:41Z</time></trkpt><trkpt lat="44.5215444204838" lon="10.490840582221486"><ele>628.8333333333334</ele><time>2026-04-19T10:20:42Z</time></trkpt><trkpt lat="44.521481706233075" lon="10.490741986665524"><ele>630.0</ele><time>2026-04-19T10:20:44Z</time></trkpt><trkpt lat="44.52137544144321" lon="10.490691827207936"><ele>630.0</ele><time>2026-04-19T10:20:46Z</time></trkpt><trkpt lat="44.52130101543371" lon="10.490670176586319"><ele>630.0</ele><time>2026-04-19T10:20:47Z</time></trkpt><trkpt lat="44.52123354853649" lon="10.490645546841048"><ele>630.0</ele><time>2026-04-19T10:20:48Z</time></trkpt><trkpt lat="44.52115225135181" lon="10.490628232517608"><ele>630.0</ele><time>2026-04-19T10:20:49Z</time></trkpt><trkpt lat="44.52107424511185" lon="10.490608130743379"><ele>630.0</ele><time>2026-04-19T10:20:50Z</time></trkpt><trkpt lat="44.520994740820235" lon="10.4905872950921"><ele>630.0</ele><time>2026-04-19T10:20:51Z</time></trkpt><trkpt lat="44.520911115987474" lon="10.49056267549242"><ele>629.8</ele><time>2026-04-19T10:20:52Z</time></trkpt><trkpt lat="44.52082364585766" lon="10.490523980792851"><ele>629.6</ele><time>2026-04-19T10:20:53Z</time></trkpt><trkpt lat="44.5207316872611" lon="10.49047883236656"><ele>629.4</ele><time>2026-04-19T10:20:54Z</time></trkpt><trkpt lat="44.52063211711083" lon="10.490438709499383"><ele>629.2</ele><time>2026-04-19T10:20:55Z</time></trkpt><trkpt lat="44.52051396118287" lon="10.49037001877587"><ele>629.0</ele><time>2026-04-19T10:20:56Z</time></trkpt><trkpt lat="44.520373248704296" lon="10.490291380164264"><ele>632.4</ele><time>2026-04-19T10:20:57Z</time></trkpt><trkpt lat="44.52026535524092" lon="10.490234905630702"><ele>635.8</ele><time>2026-04-19T10:20:58Z</time></trkpt><trkpt lat="44.52019197882831" lon="10.490209894068467"><ele>639.1999999999999</ele><time>2026-04-19T10:20:59Z</time></trkpt><trkpt lat="44.520091293675655" lon="10.49016734082968"><ele>642.5999999999999</ele><time>2026-04-19T10:21:01Z</time></trkpt><trkpt lat="44.52001106860432" lon="10.490167681701674"><ele>646.0</ele><time>2026-04-19T10:21:02Z</time></trkpt><trkpt lat="44.519926952907475" lon="10.49018528600132"><ele>646.0</ele><time>2026-04-19T10:21:03Z</time></trkpt><trkpt lat="44.51983380847858" lon="10.49020007635334"><ele>646.0</ele><time>2026-04-19T10:21:05Z</time></trkpt><trkpt lat="44.51973098039731" lon="10.490193557311693"><ele>646.0</ele><time>2026-04-19T10:21:07Z</time></trkpt><trkpt lat="44.51965983881481" lon="10.490189435053455"><ele>646.0</ele><time>2026-04-19T10:21:08Z</time></trkpt><trkpt lat="44.51960066959759" lon="10.490153815263595"><ele>646.0</ele><time>2026-04-19T10:21:09Z</time></trkpt><trkpt lat="44.51954972187279" lon="10.490076402487386"><ele>646.0</ele><time>2026-04-19T10:21:10Z</time></trkpt><trkpt lat="44.5195122988988" lon="10.490004450498214"><ele>649.1666666666667</ele><time>2026-04-19T10:21:11Z</time></trkpt><trkpt lat="44.51944661283508" lon="10.489975381322823"><ele>652.3333333333334</ele><time>2026-04-19T10:21:15Z</time></trkpt><trkpt lat="44.519358929203555" lon="10.490036737408493"><ele>655.5</ele><time>2026-04-19T10:21:19Z</time></trkpt><trkpt lat="44.51926107665385" lon="10.490110748926794"><ele>658.6666666666666</ele><time>2026-04-19T10:21:21Z</time></trkpt><trkpt lat="44.51916328673597" lon="10.490149935912976"><ele>661.8333333333333</ele><time>2026-04-19T10:21:23Z</time></trkpt><trkpt lat="44.5190985723546" lon="10.490164642115799"><ele>665.0</ele><time>2026-04-19T10:21:25Z</time></trkpt><trkpt lat="44.51881452594627" lon="10.490312775500273"><ele>664.2</ele><time>2026-04-19T10:21:27Z</time></trkpt><trkpt lat="44.51871115434675" lon="10.490378225895201"><ele>663.4</ele><time>2026-04-19T10:21:28Z</time></trkpt><trkpt lat="44.51864828920665" lon="10.49051247313654"><ele>662.5999999999999</ele><time>2026-04-19T10:21:29Z</time></trkpt><trkpt lat="44.51856798442023" lon="10.49057076102439"><ele>661.8</ele><time>2026-04-19T10:21:30Z</time></trkpt><trkpt lat="44.51844300623284" lon="10.490523746743074"><ele>661.0</ele><time>2026-04-19T10:21:31Z</time></trkpt><trkpt lat="44.51835089411049" lon="10.490563877954777"><ele>659.1999999999999</ele><time>2026-04-19T10:21:32Z</time></trkpt><trkpt lat="44.51828017187728" lon="10.490738469667788"><ele>657.4</ele><time>2026-04-19T10:21:33Z</time></trkpt><trkpt lat="44.51818479408627" lon="10.490770380976672"><ele>655.6</ele><time>2026-04-19T10:21:34Z</time></trkpt><trkpt lat="44.51808891133398" lon="10.490793008856379"><ele>653.8</ele><time>2026-04-19T10:21:35Z</time></trkpt><trkpt lat="44.51798522463912" lon="10.490781767758953"><ele>652.0</ele><time>2026-04-19T10:21:36Z</time></trkpt><trkpt lat="44.517924930204735" lon="10.49067513259844"><ele>653.8</ele><time>2026-04-19T10:21:37Z</time></trkpt><trkpt lat="44.51787752732647" lon="10.490581959672808"><ele>655.6</ele><time>2026-04-19T10:21:39Z</time></trkpt><trkpt lat="44.51783940539046" lon="10.490406814043215"><ele>657.4</ele><time>2026-04-19T10:21:41Z</time></trkpt><trkpt lat="44.51778939017431" lon="10.490344339430386"><ele>659.1999999999999</ele><time>2026-04-19T10:21:42Z</time></trkpt><trkpt lat="44.51768931893533" lon="10.490237447764715"><ele>661.0</ele><time>2026-04-19T10:21:44Z</time></trkpt><trkpt lat="44.517563423554165" lon="10.490135813154714"><ele>661.0</ele><time>2026-04-19T10:21:46Z</time></trkpt><trkpt lat="44.517486335245145" lon="10.490098537935522"><ele>661.0</ele><time>2026-04-19T10:21:47Z</time></trkpt><trkpt lat="44.51740963836416" lon="10.490063845033536"><ele>661.0</ele><time>2026-04-19T10:21:48Z</time></trkpt><trkpt lat="44.517334018360394" lon="10.49003407972627"><ele>661.0</ele><time>2026-04-19T10:21:49Z</time></trkpt><trkpt lat="44.517258620506304" lon="10.49000552101809"><ele>661.0</ele><time>2026-04-19T10:21:50Z</time></trkpt><trkpt lat="44.5171836516259" lon="10.489978390512396"><ele>661.0</ele><time>2026-04-19T10:21:51Z</time></trkpt><trkpt lat="44.51710672259441" lon="10.489979463436802"><ele>660.8333333333334</ele><time>2026-04-19T10:21:52Z</time></trkpt><trkpt lat="44.51703721458074" lon="10.490006099764903"><ele>660.6666666666667</ele><time>2026-04-19T10:21:53Z</time></trkpt><trkpt lat="44.5169653016513" lon="10.49006504602452"><ele>660.5</ele><time>2026-04-19T10:21:54Z</time></trkpt><trkpt lat="44.51689047558456" lon="10.490134355418764"><ele>660.3333333333334</ele><time>2026-04-19T10:21:55Z</time></trkpt><trkpt lat="44.516829074687415" lon="10.490190376007197"><ele>660.1666666666666</ele><time>2026-04-19T10:21:56Z</time></trkpt><trkpt lat="44.516785312737376" lon="10.490280498646761"><ele>660.0</ele><time>2026-04-19T10:21:57Z</time></trkpt><trkpt lat="44.516763269786416" lon="10.490391847531994"><ele>660.2</ele><time>2026-04-19T10:21:58Z</time></trkpt><trkpt lat="44.51675643873546" lon="10.49048457002393"><ele>660.4</ele><time>2026-04-19T10:21:59Z</time></trkpt><trkpt lat="44.51677683126728" lon="10.490634646653142"><ele>660.5999999999999</ele><time>2026-04-19T10:22:01Z</time></trkpt><trkpt lat="44.51677730425124" lon="10.490739728243202"><ele>660.8</ele><time>2026-04-19T10:22:03Z</time></trkpt><trkpt lat="44.51666536630448" lon="10.490821372399019"><ele>661.0</ele><time>2026-04-19T10:22:05Z</time></trkpt><trkpt lat="44.51656091547544" lon="10.490898229349762"><ele>661.0</ele><time>2026-04-19T10:22:07Z</time></trkpt><trkpt lat="44.51643854302546" lon="10.4909471928495"><ele>661.0</ele><time>2026-04-19T10:22:09Z</time></trkpt><trkpt lat="44.51636892874715" lon="10.490983076759553"><ele>661.0</ele><time>2026-04-19T10:22:10Z</time></trkpt><trkpt lat="44.51630424402138" lon="10.491022186990392"><ele>661.0</ele><time>2026-04-19T10:22:11Z</time></trkpt><trkpt lat="44.51622894200657" lon="10.491054475807621"><ele>661.0</ele><time>2026-04-19T10:22:12Z</time></trkpt><trkpt lat="44.51614545668534" lon="10.491077629088103"><ele>661.0</ele><time>2026-04-19T10:22:13Z</time></trkpt><trkpt lat="44.5160555023215" lon="10.491092117772014"><ele>660.1666666666667</ele><time>2026-04-19T10:22:14Z</time></trkpt><trkpt lat="44.51597347305651" lon="10.491074461483613"><ele>659.3333333333334</ele><time>2026-04-19T10:22:15Z</time></trkpt><trkpt lat="44.51589019330151" lon="10.491058696344018"><ele>658.5</ele><time>2026-04-19T10:22:16Z</time></trkpt><trkpt lat="44.51580555870155" lon="10.491055131062886"><ele>657.6666666666666</ele><time>2026-04-19T10:22:17Z</time></trkpt><trkpt lat="44.51572673677381" lon="10.491071847531181"><ele>656.8333333333333</ele><time>2026-04-19T10:22:18Z</time></trkpt><trkpt lat="44.515646006261356" lon="10.491111643006903"><ele>656.0</ele><time>2026-04-19T10:22:19Z</time></trkpt><trkpt lat="44.51557685956123" lon="10.491164652105214"><ele>656.0</ele><time>2026-04-19T10:22:20Z</time></trkpt><trkpt lat="44.5155100724085" lon="10.49121227298095"><ele>656.0</ele><time>2026-04-19T10:22:21Z</time></trkpt><trkpt lat="44.5154322416382" lon="10.491240452281971"><ele>656.0</ele><time>2026-04-19T10:22:22Z</time></trkpt><trkpt lat="44.515368198783484" lon="10.491240538002854"><ele>656.0</ele><time>2026-04-19T10:22:23Z</time></trkpt><trkpt lat="44.51531012388348" lon="10.49119782552382"><ele>656.0</ele><time>2026-04-19T10:22:24Z</time></trkpt><trkpt lat="44.515248447736795" lon="10.49112786093142"><ele>656.0</ele><time>2026-04-19T10:22:26Z</time></trkpt><trkpt lat="44.515254671845646" lon="10.491258611878203"><ele>649.5</ele><time>2026-04-19T10:22:28Z</time></trkpt><trkpt lat="44.515263782825556" lon="10.491362021668888"><ele>643.0</ele><time>2026-04-19T10:22:29Z</time></trkpt><trkpt lat="44.51527022111464" lon="10.491478969169425"><ele>636.5</ele><time>2026-04-19T10:22:30Z</time></trkpt><trkpt lat="44.51527544986569" lon="10.491582574903134"><ele>630.0</ele><time>2026-04-19T10:22:31Z</time></trkpt><trkpt lat="44.51528215757115" lon="10.491691898608355"><ele>623.5</ele><time>2026-04-19T10:22:32Z</time></trkpt><trkpt lat="44.51531922980969" lon="10.49184239232463"><ele>617.0</ele><time>2026-04-19T10:22:34Z</time></trkpt><trkpt lat="44.51530167584501" lon="10.492030409096394"><ele>614.1666666666666</ele><time>2026-04-19T10:22:36Z</time></trkpt><trkpt lat="44.5152837245441" lon="10.492151048479416"><ele>611.3333333333333</ele><time>2026-04-19T10:22:37Z</time></trkpt><trkpt lat="44.51528874180208" lon="10.492270883156843"><ele>608.5</ele><time>2026-04-19T10:22:38Z</time></trkpt><trkpt lat="44.51529377218268" lon="10.492380926242793"><ele>605.6666666666666</ele><time>2026-04-19T10:22:39Z</time></trkpt><trkpt lat="44.515288623448825" lon="10.492485226795798"><ele>602.8333333333334</ele><time>2026-04-19T10:22:40Z</time></trkpt><trkpt lat="44.515260801745264" lon="10.492595771682634"><ele>600.0</ele><time>2026-04-19T10:22:41Z</time></trkpt><trkpt lat="44.51521972682102" lon="10.492695491609808"><ele>599.9999999999999</ele><time>2026-04-19T10:22:42Z</time></trkpt><trkpt lat="44.51516621576559" lon="10.492763547918498"><ele>600.0</ele><time>2026-04-19T10:22:43Z</time></trkpt><trkpt lat="44.515095553727015" lon="10.492807892072241"><ele>600.0</ele><time>2026-04-19T10:22:44Z</time></trkpt><trkpt lat="44.51502120883019" lon="10.492820848857026"><ele>600.0</ele><time>2026-04-19T10:22:45Z</time></trkpt><trkpt lat="44.51495737890605" lon="10.492829364522615"><ele>600.0</ele><time>2026-04-19T10:22:46Z</time></trkpt><trkpt lat="44.51489602091063" lon="10.492859596346728"><ele>599.9999999999999</ele><time>2026-04-19T10:22:47Z</time></trkpt><trkpt lat="44.51484641190753" lon="10.492915580503302"><ele>600.0</ele><time>2026-04-19T10:22:48Z</time></trkpt><trkpt lat="44.514799351153904" lon="10.492980276529188"><ele>597.1666666666666</ele><time>2026-04-19T10:22:49Z</time></trkpt><trkpt lat="44.51476536481333" lon="10.493065935167126"><ele>594.3333333333334</ele><time>2026-04-19T10:22:50Z</time></trkpt><trkpt lat="44.51474785331336" lon="10.493167550653112"><ele>591.5</ele><time>2026-04-19T10:22:51Z</time></trkpt><trkpt lat="44.51475183582225" lon="10.493265748231646"><ele>588.6666666666667</ele><time>2026-04-19T10:22:52Z</time></trkpt><trkpt lat="44.514814870641274" lon="10.493358772313249"><ele>585.8333333333334</ele><time>2026-04-19T10:22:54Z</time></trkpt><trkpt lat="44.514730952180216" lon="10.493386697590898"><ele>583.0</ele><time>2026-04-19T10:22:57Z</time></trkpt><trkpt lat="44.51466708854973" lon="10.493365341275215"><ele>583.0</ele><time>2026-04-19T10:22:58Z</time></trkpt><trkpt lat="44.5146067167656" lon="10.493225421170576"><ele>583.0</ele><time>2026-04-19T10:23:00Z</time></trkpt><trkpt lat="44.5145859403089" lon="10.49312316091794"><ele>583.0</ele><time>2026-04-19T10:23:01Z</time></trkpt><trkpt lat="44.51456528269471" lon="10.493021944402862"><ele>583.0</ele><time>2026-04-19T10:23:02Z</time></trkpt><trkpt lat="44.51454441270202" lon="10.492923735614848"><ele>583.0</ele><time>2026-04-19T10:23:03Z</time></trkpt><trkpt lat="44.514522194667194" lon="10.492824922890852"><ele>583.0</ele><time>2026-04-19T10:23:04Z</time></trkpt><trkpt lat="44.51448454002426" lon="10.492735647017978"><ele>583.0</ele><time>2026-04-19T10:23:05Z</time></trkpt><trkpt lat="44.514422931342864" lon="10.492675263080914"><ele>583.0</ele><time>2026-04-19T10:23:06Z</time></trkpt><trkpt lat="44.514349680280176" lon="10.492666700139907"><ele>583.0</ele><time>2026-04-19T10:23:07Z</time></trkpt><trkpt lat="44.51426757078881" lon="10.492708920481146"><ele>583.0</ele><time>2026-04-19T10:23:08Z</time></trkpt><trkpt lat="44.514204041446234" lon="10.492800710792709"><ele>583.0</ele><time>2026-04-19T10:23:09Z</time></trkpt><trkpt lat="44.514175198583025" lon="10.49290893476675"><ele>583.0</ele><time>2026-04-19T10:23:10Z</time></trkpt><trkpt lat="44.51415568633403" lon="10.49301705565629"><ele>582.3333333333334</ele><time>2026-04-19T10:23:11Z</time></trkpt><trkpt lat="44.51413576558869" lon="10.493122760619075"><ele>581.6666666666667</ele><time>2026-04-19T10:23:12Z</time></trkpt><trkpt lat="44.51411431276051" lon="10.493222266364764"><ele>581.0</ele><time>2026-04-19T10:23:13Z</time></trkpt><trkpt lat="44.514088540922465" lon="10.493327051104401"><ele>580.3333333333334</ele><time>2026-04-19T10:23:14Z</time></trkpt><trkpt lat="44.514059496049654" lon="10.493435758809163"><ele>579.6666666666666</ele><time>2026-04-19T10:23:15Z</time></trkpt><trkpt lat="44.51403269036995" lon="10.493544339951148"><ele>579.0</ele><time>2026-04-19T10:23:16Z</time></trkpt><trkpt lat="44.51400507020698" lon="10.493652807833486"><ele>576.3333333333334</ele><time>2026-04-19T10:23:17Z</time></trkpt><trkpt lat="44.513980169058904" lon="10.493758174497335"><ele>573.6666666666666</ele><time>2026-04-19T10:23:18Z</time></trkpt><trkpt lat="44.51395738303974" lon="10.493863899865561"><ele>571.0</ele><time>2026-04-19T10:23:19Z</time></trkpt><trkpt lat="44.51393173284963" lon="10.493976717324397"><ele>568.3333333333333</ele><time>2026-04-19T10:23:20Z</time></trkpt><trkpt lat="44.51390219412116" lon="10.494084694761233"><ele>565.6666666666666</ele><time>2026-04-19T10:23:21Z</time></trkpt><trkpt lat="44.513875550903116" lon="10.494203774760662"><ele>563.0</ele><time>2026-04-19T10:23:22Z</time></trkpt><trkpt lat="44.513845908912" lon="10.494316271501093"><ele>563.0</ele><time>2026-04-19T10:23:23Z</time></trkpt><trkpt lat="44.513818024079974" lon="10.494428737829484"><ele>563.0</ele><time>2026-04-19T10:23:24Z</time></trkpt><trkpt lat="44.5137925731451" lon="10.494542604443547"><ele>563.0</ele><time>2026-04-19T10:23:25Z</time></trkpt><trkpt lat="44.51377072757814" lon="10.494648178550209"><ele>563.0</ele><time>2026-04-19T10:23:26Z</time></trkpt><trkpt lat="44.51375262730156" lon="10.494742349961147"><ele>563.0</ele><time>2026-04-19T10:23:27Z</time></trkpt><trkpt lat="44.51381769777161" lon="10.494891334827566"><ele>563.0</ele><time>2026-04-19T10:23:29Z</time></trkpt><trkpt lat="44.51384816244923" lon="10.4949710400616"><ele>561.8</ele><time>2026-04-19T10:23:30Z</time></trkpt><trkpt lat="44.51381477000778" lon="10.495170254892257"><ele>560.5999999999999</ele><time>2026-04-19T10:23:32Z</time></trkpt><trkpt lat="44.51378112744118" lon="10.495294670322306"><ele>559.4000000000001</ele><time>2026-04-19T10:23:33Z</time></trkpt><trkpt lat="44.51374987586258" lon="10.495430542783986"><ele>558.2</ele><time>2026-04-19T10:23:34Z</time></trkpt><trkpt lat="44.51371961645029" lon="10.495563875170363"><ele>557.0</ele><time>2026-04-19T10:23:35Z</time></trkpt><trkpt lat="44.51368449796213" lon="10.495697457667076"><ele>559.8000000000001</ele><time>2026-04-19T10:23:36Z</time></trkpt><trkpt lat="44.51364258979945" lon="10.495831226659272"><ele>562.6</ele><time>2026-04-19T10:23:37Z</time></trkpt><trkpt lat="44.513591215026715" lon="10.495953278285786"><ele>565.4000000000001</ele><time>2026-04-19T10:23:38Z</time></trkpt><trkpt lat="44.513524295346" lon="10.496075726652613"><ele>568.2</ele><time>2026-04-19T10:23:39Z</time></trkpt><trkpt lat="44.51344944889533" lon="10.496187271368521"><ele>571.0</ele><time>2026-04-19T10:23:40Z</time></trkpt><trkpt lat="44.51334859022775" lon="10.496254193989598"><ele>572.0</ele><time>2026-04-19T10:23:41Z</time></trkpt><trkpt lat="44.513257869158515" lon="10.496341205970275"><ele>573.0</ele><time>2026-04-19T10:23:42Z</time></trkpt><trkpt lat="44.51315688529071" lon="10.496398329213433"><ele>574.0</ele><time>2026-04-19T10:23:43Z</time></trkpt><trkpt lat="44.51305446467501" lon="10.496458589316195"><ele>575.0</ele><time>2026-04-19T10:23:44Z</time></trkpt><trkpt lat="44.5129560554698" lon="10.496524061348651"><ele>576.0</ele><time>2026-04-19T10:23:45Z</time></trkpt><trkpt lat="44.512868011360005" lon="10.496596978879623"><ele>576.0</ele><time>2026-04-19T10:23:46Z</time></trkpt><trkpt lat="44.51277981602372" lon="10.496694707165755"><ele>576.0</ele><time>2026-04-19T10:23:47Z</time></trkpt><trkpt lat="44.51268921739759" lon="10.49680063606368"><ele>576.0</ele><time>2026-04-19T10:23:48Z</time></trkpt><trkpt lat="44.51260877682407" lon="10.49689921957495"><ele>576.0</ele><time>2026-04-19T10:23:49Z</time></trkpt><trkpt lat="44.51254781913914" lon="10.496996507506173"><ele>576.0</ele><time>2026-04-19T10:23:50Z</time></trkpt><trkpt lat="44.51250850893259" lon="10.497105066331487"><ele>577.1666666666666</ele><time>2026-04-19T10:23:51Z</time></trkpt><trkpt lat="44.51247441985407" lon="10.49722598566837"><ele>578.3333333333334</ele><time>2026-04-19T10:23:52Z</time></trkpt><trkpt lat="44.51244818793803" lon="10.497353537556274"><ele>579.5</ele><time>2026-04-19T10:23:53Z</time></trkpt><trkpt lat="44.51241522197943" lon="10.497461938146346"><ele>580.6666666666667</ele><time>2026-04-19T10:23:54Z</time></trkpt><trkpt lat="44.51238400431566" lon="10.49756248790066"><ele>581.8333333333334</ele><time>2026-04-19T10:23:55Z</time></trkpt><trkpt lat="44.51235035131775" lon="10.497683761805735"><ele>583.0</ele><time>2026-04-19T10:23:56Z</time></trkpt><trkpt lat="44.51231649378499" lon="10.49780595002794"><ele>583.8</ele><time>2026-04-19T10:23:57Z</time></trkpt><trkpt lat="44.5122808824534" lon="10.497919208433824"><ele>584.5999999999999</ele><time>2026-04-19T10:23:58Z</time></trkpt><trkpt lat="44.51224144295154" lon="10.498040690363732"><ele>585.4000000000001</ele><time>2026-04-19T10:23:59Z</time></trkpt><trkpt lat="44.51219886698637" lon="10.498158565586944"><ele>586.2</ele><time>2026-04-19T10:24:00Z</time></trkpt><trkpt lat="44.51215455012998" lon="10.498297382506141"><ele>587.0</ele><time>2026-04-19T10:24:01Z</time></trkpt><trkpt lat="44.51210665522469" lon="10.498423151481513"><ele>585.6666666666666</ele><time>2026-04-19T10:24:02Z</time></trkpt><trkpt lat="44.5120632069196" lon="10.498543702433563"><ele>584.3333333333333</ele><time>2026-04-19T10:24:03Z</time></trkpt><trkpt lat="44.51201769479192" lon="10.498649372504584"><ele>583.0</ele><time>2026-04-19T10:24:04Z</time></trkpt><trkpt lat="44.511973757030496" lon="10.498755152390089"><ele>581.6666666666666</ele><time>2026-04-19T10:24:05Z</time></trkpt><trkpt lat="44.511923260046316" lon="10.498852408457054"><ele>580.3333333333334</ele><time>2026-04-19T10:24:06Z</time></trkpt><trkpt lat="44.51185925588311" lon="10.498927425450107"><ele>579.0</ele><time>2026-04-19T10:24:07Z</time></trkpt><trkpt lat="44.51180756906571" lon="10.499013095945081"><ele>578.6</ele><time>2026-04-19T10:24:08Z</time></trkpt><trkpt lat="44.51176924507696" lon="10.499108160202507"><ele>578.2</ele><time>2026-04-19T10:24:09Z</time></trkpt><trkpt lat="44.511726077256405" lon="10.499173805830367"><ele>577.8000000000001</ele><time>2026-04-19T10:24:10Z</time></trkpt><trkpt lat="44.511641508262706" lon="10.499288504778164"><ele>577.4</ele><time>2026-04-19T10:24:12Z</time></trkpt><trkpt lat="44.51156750213966" lon="10.499429293953304"><ele>577.0</ele><time>2026-04-19T10:24:14Z</time></trkpt><trkpt lat="44.511496401867014" lon="10.499560804150459"><ele>576.8333333333334</ele><time>2026-04-19T10:24:16Z</time></trkpt><trkpt lat="44.51142193925769" lon="10.49965410088638"><ele>576.6666666666667</ele><time>2026-04-19T10:24:18Z</time></trkpt><trkpt lat="44.51138160990765" lon="10.499752685308302"><ele>576.5</ele><time>2026-04-19T10:24:21Z</time></trkpt><trkpt lat="44.51132514243849" lon="10.499810271619989"><ele>576.3333333333334</ele><time>2026-04-19T10:24:32Z</time></trkpt><trkpt lat="44.51132267324919" lon="10.49992183042474"><ele>576.1666666666666</ele><time>2026-04-19T10:24:34Z</time></trkpt><trkpt lat="44.51135701838592" lon="10.500033730069102"><ele>576.0</ele><time>2026-04-19T10:24:35Z</time></trkpt><trkpt lat="44.51134359254856" lon="10.50015241302647"><ele>576.0</ele><time>2026-04-19T10:24:36Z</time></trkpt><trkpt lat="44.51135660765821" lon="10.50024037452229"><ele>576.0</ele><time>2026-04-19T10:24:37Z</time></trkpt><trkpt lat="44.5113709310664" lon="10.500378646234296"><ele>576.0</ele><time>2026-04-19T10:24:39Z</time></trkpt><trkpt lat="44.51138140651782" lon="10.50048674629831"><ele>576.0</ele><time>2026-04-19T10:24:42Z</time></trkpt><trkpt lat="44.51149101022984" lon="10.500485873955745"><ele>576.0</ele><time>2026-04-19T10:24:44Z</time></trkpt><trkpt lat="44.5115433367974" lon="10.500570919922191"><ele>576.0</ele><time>2026-04-19T10:24:46Z</time></trkpt><trkpt lat="44.511650143808474" lon="10.500649700091357"><ele>575.6</ele><time>2026-04-19T10:24:48Z</time></trkpt><trkpt lat="44.51171015624061" lon="10.500688036323186"><ele>575.2</ele><time>2026-04-19T10:24:49Z</time></trkpt><trkpt lat="44.511816096561695" lon="10.500661366602023"><ele>574.8</ele><time>2026-04-19T10:24:51Z</time></trkpt><trkpt lat="44.51189430307945" lon="10.500541080680872"><ele>574.4</ele><time>2026-04-19T10:24:53Z</time></trkpt><trkpt lat="44.5119328294312" lon="10.500442685307672"><ele>574.0</ele><time>2026-04-19T10:24:55Z</time></trkpt><trkpt lat="44.51183276779008" lon="10.500478472000314"><ele>574.0</ele><time>2026-04-19T10:25:32Z</time></trkpt><trkpt lat="44.51189212949156" lon="10.500422587885533"><ele>574.0</ele><time>2026-04-19T10:25:37Z</time></trkpt><trkpt lat="44.511958667604944" lon="10.500433220390345"><ele>574.0</ele><time>2026-04-19T10:25:56Z</time></trkpt><trkpt lat="44.511974597356385" lon="10.500342826738835"><ele>574.0</ele><time>2026-04-19T10:26:00Z</time></trkpt><trkpt lat="44.51196983790859" lon="10.500252674168"><ele>574.0</ele><time>2026-04-19T10:26:11Z</time></trkpt><trkpt lat="44.51192763019495" lon="10.500175141268315"><ele>574.0</ele><time>2026-04-19T10:26:27Z</time></trkpt><trkpt lat="44.51186507626158" lon="10.500200781214017"><ele>574.0</ele><time>2026-04-19T10:26:37Z</time></trkpt><trkpt lat="44.51179356687663" lon="10.500206303517711"><ele>576.0</ele><time>2026-04-19T10:26:48Z</time></trkpt><trkpt lat="44.51173481195674" lon="10.500238595754519"><ele>576.0</ele><time>2026-04-19T10:26:53Z</time></trkpt><trkpt lat="44.511674105756974" lon="10.500277967406715"><ele>576.0</ele><time>2026-04-19T10:27:01Z</time></trkpt><trkpt lat="44.5116090673277" lon="10.500250840602277"><ele>576.0</ele><time>2026-04-19T10:27:08Z</time></trkpt><trkpt lat="44.51151120178555" lon="10.50023653904442"><ele>576.0</ele><time>2026-04-19T10:28:05Z</time></trkpt></trkseg></trk></gpx>